GFSSGP_sfc_rhum_000.txt.gz
RH
58 31 31 20 19 23 27 17 16 15 24 51 55 55 65 68 71 86 81 69 70 74 81 84 88 88 89 90 90 89 89 88 87 87 88 87 84 81 79 78 78 69 70 68 68 80 74 83 85
44 22 15 20 25 27 23 16 16 14 39 42 45 62 72 90 78 82 81 69 67 72 83 89 88 89 89 89 89 88 85 85 88 86 87 87 83 81 79 76 73 69 67 70 76 73 73 81 77
29 23 12 21 27 26 21 16 14 22 46 30 59 63 71 76 76 77 72 69 74 90 93 88 86 89 91 90 90 90 89 90 90 90 87 86 82 81 78 73 79 72 71 71 75 77 74 80 79
21 14 14 16 28 19 17 15 16 19 46 52 62 76 70 64 65 72 68 75 90 95 94 92 89 88 91 90 88 89 90 90 91 91 88 84 80 76 79 78 77 73 76 73 76 77 82 82 83
20 16 17 17 16 16 12 12 21 45 55 55 56 68 78 65 64 68 70 76 89 95 95 93 91 87 87 83 84 88 91 92 92 91 91 84 81 78 76 77 78 82 80 80 78 83 83 86 86
13 15 17 20 16 11 11 12 17 32 53 53 60 69 70 64 64 68 66 78 81 91 95 91 87 86 85 84 85 86 89 92 94 92 90 89 88 87 86 84 86 83 80 78 79 80 82 80 83
14 16 18 16 15 13 11 12 14 13 14 36 48 69 79 68 62 60 66 76 80 85 94 95 91 85 86 85 84 84 86 90 94 93 92 91 92 91 87 84 83 81 82 85 87 84 86 85 89
14 14 20 16 13 13 9 12 14 13 15 43 52 61 65 63 61 59 60 77 84 92 94 95 94 88 85 84 86 86 85 89 93 94 94 91 91 90 85 84 82 79 78 77 77 82 84 85 85
13 17 19 21 16 21 12 16 16 14 14 19 38 47 52 48 60 60 65 71 75 79 94 96 96 93 87 81 80 86 84 87 92 96 95 93 95 94 92 86 84 80 79 77 77 78 84 82 81
14 19 30 16 14 18 17 16 14 12 20 22 52 47 50 59 61 62 64 68 64 73 80 85 91 92 89 66 87 90 89 93 95 96 98 98 96 95 89 90 85 79 82 83 84 84 83 84 89
39 23 19 19 18 18 22 19 16 16 20 23 53 47 55 63 60 59 62 59 57 54 64 74 79 84 80 82 96 98 98 98 97 93 95 94 91 96 98 98 98 97 89 98 94 95 96 92 94
19 19 18 18 19 20 23 33 20 40 16 18 34 50 57 59 59 59 48 54 48 50 59 76 79 78 81 85 95 94 93 96 96 94 90 96 97 96 97 98 98 96 97 96 97 98 96 92 91
21 21 19 17 17 19 20 20 19 20 16 18 26 31 38 45 46 44 44 45 46 46 56 72 77 81 79 74 74 74 75 81 79 81 80 95 96 96 97 96 96 96 97 97 97 97 96 95 94
27 23 21 18 19 20 20 22 22 17 18 18 26 28 28 28 29 34 34 37 38 42 54 71 72 76 76 79 73 70 69 69 74 80 80 87 91 91 95 96 96 95 93 93 92 92 92 93 94
24 25 22 21 21 20 17 19 18 14 16 19 22 28 28 26 29 30 28 29 30 41 48 60 66 70 66 76 73 71 66 63 73 75 76 79 74 69 74 80 89 86 89 89 92 88 91 90 92
27 28 30 20 21 17 16 20 14 16 20 21 22 24 27 28 26 30 30 30 32 37 44 45 45 62 63 72 74 70 66 65 68 76 76 71 71 68 73 76 74 70 73 83 64 67 68 72 76
30 30 30 22 18 19 20 21 19 20 19 20 23 23 26 27 25 26 28 36 34 38 39 33 46 49 51 55 62 56 58 56 60 79 78 70 67 65 69 79 72 63 68 69 63 66 68 65 66
34 29 35 32 24 30 28 28 25 20 20 19 21 22 24 25 30 29 29 32 36 36 38 33 30 33 44 50 49 51 54 54 59 71 78 67 64 59 61 73 72 64 69 70 70 63 68 68 66
30 32 37 32 27 33 35 35 28 24 27 27 29 28 30 32 40 37 35 36 35 34 32 35 35 36 43 47 49 49 48 51 55 58 67 69 64 59 57 64 71 72 67 68 66 64 66 65 69
28 39 39 34 29 37 35 35 26 22 26 26 29 30 28 31 33 34 34 38 32 33 32 33 33 36 41 44 47 45 47 48 48 51 56 67 66 59 55 60 65 67 69 66 66 67 71 73 73
32 40 41 39 38 40 36 35 25 23 28 27 28 28 27 27 29 33 36 38 39 35 36 33 33 35 41 44 46 49 55 55 54 51 54 58 63 58 57 58 65 63 66 65 64 63 66 71 74
36 30 36 40 46 52 39 55 33 26 28 29 29 30 29 28 31 30 32 42 44 39 42 39 37 38 40 47 48 46 36 38 38 38 49 55 57 57 59 60 64 65 71 70 71 67 76 77 78
33 34 41 45 52 54 43 47 33 26 27 27 36 34 36 38 34 35 37 34 35 40 46 47 45 44 42 47 54 53 48 44 41 56 52 54 61 62 64 63 67 72 73 64 59 57 56 69 70
34 42 50 53 53 69 49 44 43 35 28 35 38 36 36 38 40 38 39 40 44 50 50 52 53 49 50 52 53 59 57 49 53 54 59 66 69 70 68 63 65 64 61 58 58 52 52 55 55
44 60 83 74 81 77 48 51 42 35 30 30 32 37 39 35 38 39 47 50 54 54 56 54 55 51 51 58 59 61 61 59 56 50 58 64 60 60 59 58 61 60 60 61 62 60 60 59 55
49 58 86 83 88 79 52 57 42 30 31 29 30 31 34 45 41 44 52 55 55 55 55 51 48 49 48 54 54 63 67 74 72 66 72 73 64 65 62 66 69 68 68 71 68 70 72 68 68
49 66 53 70 94 89 71 53 33 35 37 37 40 41 45 47 52 52 53 57 60 60 60 61 61 51 53 58 61 62 65 68 66 65 66 63 61 57 66 76 85 89 90 88 74 73 69 67 68
47 45 69 85 89 96 73 64 53 42 45 43 47 49 49 48 47 48 54 59 60 62 65 66 63 57 60 53 58 55 57 60 61 60 60 64 68 74 82 88 89 90 82 74 69 70 68 70 72
54 71 62 62 83 96 98 84 52 48 48 47 46 51 52 49 52 57 56 54 52 54 58 64 68 67 52 48 60 61 55 57 56 58 63 62 65 69 69 74 74 73 72 68 66 66 68 71 71
54 62 66 91 83 90 93 72 41 49 39 49 50 49 51 52 56 62 61 61 63 65 69 68 73 58 52 54 61 60 57 54 57 62 62 61 58 54 54 58 59 60 61 63 65 68 64 67 66

GFSSGP_sfc_rhum_003.txt.gz
RH
67 32 30 21 18 22 26 18 15 16 66 68 59 57 66 83 72 68 76 68 77 88 91 89 90 91 91 90 91 91 90 86 86 88 87 83 79 78 77 80 78 71 69 62 74 71 75 80 79
47 23 15 21 22 26 22 19 23 41 65 64 62 69 84 92 85 91 84 72 73 87 91 91 91 91 90 90 90 90 88 86 87 86 86 83 80 78 78 75 77 71 65 66 65 67 73 77 81
36 20 12 23 28 25 24 20 32 59 56 46 72 70 75 89 82 82 78 74 88 94 92 90 92 92 90 90 89 90 90 93 91 88 86 84 79 80 79 79 75 71 69 66 68 68 68 74 80
22 14 15 18 20 20 21 26 19 36 50 58 71 80 74 70 76 78 77 82 91 95 94 90 92 92 91 87 86 86 89 92 94 91 86 80 78 75 79 76 74 72 71 69 71 73 80 84 85
16 16 17 18 19 17 18 35 42 52 57 57 60 81 85 72 77 80 87 82 91 96 95 92 90 89 89 83 84 88 90 92 92 92 88 84 80 78 73 77 79 76 79 76 77 81 83 86 85
13 15 17 21 17 14 14 25 24 45 52 54 64 76 83 74 80 83 82 88 83 92 95 91 86 85 85 87 88 90 92 93 92 91 90 85 83 83 82 78 80 81 79 77 79 81 82 81 79
13 15 19 19 15 12 14 16 15 14 24 38 57 88 87 79 76 78 85 92 89 94 95 94 92 86 86 85 86 89 91 94 94 91 91 91 91 91 85 83 81 80 82 84 84 86 85 83 88
15 14 19 18 14 14 10 14 16 14 21 47 58 68 86 75 68 77 84 93 94 94 94 94 92 91 91 93 90 88 90 93 95 92 91 89 91 90 84 83 80 78 77 74 76 82 84 84 85
15 18 24 22 18 20 15 23 16 16 29 27 51 54 52 66 69 75 86 87 93 94 94 95 94 92 90 85 84 88 86 91 95 94 92 93 95 92 90 83 82 80 81 81 82 80 81 79 79
17 21 19 17 16 24 18 32 16 15 36 53 66 54 63 66 72 69 77 82 83 94 96 96 95 95 92 73 88 90 89 95 97 99 98 97 94 94 88 88 82 80 80 81 82 84 85 88 95
22 22 18 19 17 16 25 25 19 17 28 47 53 56 71 76 68 68 73 70 75 89 90 94 96 94 94 90 96 98 98 98 97 96 98 97 95 96 97 98 98 96 88 97 94 95 96 91 94
20 22 19 20 19 22 23 34 24 42 17 19 45 48 70 72 66 61 72 68 63 62 69 80 87 90 88 95 97 97 98 98 98 96 94 97 98 97 98 99 98 98 98 96 97 99 97 95 94
23 22 21 20 20 22 22 21 20 20 17 21 47 52 64 67 65 74 58 64 57 52 63 80 84 88 80 81 81 89 92 98 96 95 93 96 96 96 97 98 98 98 98 98 98 96 96 95 96
28 25 22 22 22 23 23 23 25 20 21 20 38 54 62 59 57 48 54 56 53 50 58 73 82 88 78 76 72 74 77 80 85 86 84 92 96 96 96 98 97 97 96 95 94 92 91 92 93
24 24 24 25 24 23 21 18 20 20 19 21 32 40 40 39 35 35 45 46 45 45 52 72 76 82 81 81 77 74 72 72 78 82 85 91 88 83 90 96 97 95 91 90 91 80 88 81 85
25 28 29 21 26 22 18 22 15 20 20 20 24 30 31 31 31 37 36 40 37 46 53 62 56 72 72 82 80 77 76 75 74 82 85 84 77 70 74 78 86 80 72 91 74 65 68 72 74
33 34 31 24 23 26 21 22 16 25 21 20 24 27 31 33 27 27 30 33 35 44 49 45 62 65 63 71 76 71 68 67 65 78 84 78 76 74 77 79 77 72 72 73 65 67 70 66 65
37 33 46 33 28 35 37 28 27 28 24 23 31 27 28 27 35 37 36 36 40 45 39 35 47 50 53 55 56 54 57 62 66 65 79 77 76 73 70 76 81 74 73 73 74 68 72 70 69
32 36 44 36 30 37 42 41 35 32 30 30 31 31 36 36 43 39 40 41 40 43 40 32 33 36 48 51 52 52 51 52 57 58 58 74 74 71 69 70 78 78 73 70 74 70 67 70 73
36 41 39 38 33 43 41 39 26 25 28 32 34 37 35 38 37 36 38 39 34 35 36 37 36 37 41 45 47 48 49 50 50 54 57 68 73 68 65 63 65 74 74 73 76 71 76 75 79
34 41 42 41 41 45 42 38 27 27 30 29 30 32 34 37 38 38 36 36 38 36 36 34 34 35 41 45 48 50 55 56 57 52 55 53 64 66 67 61 59 68 74 70 72 74 72 71 79
40 32 41 43 50 53 45 48 37 29 33 32 33 35 36 33 33 34 38 39 41 39 43 42 41 42 41 46 49 52 44 42 39 44 45 46 61 57 60 58 61 64 74 74 72 69 74 74 70
38 41 46 52 56 63 45 49 41 35 31 37 42 38 39 37 36 35 37 37 42 44 47 55 54 50 50 53 56 60 61 56 51 54 62 58 58 68 63 61 63 69 73 72 72 71 66 64 67
38 50 53 58 58 68 55 52 46 40 38 43 40 41 44 39 42 40 44 50 53 59 59 57 55 53 51 53 58 66 68 63 67 65 69 64 72 73 73 70 70 67 61 60 59 53 50 56 59
48 64 78 69 80 77 55 54 45 38 36 38 40 38 39 40 42 49 56 56 57 60 61 58 59 58 58 59 60 57 62 72 74 72 73 72 74 73 71 65 64 65 68 70 67 72 71 66 70
54 62 85 75 89 83 58 64 45 38 34 34 32 40 43 47 50 56 56 60 62 66 64 66 63 61 59 64 56 57 64 72 76 80 76 81 76 78 78 82 81 82 86 85 84 89 89 90 88
55 70 59 80 96 92 76 58 41 43 46 40 45 49 55 57 57 61 65 61 62 62 63 68 65 64 65 64 58 61 62 64 68 68 76 78 75 75 91 93 89 88 87 89 94 92 88 79 74
49 50 73 87 88 92 81 76 60 51 55 51 55 58 53 55 57 59 62 60 59 62 68 72 68 70 70 52 54 55 62 64 67 72 72 74 80 86 90 87 82 82 86 89 89 84 74 75 76
63 74 68 67 85 93 97 85 59 59 52 57 58 57 56 56 59 61 61 62 62 65 67 71 71 76 65 56 60 65 65 64 65 68 72 75 77 72 70 66 69 83 87 82 80 76 73 74 72
57 68 69 88 82 91 95 76 50 51 53 56 61 57 59 57 60 64 66 67 69 70 72 71 78 78 61 64 65 60 69 63 62 67 66 66 58 56 56 60 61 65 66 66 70 71 67 69 69

GFSSGP_sfc_rhum_009.txt.gz
RH
41 22 20 15 13 15 16 15 12 34 52 53 51 43 58 72 57 53 68 60 62 67 72 74 91 91 90 86 87 86 87 85 84 84 84 80 79 78 81 79 78 73 66 65 68 66 71 79 83
31 15 15 16 16 17 23 19 22 50 57 56 57 63 67 72 77 71 61 60 59 66 70 73 90 90 91 92 90 89 86 85 85 83 82 80 79 80 79 79 76 70 69 66 68 69 67 75 77
20 10 12 17 20 18 28 24 52 57 52 49 61 61 66 73 73 63 60 58 63 65 69 73 89 89 88 90 91 92 91 91 90 87 84 82 81 80 80 78 73 73 72 70 70 70 76 84 86
13 10 12 21 24 19 24 32 51 50 46 54 58 62 64 63 66 62 54 60 62 61 68 82 91 89 86 85 86 88 90 92 91 89 86 82 80 79 79 79 78 77 76 77 76 79 84 88 86
11 12 16 23 24 22 24 27 40 41 46 50 53 69 72 68 66 59 63 64 57 62 68 65 91 87 86 81 83 86 89 91 91 89 87 84 82 78 75 75 79 80 81 81 83 82 81 81 79
11 13 18 23 19 11 18 21 33 40 49 57 58 64 69 73 65 64 63 63 57 58 65 65 83 87 86 85 86 88 89 89 89 89 88 85 86 85 83 83 81 80 79 79 82 84 86 86 89
12 14 14 14 13 10 10 9 16 24 30 37 49 59 75 76 64 65 63 60 63 63 62 64 61 69 88 86 86 88 89 89 88 88 89 88 89 86 82 81 79 77 78 78 80 82 82 82 82
11 11 13 12 11 10 9 11 11 15 27 44 47 48 70 61 67 71 70 68 65 66 63 69 67 61 65 64 86 89 90 91 89 87 86 87 88 83 80 75 76 77 78 78 78 79 80 79 81
12 13 13 12 10 11 12 11 12 17 29 24 34 49 44 56 70 74 77 72 74 72 67 69 69 66 66 63 68 80 87 90 92 85 87 82 64 65 64 76 78 78 76 76 77 79 79 77 76
13 15 14 12 11 12 13 11 11 16 28 36 41 47 61 66 70 72 72 69 72 70 72 67 72 71 70 56 66 69 68 66 72 72 76 68 73 69 68 74 79 79 78 80 82 81 79 63 51
17 16 15 14 11 12 15 14 13 18 22 25 23 46 63 67 69 68 64 58 60 61 65 68 75 77 73 64 62 62 62 67 70 80 79 77 74 74 70 69 66 70 77 66 69 68 68 73 70
17 16 15 15 16 15 14 15 15 16 13 17 27 46 59 62 66 66 65 62 62 67 65 69 74 80 81 70 67 66 65 67 68 70 80 79 75 77 76 68 69 75 71 76 76 76 78 73 72
18 16 16 15 15 14 17 16 15 15 14 14 34 54 58 57 56 59 58 59 62 63 66 71 78 79 75 75 71 74 74 71 71 73 76 75 73 76 71 70 70 72 71 72 73 72 63 59 55
21 19 19 18 17 18 18 17 17 14 15 18 36 44 52 58 58 56 55 54 59 57 61 68 69 71 67 66 74 72 74 73 73 73 74 80 75 76 70 69 67 68 69 68 74 66 55 54 54
22 19 18 20 20 17 18 16 15 14 13 15 25 38 51 57 57 56 49 51 50 53 54 62 65 68 70 65 61 58 56 61 66 69 76 75 75 72 74 70 69 66 69 76 68 62 58 52 50
20 22 21 19 22 19 16 20 15 15 17 17 18 24 45 50 49 39 38 32 40 46 51 56 55 62 67 66 60 56 53 56 53 55 59 67 68 69 71 66 66 64 72 71 66 59 52 44 44
26 19 24 22 26 27 24 24 19 21 24 23 21 19 33 40 32 23 27 28 38 42 46 51 57 56 59 60 57 62 64 58 53 55 52 59 64 68 68 63 61 66 62 68 64 59 56 44 43
26 23 26 26 23 29 30 28 26 22 25 26 22 22 28 28 25 30 30 28 31 40 45 47 48 53 57 51 52 45 45 44 47 46 46 53 52 64 65 60 66 63 56 58 59 60 52 46 43
25 26 30 27 29 32 36 32 21 24 24 26 25 26 26 28 30 31 35 37 38 43 43 41 42 47 45 39 39 37 39 37 37 36 42 47 46 54 60 57 60 63 61 58 59 58 61 51 52
26 29 26 29 30 34 34 26 24 26 30 32 31 30 29 28 28 32 33 36 37 39 38 34 33 36 34 34 37 40 41 38 39 42 46 45 48 47 49 58 55 57 58 64 64 64 55 53 54
34 29 32 34 33 34 33 27 28 23 26 27 28 29 28 27 27 27 28 32 37 38 40 35 37 39 43 45 38 39 42 42 38 34 36 39 48 48 50 53 55 57 58 60 63 64 62 54 52
38 32 40 40 41 36 37 30 31 30 26 28 27 27 27 27 28 28 31 36 42 46 51 45 45 42 44 48 44 49 42 41 41 44 41 44 50 51 49 53 57 59 60 62 62 56 63 61 54
40 43 44 42 44 43 40 32 31 31 28 26 28 29 29 31 33 39 46 46 47 50 53 51 46 45 48 48 49 46 49 46 46 46 48 48 49 51 53 56 60 62 60 62 66 66 68 59 56
41 43 41 47 47 52 46 41 37 33 33 31 29 30 35 36 36 41 47 45 46 49 53 53 48 45 48 50 47 53 56 55 52 50 49 46 47 50 57 57 63 64 64 65 63 61 63 61 59
43 43 50 61 66 57 47 45 38 36 34 32 34 36 45 49 47 46 45 44 46 48 51 50 49 47 51 56 49 52 56 56 54 53 50 51 51 51 58 63 67 67 70 70 70 73 78 78 80
50 50 65 58 66 61 52 48 43 41 38 36 44 45 44 45 48 48 48 48 46 49 50 53 50 47 50 56 54 52 55 52 52 52 53 55 55 57 69 68 66 68 68 70 71 76 88 90 94
47 60 52 72 90 80 54 48 42 39 40 43 43 44 45 44 45 46 47 47 49 51 54 60 56 50 52 60 57 58 58 58 58 59 57 56 62 63 69 68 68 68 69 72 73 81 89 89 94
45 46 56 68 77 70 51 57 41 48 45 48 48 52 50 46 43 43 42 48 51 53 57 61 58 54 56 61 56 56 58 58 58 55 60 62 64 70 72 64 58 56 58 56 67 70 72 76 75
53 56 61 59 71 81 90 55 49 48 47 47 50 54 53 51 48 46 47 48 52 56 54 56 58 57 60 56 60 64 62 56 53 58 62 63 67 60 53 51 52 58 64 62 62 63 60 59 58
52 54 54 65 62 76 84 64 42 46 46 48 50 55 54 52 50 50 51 54 56 53 51 56 63 64 59 60 62 63 55 51 57 60 58 59 54 52 52 53 64 70 66 55 55 56 52 49 48

GFSSGP_sfc_rhum_012.txt.gz
RH
27 12 11 10 10 11 17 18 19 32 32 34 32 27 32 40 37 40 38 39 34 39 46 52 89 89 87 87 85 85 83 82 83 82 79 78 80 80 77 78 77 72 68 65 66 67 74 78 78
12 9 9 8 10 12 16 17 21 28 34 32 33 35 30 38 40 43 40 38 34 40 45 49 90 90 91 89 88 88 84 84 83 81 80 78 78 78 79 77 73 71 69 67 66 70 75 81 82
11 8 8 8 9 14 17 18 30 33 33 34 34 34 38 38 37 37 34 35 33 38 41 54 88 89 90 91 91 91 88 87 86 84 83 81 80 79 79 76 75 75 74 75 75 76 81 84 83
8 6 9 10 13 18 18 23 24 30 35 32 24 32 39 42 41 36 37 35 29 31 36 71 88 87 85 84 85 86 88 88 88 86 83 80 79 78 72 75 77 76 78 77 77 78 78 80 79
6 7 11 13 16 19 20 24 26 24 27 30 30 37 41 47 44 39 40 36 32 30 36 39 88 84 81 78 80 83 86 88 86 85 83 83 78 77 79 78 80 81 81 80 82 82 80 80 86
7 9 12 14 19 20 20 21 20 19 22 29 28 30 40 46 42 41 40 34 30 33 39 39 76 83 84 81 82 85 84 84 84 85 85 84 84 82 81 80 79 78 77 78 80 85 86 85 82
8 8 11 13 17 16 14 14 16 16 18 21 25 28 45 44 37 39 35 31 33 32 34 37 38 59 86 84 85 87 87 84 82 84 84 85 86 82 79 78 76 76 77 76 77 79 80 79 78
6 6 9 9 9 9 8 8 9 11 21 29 25 22 36 36 40 39 36 34 34 37 34 40 43 39 44 44 81 86 85 87 84 81 80 82 83 78 76 68 74 75 75 75 76 77 77 77 78
7 7 8 8 8 8 7 7 9 16 16 18 20 22 24 34 44 44 44 39 39 39 44 45 41 45 46 41 51 76 84 86 87 78 80 74 44 48 48 74 74 74 73 75 76 75 73 70 74
6 7 8 7 7 7 7 7 8 11 13 17 21 29 31 41 46 46 44 39 42 44 44 43 51 50 50 37 46 47 45 42 48 50 56 47 55 53 56 66 76 75 75 72 75 77 76 68 32
8 8 8 8 8 7 7 8 8 8 10 10 11 23 34 41 44 41 36 29 33 36 39 44 55 58 54 42 38 35 36 41 44 58 58 53 56 53 50 48 44 47 64 43 46 46 37 46 45
10 10 8 8 9 8 8 8 9 8 8 11 12 17 28 35 36 33 31 27 28 33 38 44 51 59 61 42 37 38 39 40 43 45 62 58 51 53 54 46 44 46 41 49 45 42 53 52 45
10 11 11 10 10 9 11 10 12 10 8 9 16 22 24 26 27 29 27 26 29 37 41 46 52 59 53 55 43 48 50 42 48 48 50 57 52 53 49 47 43 42 40 42 44 42 43 40 37
15 13 14 13 12 14 14 13 12 10 10 10 16 20 21 23 23 25 30 31 36 37 39 47 53 57 45 44 50 47 46 44 46 42 43 57 57 51 45 42 38 36 35 37 40 40 40 35 35
15 15 14 15 14 14 13 13 11 10 10 10 12 14 19 22 21 24 26 32 34 33 35 46 52 48 46 44 42 38 34 40 36 36 46 52 54 48 50 41 39 36 37 45 46 46 43 39 31
13 14 14 16 14 16 14 13 12 14 13 11 14 13 20 22 25 28 34 34 28 28 33 41 43 41 44 40 37 33 31 37 33 35 39 46 49 51 51 42 41 40 42 40 40 40 38 38 34
13 11 15 16 17 17 16 15 14 13 15 15 12 14 16 20 29 30 25 24 24 24 32 39 44 37 37 39 35 38 43 37 30 33 30 36 41 44 47 41 40 46 42 41 41 40 41 40 33
14 13 14 15 15 15 16 16 14 15 16 17 16 14 15 21 26 24 22 20 20 30 36 38 36 36 40 34 36 29 29 28 29 26 26 32 32 40 42 40 45 46 45 43 40 46 40 39 38
16 16 17 15 19 23 23 18 16 16 16 17 16 16 19 22 20 20 25 27 27 34 35 32 36 37 30 26 27 25 27 26 26 26 34 37 35 38 42 38 41 42 43 47 51 48 51 47 41
19 18 18 20 22 25 21 18 16 18 20 19 18 18 19 19 19 22 26 30 33 33 31 28 26 29 27 24 28 32 35 30 32 30 33 31 36 35 34 40 40 40 40 46 49 53 52 48 45
24 22 28 27 23 23 23 21 18 19 19 19 19 18 17 18 20 22 24 29 32 34 34 29 31 33 36 34 27 27 27 29 27 30 28 30 34 33 36 37 40 44 42 40 45 47 51 50 47
25 26 30 30 27 20 25 20 23 19 20 19 20 21 21 21 21 24 27 31 36 40 38 34 33 31 33 37 32 39 33 34 34 34 31 33 35 35 33 36 41 44 42 46 44 39 48 51 51
31 34 32 33 29 28 26 21 26 20 20 20 21 23 24 26 28 31 33 33 34 37 40 38 34 34 35 35 39 37 40 37 35 36 39 36 32 32 32 37 46 48 46 48 55 58 58 52 53
31 33 34 33 32 40 33 28 28 24 28 24 23 26 29 30 28 32 33 32 32 36 40 40 35 34 38 40 40 45 47 45 40 38 36 32 32 31 35 38 48 52 52 54 54 58 64 63 64
26 30 38 51 50 44 33 30 36 30 27 28 29 30 33 34 34 32 31 30 33 37 39 38 36 34 35 39 39 39 41 44 44 41 38 41 36 36 41 49 52 50 56 57 59 73 76 79 85
35 36 51 50 50 39 34 31 32 30 29 30 30 32 32 32 34 33 32 32 34 39 40 41 37 34 32 36 37 38 44 43 42 42 42 42 41 43 49 54 52 52 52 53 60 77 80 86 93
36 43 39 56 80 65 30 33 32 30 30 29 32 33 34 33 32 32 32 33 36 39 42 45 42 38 37 42 45 48 49 48 47 46 45 43 48 44 55 56 55 52 53 54 57 72 76 73 71
34 35 44 45 76 45 23 27 23 36 34 33 33 33 34 32 32 33 32 35 36 38 44 45 42 40 43 45 47 46 48 46 45 46 48 51 52 55 58 57 48 50 61 71 77 70 60 66 70
38 41 42 38 50 55 52 27 31 32 34 34 35 34 36 37 36 35 36 36 39 41 39 40 43 43 42 44 45 48 48 46 46 48 49 50 51 45 44 44 52 67 84 86 81 67 53 50 47
37 40 38 51 45 54 67 42 29 30 32 36 34 37 37 38 34 35 37 39 41 39 37 37 41 41 42 42 44 46 47 45 48 51 52 54 54 50 50 64 75 87 87 69 63 60 51 45 44

GFSSGP_sfc_rhum_015.txt.gz
RH
34 13 8 9 10 10 15 17 15 20 22 21 19 19 20 26 34 48 26 24 30 37 42 52 91 88 85 84 82 83 81 82 82 80 79 81 79 78 78 76 74 72 68 67 67 70 75 78 78
9 6 8 8 11 11 14 12 16 18 18 16 17 17 18 27 28 31 26 25 29 34 36 54 93 92 90 90 88 85 82 81 80 79 78 78 78 79 78 74 73 72 71 71 70 70 77 79 79
15 8 9 8 8 10 14 12 19 19 18 19 20 18 22 27 24 24 24 25 28 31 38 63 90 91 92 92 90 88 86 85 84 82 80 79 78 78 75 74 75 75 75 74 74 77 81 84 83
8 6 8 9 13 12 14 17 17 19 20 18 14 24 30 23 26 25 23 21 23 25 36 75 88 87 86 84 84 86 86 87 86 84 81 79 78 73 71 76 77 78 78 77 78 77 77 77 78
7 6 8 10 13 14 15 15 15 18 18 17 15 18 34 32 26 24 23 20 22 22 28 44 84 83 79 76 79 82 83 84 83 82 81 79 77 78 78 80 80 78 76 77 80 83 85 86 86
7 7 10 13 14 15 16 16 14 13 14 14 16 21 32 30 27 27 23 21 20 26 28 36 75 79 79 77 79 81 80 81 82 83 83 81 80 78 77 78 77 76 76 76 78 82 81 81 78
8 9 10 12 14 14 14 12 11 11 12 13 13 21 30 27 27 25 21 20 20 24 26 29 34 59 82 82 82 83 81 80 80 80 82 83 81 78 75 74 74 75 75 75 75 76 76 76 75
6 7 10 10 11 10 8 8 8 9 15 12 13 19 31 27 27 24 22 22 23 25 27 31 32 30 36 50 82 81 81 82 79 77 76 78 81 78 72 68 73 73 72 72 73 74 73 72 74
5 6 7 7 7 7 6 6 6 8 11 12 12 16 20 27 27 26 26 24 27 27 32 31 31 33 34 30 54 75 81 82 83 76 79 71 45 42 47 75 71 70 70 72 72 71 69 69 72
6 6 7 5 6 6 5 5 6 9 10 11 15 16 23 28 29 29 27 27 29 32 31 32 38 37 36 26 35 37 35 35 39 41 46 38 47 46 47 63 74 72 72 72 73 73 74 74 32
5 7 6 6 5 4 4 5 5 6 9 10 12 15 24 28 29 29 26 23 25 28 26 30 47 45 39 34 29 27 28 32 35 44 47 45 46 45 42 41 39 43 61 38 49 44 39 42 41
7 6 5 5 5 5 5 5 7 6 6 7 8 14 21 25 27 27 25 20 22 24 25 30 42 50 46 32 27 29 29 33 33 38 45 46 41 45 44 38 37 38 33 39 38 37 41 45 42
6 6 5 5 6 6 7 8 9 7 6 7 10 15 20 22 22 21 21 20 21 24 26 29 37 50 42 42 33 37 39 34 40 38 39 41 42 46 40 40 36 35 33 34 36 35 35 38 36
8 9 9 9 9 9 10 9 10 8 6 7 10 13 15 17 18 20 22 22 23 23 26 29 34 47 39 34 38 39 39 36 36 33 36 41 44 47 42 40 36 33 31 31 34 36 38 37 34
10 12 11 11 11 11 10 10 10 8 8 8 8 11 13 14 15 18 21 23 23 23 24 29 36 43 40 34 33 32 28 30 29 29 36 38 41 43 46 40 39 36 37 42 38 38 36 36 34
11 11 13 12 11 12 11 13 9 9 9 9 9 9 12 14 15 16 18 20 21 21 22 25 34 41 40 30 29 28 26 30 28 30 32 36 40 42 45 39 40 40 42 39 39 37 37 36 34
12 12 12 14 12 12 11 12 10 11 11 11 10 10 10 13 15 19 23 22 20 19 21 25 37 39 34 32 28 32 34 33 26 28 26 30 34 36 41 39 41 48 42 45 42 40 42 40 39
11 9 9 10 12 10 10 11 11 11 12 13 10 10 11 12 16 22 20 20 17 22 27 29 36 34 34 29 32 26 26 25 26 24 25 31 32 37 40 38 44 44 40 40 42 50 44 46 44
10 11 11 10 13 15 13 12 12 13 12 15 14 13 13 14 20 20 23 24 26 32 31 31 35 34 27 24 26 24 26 25 25 25 30 34 32 35 38 34 36 40 38 43 50 48 52 48 47
14 14 14 14 15 16 14 13 13 14 16 14 15 16 18 20 19 22 26 30 31 30 28 27 26 28 26 23 27 31 34 29 29 29 31 30 33 34 33 37 36 37 36 47 50 52 50 48 48
17 18 22 21 16 15 16 15 15 15 15 15 14 15 15 18 19 21 25 29 32 32 30 27 28 30 32 32 25 27 27 27 26 26 29 29 35 33 34 35 37 42 44 42 49 48 50 48 46
21 20 23 22 21 18 15 18 18 16 17 17 18 19 19 18 20 22 25 30 35 36 34 30 30 28 30 35 31 38 33 34 33 34 31 32 34 31 28 31 38 46 48 52 50 39 53 53 51
24 25 24 23 22 20 17 15 22 15 18 19 20 21 22 23 25 26 28 29 30 34 37 34 30 30 32 34 38 39 40 38 35 34 37 37 32 33 30 33 42 47 47 51 55 55 55 52 54
23 26 24 25 23 33 22 20 22 19 21 20 20 23 25 24 26 26 27 27 30 34 37 36 33 30 32 36 38 41 43 40 38 38 38 34 36 34 36 34 44 51 49 51 52 67 66 66 68
21 24 38 45 42 41 24 20 30 24 22 21 24 25 28 29 29 27 26 26 30 33 34 35 32 32 30 33 36 38 38 42 41 40 40 42 38 39 42 45 49 47 49 61 68 74 76 75 78
26 28 49 45 43 32 23 21 26 23 23 24 24 26 26 28 29 29 29 30 30 32 33 37 36 33 32 36 38 40 41 40 40 43 43 42 42 44 44 46 51 59 65 70 74 84 87 84 80
29 34 29 46 58 56 21 22 25 24 26 24 26 26 27 26 26 27 28 29 32 32 34 39 39 34 33 38 41 44 42 45 45 46 45 44 46 41 50 59 66 64 71 69 68 70 77 75 75
28 26 41 39 64 40 19 17 25 31 28 27 26 26 26 26 26 28 29 31 32 33 37 38 36 34 37 39 39 39 43 44 43 44 46 46 46 45 46 52 58 65 68 68 70 72 70 72 76
29 32 33 27 39 49 41 26 22 23 25 27 27 25 27 29 30 29 30 32 32 34 34 34 33 34 35 35 37 40 40 42 42 42 44 53 52 52 52 52 60 69 71 70 75 83 76 78 63
29 31 29 48 39 42 52 42 22 24 24 25 26 25 30 30 29 30 33 36 36 35 34 33 33 32 34 35 35 35 36 38 40 46 54 54 58 52 54 66 76 66 66 69 77 75 62 61 62

GFSSGP_sfc_rhum_018.txt.gz
RH
43 15 12 12 17 14 13 16 16 20 22 18 17 18 26 35 41 56 27 34 44 53 58 71 91 89 88 88 88 86 86 85 84 85 85 83 80 79 77 75 74 73 72 71 69 73 77 77 78
16 15 10 13 17 16 15 15 18 19 17 14 16 16 26 36 32 29 32 34 36 49 58 75 94 92 92 91 90 87 83 82 84 82 80 79 80 79 76 75 76 75 74 73 72 76 78 81 83
26 13 14 15 14 14 16 16 21 17 14 16 19 24 24 30 26 28 29 33 35 52 66 81 93 93 93 93 92 91 89 89 87 85 81 80 79 74 73 76 78 77 75 74 74 75 75 78 79
14 11 10 14 14 13 13 19 18 17 18 15 18 31 26 23 28 25 25 27 32 51 66 85 90 90 89 88 89 88 88 90 88 86 82 79 75 73 77 80 80 77 75 76 78 80 82 85 86
13 12 13 14 15 15 16 15 14 18 18 16 15 34 37 29 23 21 21 22 28 43 58 67 87 86 84 82 82 86 88 88 86 84 82 78 77 78 80 79 78 76 75 76 80 83 83 82 80
13 12 14 14 17 16 16 14 14 19 16 13 19 30 37 27 24 22 20 22 24 35 50 54 82 85 84 84 86 86 86 86 87 86 82 80 78 78 77 77 77 75 75 75 75 78 79 78 76
16 14 14 15 17 17 16 12 11 11 13 13 14 31 33 27 27 22 21 22 27 28 34 48 60 74 82 84 85 86 85 85 85 85 84 83 82 80 76 75 74 74 74 73 72 72 74 74 75
9 10 12 12 14 14 10 10 9 10 15 11 14 28 34 31 25 23 23 24 26 32 33 42 53 55 66 76 84 85 86 84 83 81 81 83 83 82 77 78 75 72 69 70 69 70 71 70 70
6 9 11 10 10 8 6 6 6 8 12 11 15 18 26 27 24 26 28 27 30 31 42 44 39 47 52 63 69 82 83 84 83 81 80 79 70 74 72 74 76 72 71 72 71 70 73 75 77
6 10 7 5 6 6 5 6 6 9 10 13 18 25 28 27 29 29 29 31 35 41 39 44 52 52 48 28 63 66 58 67 68 62 67 62 66 62 56 70 78 78 78 80 80 80 80 79 64
6 9 6 5 6 5 5 5 6 8 10 12 16 27 30 30 30 29 27 28 31 34 37 44 60 56 51 51 46 50 52 57 64 67 65 65 63 71 68 76 77 86 84 78 78 76 80 62 64
7 6 5 5 5 4 5 5 6 7 9 9 12 17 27 28 29 29 28 26 29 34 33 46 56 62 57 51 51 53 53 57 60 62 64 69 70 72 68 67 61 63 60 60 62 62 63 61 61
6 5 5 5 6 6 6 7 8 7 8 8 12 16 24 25 27 27 26 24 26 31 36 40 56 66 60 57 60 61 60 65 62 59 63 67 67 73 70 67 65 64 60 59 61 59 58 60 55
7 6 7 7 7 7 8 9 10 7 7 8 12 17 20 23 24 24 26 27 30 30 35 45 51 64 56 50 56 61 63 63 63 59 59 57 67 72 70 69 66 64 62 62 62 59 62 62 58
8 11 10 10 9 10 9 11 10 8 8 8 11 13 16 18 19 23 26 28 28 31 30 61 80 60 57 48 52 52 51 44 51 53 55 52 57 65 67 70 68 66 66 64 64 63 60 62 55
10 11 14 11 11 11 11 14 9 9 9 10 9 10 13 16 16 20 24 28 26 27 36 34 39 57 59 52 50 46 50 53 50 51 56 54 54 56 65 68 70 68 71 69 69 68 66 64 63
13 14 14 14 10 11 12 14 10 9 11 11 11 11 11 14 16 20 22 26 29 26 30 31 52 52 54 49 44 50 50 52 51 52 49 54 51 58 64 66 70 71 68 70 68 63 69 69 67
16 11 9 11 12 10 11 11 11 11 11 13 11 12 13 13 16 23 25 28 27 37 35 37 50 57 58 48 48 47 47 48 49 48 50 51 50 57 62 62 68 70 65 67 68 73 69 71 69
10 10 10 11 13 14 12 11 11 12 12 15 15 17 15 26 25 27 31 36 39 42 42 44 51 50 45 42 46 50 53 51 49 46 51 50 50 52 59 59 61 62 62 67 66 65 64 64 69
12 13 13 13 13 14 12 13 13 14 16 15 15 16 23 25 26 31 35 39 43 41 40 38 38 43 41 41 45 49 52 49 47 50 49 48 54 52 48 60 60 59 62 66 68 71 68 66 70
14 16 23 20 16 14 15 16 16 15 15 15 17 19 21 24 26 29 34 43 48 47 46 37 39 42 47 50 41 46 47 48 48 50 48 48 54 50 52 56 60 64 65 69 70 65 68 69 68
20 21 22 20 21 22 15 21 18 18 18 18 20 23 23 22 23 27 34 42 47 50 48 41 40 39 42 50 51 60 54 52 54 57 53 50 53 55 46 49 59 65 68 71 69 58 76 76 78
22 23 22 22 23 22 17 20 21 18 21 22 24 24 27 28 29 31 34 36 39 49 52 49 43 38 44 48 54 58 60 60 54 54 59 57 56 54 49 51 61 64 64 67 76 83 81 80 82
20 24 23 24 26 49 20 21 34 22 21 22 23 25 26 28 30 30 31 33 39 48 51 51 44 39 41 44 48 55 60 61 60 60 58 56 53 53 56 54 62 65 72 78 80 84 81 80 79
22 26 52 68 60 60 26 20 34 24 21 21 25 28 31 33 34 32 31 32 37 42 46 45 44 41 43 51 51 57 61 62 61 60 58 59 56 58 58 64 69 71 80 76 79 85 88 85 85
25 27 67 59 66 48 20 22 31 24 24 24 25 27 29 31 34 33 33 36 37 42 44 46 44 42 41 51 53 57 56 59 59 60 59 63 62 63 63 66 72 79 78 76 77 86 90 93 95
30 37 24 48 68 69 26 29 27 25 26 25 26 25 28 28 30 31 33 38 41 42 48 51 48 41 44 52 56 58 60 62 63 62 63 65 65 52 59 62 73 76 79 76 77 80 81 79 88
25 22 44 55 72 52 25 23 38 32 30 28 25 27 26 26 28 32 32 39 40 42 48 52 48 43 44 46 52 50 54 54 58 61 63 66 65 61 61 65 71 77 75 76 80 83 83 85 92
28 31 30 27 45 62 57 32 22 24 26 28 28 25 30 33 32 33 35 38 42 47 46 46 42 38 42 44 49 53 53 53 56 62 65 66 67 61 63 60 74 75 78 76 79 85 83 79 78
24 28 28 70 50 66 66 44 21 24 24 28 30 29 32 34 36 38 40 42 42 44 43 39 39 41 43 44 44 44 48 48 56 60 63 64 62 61 57 55 55 62 69 74 78 75 74 75 74

GFSSGP_sfc_rhum_021.txt.gz
RH
44 22 27 20 24 24 23 17 26 27 23 27 32 42 48 44 53 73 65 68 79 83 84 85 92 91 91 89 90 89 88 84 84 84 86 85 80 78 77 77 78 76 74 72 72 76 78 79 82
36 19 21 19 26 28 24 24 26 22 22 29 30 36 41 49 41 49 66 65 69 79 87 88 93 93 93 91 89 87 85 84 86 84 82 82 80 78 76 78 80 76 74 73 73 74 75 78 80
29 20 18 22 24 24 26 26 24 21 20 27 37 34 37 43 39 49 61 69 78 91 91 91 95 95 94 93 93 92 91 90 88 87 82 79 75 75 77 80 83 77 74 73 74 76 78 83 86
22 17 14 18 19 20 28 25 22 23 22 29 32 46 35 32 37 41 59 69 83 94 96 94 94 93 92 92 91 91 91 91 90 88 80 76 75 78 81 81 77 75 74 75 78 82 84 84 83
29 21 19 22 19 27 22 21 22 28 25 38 40 46 41 33 32 36 54 61 79 92 91 89 91 90 88 86 86 90 91 90 90 87 85 79 78 79 80 80 77 75 74 75 76 78 80 81 81
19 18 21 24 24 24 20 17 24 27 20 38 44 44 43 32 30 31 42 56 65 76 84 80 86 87 87 87 87 88 89 90 90 88 86 80 80 82 79 78 76 75 74 72 72 74 74 76 78
23 22 23 19 20 23 17 14 15 22 19 34 40 49 44 36 31 32 36 47 55 61 74 84 83 81 87 87 87 87 87 88 88 86 86 84 84 83 82 79 75 73 72 70 70 71 75 75 77
17 17 18 18 20 20 13 10 17 17 18 24 35 49 52 39 33 32 37 40 44 52 60 72 79 80 88 89 87 87 86 84 82 82 84 83 82 81 80 80 79 75 72 70 69 74 75 77 77
13 16 15 13 14 14 12 9 10 14 16 28 29 36 38 34 32 34 38 41 45 46 53 64 67 75 78 84 80 86 85 85 83 82 82 86 86 83 77 82 80 77 76 76 75 75 76 78 78
12 16 12 9 10 9 9 10 10 14 17 39 41 36 33 33 36 36 38 44 45 51 55 54 55 67 74 52 80 85 79 86 85 82 84 86 84 87 74 79 79 77 78 78 80 82 81 81 82
12 11 9 8 8 7 8 9 11 15 18 32 45 41 38 38 39 37 37 41 43 48 53 60 57 56 56 56 77 82 83 87 85 78 70 69 76 79 78 90 86 92 85 88 83 85 88 83 82
10 7 7 8 8 7 7 7 10 13 14 19 37 37 39 40 40 36 36 39 44 48 53 63 62 58 63 61 64 66 64 72 75 75 68 74 83 73 75 71 66 71 78 85 76 77 67 70 66
8 8 7 7 8 10 8 10 10 12 12 17 34 34 37 37 38 37 36 32 40 44 56 60 64 67 60 58 68 64 74 69 68 72 69 71 78 75 75 76 72 70 69 67 66 65 62 64 60
10 8 8 8 10 11 11 14 15 12 10 19 28 36 35 34 35 36 36 34 36 38 55 68 85 81 67 64 60 66 70 67 72 71 68 66 72 77 78 74 75 72 72 73 72 69 70 71 68
12 13 12 13 12 14 15 19 14 11 10 14 22 29 31 30 33 34 34 34 33 47 68 87 87 83 81 71 56 61 65 50 62 63 62 62 62 65 69 75 78 78 78 75 74 74 76 73 64
15 19 22 16 14 14 15 21 14 12 11 15 15 17 26 30 30 31 32 35 35 52 54 66 72 84 91 78 57 56 57 60 55 62 68 63 62 66 73 72 73 78 77 75 77 80 78 78 77
24 24 23 18 15 17 18 20 15 14 13 14 16 16 19 26 28 34 35 37 42 42 53 69 85 87 83 71 60 64 55 52 57 54 60 57 64 64 67 69 72 76 78 77 77 76 84 81 71
26 20 27 23 19 16 18 19 19 17 16 18 19 18 25 36 37 38 45 46 49 55 53 54 65 76 72 62 54 58 60 57 59 59 59 53 59 59 63 60 66 66 68 71 74 75 71 77 76
16 18 23 23 17 20 21 16 22 22 21 22 28 38 39 43 42 41 44 50 56 46 45 51 56 56 54 52 55 58 58 56 55 54 50 58 56 58 60 67 66 69 68 71 71 77 79 67 77
17 22 30 22 19 21 23 22 25 22 24 24 34 37 41 43 42 44 51 59 60 51 49 48 48 49 51 55 57 60 62 59 60 60 58 60 58 59 49 64 65 68 74 75 78 76 74 79 79
28 32 31 30 23 25 26 28 26 23 24 26 30 33 35 42 47 47 49 58 56 56 50 47 49 50 55 55 59 59 60 62 61 59 58 57 58 54 57 61 68 72 74 80 80 80 82 94 89
36 31 30 28 32 39 26 38 34 27 29 29 31 37 38 40 44 47 53 58 58 62 57 50 48 49 54 55 59 62 68 66 68 67 67 60 57 55 53 59 65 71 75 78 84 82 92 89 94
35 34 33 34 38 42 34 37 35 28 34 34 38 38 42 44 46 50 54 54 57 57 57 53 50 50 54 56 60 66 67 69 68 71 66 64 61 61 56 58 70 78 86 92 93 92 82 82 83
25 35 36 39 41 68 49 42 48 35 32 36 37 37 39 43 44 44 48 50 56 58 57 57 54 51 56 54 61 70 69 67 71 69 71 69 69 69 66 70 81 87 88 89 90 84 81 83 82
34 45 78 77 87 79 48 43 59 39 31 33 40 47 48 47 47 46 46 46 51 55 58 54 55 51 57 61 67 66 68 70 71 70 71 69 74 72 75 72 86 89 87 89 91 91 88 90 91
40 42 80 76 87 72 42 49 49 36 35 35 37 42 41 42 42 43 42 44 51 55 57 57 52 49 56 60 63 66 65 73 70 66 68 70 78 78 73 76 84 82 84 85 86 90 90 92 94
39 48 36 67 79 85 52 44 36 36 32 32 35 38 44 42 40 40 48 53 53 56 58 59 54 51 53 61 62 61 63 66 65 64 72 80 76 61 70 76 79 77 80 83 84 91 94 94 95
34 30 60 70 72 68 47 54 64 46 46 42 36 36 36 42 45 50 53 56 57 57 60 56 52 50 51 54 56 58 57 58 63 75 73 73 72 71 70 74 79 83 84 86 87 91 89 94 96
42 47 44 43 68 80 84 56 36 47 52 49 40 42 48 52 54 56 56 55 53 54 54 55 48 49 52 53 54 53 54 57 70 72 72 69 71 70 68 74 73 76 83 83 86 86 86 90 90
35 42 44 79 63 84 86 64 36 50 42 43 41 47 51 50 51 55 55 54 54 54 51 48 50 50 52 48 48 48 52 55 66 68 68 67 68 65 66 63 58 60 60 65 72 76 72 70 68

GFSSGP_sfc_rhum_024.txt.gz
RH
45 23 26 20 22 25 26 20 27 37 48 43 39 46 55 57 59 84 88 87 89 93 87 86 93 92 92 91 92 91 89 84 83 84 83 81 79 78 78 78 77 75 73 72 72 73 74 77 78
31 18 22 21 26 28 34 28 37 38 40 36 37 47 56 78 76 93 91 81 86 89 89 90 95 92 91 91 90 88 84 84 84 83 82 80 78 77 76 80 80 76 72 70 69 72 75 79 82
26 20 18 23 28 30 36 29 25 31 33 34 42 40 41 55 70 79 78 82 89 96 93 94 96 94 93 93 92 90 90 90 89 86 79 76 75 77 80 80 78 73 71 71 73 76 80 82 82
23 16 15 19 22 20 30 28 32 36 37 36 40 47 40 46 56 77 82 89 96 99 97 97 96 95 94 93 92 92 92 92 90 85 78 75 77 78 78 78 76 72 71 71 72 75 78 80 80
27 20 20 22 23 26 24 25 28 40 45 42 38 46 46 62 69 76 85 88 97 99 97 95 95 93 91 87 87 91 92 92 89 86 83 78 77 77 78 78 75 73 70 70 69 72 74 76 79
19 18 22 24 24 25 18 27 36 46 42 39 40 42 46 54 66 70 75 88 87 94 95 89 90 91 90 89 90 90 90 89 89 88 85 79 80 80 77 76 74 71 68 67 66 68 70 74 76
22 22 23 21 17 21 18 20 32 46 48 48 38 44 44 44 53 60 72 83 83 87 93 94 92 87 88 88 87 88 89 90 89 87 85 84 84 85 82 78 74 71 68 66 67 72 74 75 76
19 19 24 18 24 23 15 17 19 35 43 38 34 50 43 39 43 55 63 69 76 80 83 93 92 88 91 92 88 88 87 87 85 84 83 84 83 82 82 81 78 76 72 70 72 74 74 75 77
14 20 21 16 18 15 11 15 14 26 34 39 38 38 32 36 42 50 58 61 65 65 73 84 84 84 89 90 84 87 85 85 85 82 82 88 88 85 81 84 78 78 77 76 76 78 79 78 79
17 20 16 11 12 11 9 10 12 33 48 52 49 40 36 35 39 44 48 53 56 63 69 69 77 80 82 62 85 88 82 86 86 85 87 88 90 91 78 84 83 82 79 80 81 82 84 85 88
14 12 10 9 10 9 10 11 13 37 52 47 46 42 37 36 37 40 42 45 50 55 60 66 72 81 78 68 86 90 90 92 90 87 90 90 86 92 92 93 92 94 85 91 86 87 88 88 88
10 10 8 12 10 9 10 10 11 18 34 40 36 36 40 41 39 38 41 47 55 56 56 59 63 70 71 69 80 84 84 87 90 86 78 82 81 80 82 80 77 79 77 84 82 84 74 73 70
10 10 8 11 11 11 10 11 13 17 38 39 36 36 38 38 38 36 36 41 53 53 57 71 72 70 64 68 72 72 75 82 81 78 75 79 80 78 79 82 78 79 78 77 76 74 70 71 69
10 9 9 9 13 12 13 16 13 17 40 42 38 40 40 39 37 36 42 39 48 52 76 86 82 80 71 65 65 71 76 73 79 77 73 73 81 79 80 77 79 79 83 83 80 79 79 80 77
11 11 12 14 14 15 14 19 17 13 40 43 41 40 40 38 38 38 38 41 41 61 74 76 82 79 81 71 66 66 67 69 75 71 74 73 73 74 78 79 76 80 82 79 80 79 81 81 71
16 19 21 17 16 17 15 20 17 13 27 43 42 41 40 40 38 39 42 47 55 71 74 75 71 81 84 84 71 66 57 64 66 69 74 68 71 72 74 72 74 78 74 73 77 78 78 77 80
24 24 26 23 16 17 19 20 18 14 17 24 33 38 42 44 49 52 55 59 68 71 79 92 84 84 88 77 69 73 68 66 66 67 67 67 65 65 69 69 73 72 71 73 76 73 82 80 75
25 26 45 23 22 23 23 19 20 18 16 20 27 48 53 56 59 53 56 55 58 70 84 85 86 86 80 72 65 71 64 62 65 66 63 63 64 65 69 66 72 72 72 74 78 79 79 82 76
18 26 26 28 22 20 22 26 27 27 28 45 51 54 53 53 51 53 59 58 53 52 56 69 70 67 66 72 70 64 68 63 63 60 62 56 53 55 58 64 67 75 75 78 77 84 81 69 80
26 29 30 25 22 21 26 27 28 31 44 48 51 53 54 55 53 54 64 71 72 62 64 60 63 57 57 62 66 64 67 67 68 64 58 56 54 57 49 69 72 74 76 76 79 81 86 87 95
39 36 38 33 30 29 26 31 38 39 40 42 46 49 51 54 57 55 55 73 78 68 66 54 55 56 59 60 61 64 66 68 70 70 65 58 59 61 64 69 76 81 84 90 93 94 93 96 94
47 35 33 33 37 34 29 44 34 41 42 42 44 54 57 52 55 54 59 62 61 63 60 57 55 58 57 59 62 63 68 70 75 75 70 66 67 66 62 75 84 88 92 94 94 87 88 84 88
37 36 38 39 42 47 41 43 39 40 48 48 51 52 55 59 57 60 57 59 60 58 59 60 57 57 61 66 70 74 75 75 76 73 67 65 68 66 70 74 84 91 91 94 94 93 93 93 94
31 40 47 46 50 67 51 48 48 47 44 45 45 50 53 58 61 59 60 60 63 67 66 64 60 63 64 68 70 71 71 74 71 69 71 72 76 77 75 72 91 92 92 93 95 94 92 94 94
33 54 75 76 83 75 54 60 61 47 40 41 52 55 54 54 57 61 60 62 64 67 66 62 58 64 66 70 70 71 72 69 66 67 68 70 78 80 79 80 88 90 91 88 85 90 90 93 96
44 49 78 73 77 68 43 61 56 48 43 46 46 48 45 48 52 57 58 63 62 62 65 62 58 61 66 69 67 69 71 74 70 68 72 82 80 78 73 79 85 87 86 83 89 93 94 94 96
44 48 42 67 81 82 62 53 42 41 43 42 42 40 49 53 57 61 60 62 63 65 63 57 53 60 60 59 64 64 70 70 71 72 80 80 77 69 69 76 83 86 88 89 91 95 93 94 95
32 35 58 71 66 67 54 62 66 55 51 45 44 51 56 54 55 60 60 60 60 58 63 62 58 55 58 60 60 56 58 65 72 80 78 77 75 73 73 69 76 81 87 89 91 93 91 92 94
43 50 50 50 72 77 84 59 43 52 56 52 56 57 58 59 61 61 59 55 56 58 53 56 54 54 56 54 55 56 56 59 76 76 76 75 73 74 71 70 75 65 69 72 79 84 82 82 75
38 47 51 75 55 86 85 62 46 50 50 49 54 54 55 53 57 61 59 59 56 52 50 53 51 53 55 54 52 53 55 56 74 76 77 77 72 69 64 66 57 58 60 64 68 74 72 72 73

GFSSGP_sfc_rhum_027.txt.gz
RH
43 23 25 20 22 27 31 23 33 43 55 50 49 56 68 82 75 80 90 91 93 95 92 92 94 93 93 92 91 90 85 83 84 83 81 80 79 78 77 78 77 74 69 67 68 70 72 76 79
27 21 21 22 26 30 37 29 43 46 46 42 48 59 66 90 86 96 91 88 89 91 93 94 95 94 93 92 91 88 83 82 84 82 81 79 77 77 78 79 76 70 68 67 68 70 74 77 78
31 20 16 23 32 28 34 35 48 41 38 38 42 41 49 91 87 85 88 89 88 97 97 96 95 94 93 92 91 90 89 89 87 83 78 75 76 77 76 77 75 71 68 68 68 69 73 76 77
25 16 16 20 26 21 27 33 41 43 40 38 44 51 43 64 82 88 88 86 84 96 98 98 97 95 94 92 91 91 92 92 89 84 76 76 76 74 75 75 73 69 67 66 66 70 71 75 76
25 20 20 23 21 32 28 32 38 46 45 42 40 49 59 84 88 94 88 85 89 94 99 97 97 95 93 88 89 91 92 91 89 86 83 77 75 74 75 74 71 69 68 64 63 65 68 71 76
20 21 23 34 30 31 24 41 45 44 43 44 51 50 58 88 93 95 92 91 94 98 98 96 94 94 92 91 92 93 92 90 89 88 85 78 78 78 75 72 70 67 64 63 64 68 69 72 75
21 21 22 20 39 32 30 22 45 42 46 46 40 56 66 77 86 87 94 96 95 96 97 97 96 93 92 92 91 90 89 88 87 87 86 84 85 83 80 77 71 67 66 66 69 72 74 75 77
20 18 23 19 37 42 25 20 38 46 54 36 36 55 81 60 76 81 87 93 94 94 95 95 94 94 94 94 90 89 89 88 86 85 84 82 82 83 82 81 79 75 71 71 73 75 77 78 80
21 23 22 18 34 34 26 19 23 36 44 44 45 44 51 56 69 76 82 83 84 81 92 94 95 93 93 90 85 87 85 86 87 84 82 86 88 87 84 85 81 78 76 76 78 81 83 84 85
21 26 19 14 15 21 16 31 35 46 55 55 50 43 47 56 62 60 61 68 73 75 79 89 91 87 88 69 88 90 85 89 88 87 88 90 92 92 83 84 84 84 85 84 84 85 86 87 93
17 16 12 11 12 10 12 25 28 50 60 50 45 48 49 56 55 50 49 54 56 62 68 74 78 84 84 75 92 93 93 93 92 89 92 93 91 95 96 97 95 95 80 90 87 83 87 80 85
12 11 9 11 10 10 12 12 32 32 45 43 37 41 46 49 49 49 50 53 58 65 64 68 78 82 82 81 87 88 90 87 90 91 90 94 90 86 87 84 82 84 84 81 81 82 76 75 74
10 10 12 12 10 10 10 14 14 18 48 41 37 38 41 41 43 43 44 47 56 62 63 69 77 81 77 78 85 86 85 87 87 90 82 84 80 83 84 83 84 84 85 87 83 81 80 80 77
10 11 11 12 12 14 14 16 18 34 51 43 38 38 38 38 38 40 46 48 59 57 62 76 78 81 75 76 77 80 84 86 86 85 81 79 84 84 82 82 80 80 84 81 82 81 81 78 77
11 12 13 14 16 15 16 19 20 32 47 44 40 39 40 38 40 41 43 48 54 60 58 82 86 88 80 76 75 82 79 78 85 78 77 76 79 82 83 80 78 81 78 73 75 73 74 74 72
19 20 21 18 16 18 16 18 20 45 50 49 47 46 49 49 51 52 49 48 53 64 76 90 84 85 90 86 76 73 67 73 73 79 81 76 74 73 75 76 78 78 76 76 78 78 79 80 82
26 26 29 24 18 19 18 19 21 36 49 52 56 50 56 66 69 72 76 81 73 82 92 95 95 92 90 83 85 71 71 71 71 70 67 70 66 70 72 76 78 77 74 80 79 74 84 80 67
25 30 48 24 22 21 25 19 22 20 35 39 69 70 68 65 66 61 64 78 90 89 87 90 90 90 81 84 73 65 62 63 68 66 60 62 62 64 64 64 67 69 68 70 72 79 82 81 82
24 31 30 30 24 22 26 29 39 38 54 70 70 66 65 65 66 66 62 61 68 76 74 78 76 74 81 83 82 72 83 74 71 60 63 63 58 59 68 71 75 80 80 83 84 86 86 85 93
29 30 33 31 27 24 30 40 53 55 64 66 64 63 63 66 62 61 69 76 76 76 77 63 61 58 61 64 71 67 73 75 71 68 66 62 63 63 66 79 82 86 87 90 95 96 96 96 96
42 39 40 34 31 29 33 40 53 52 56 55 60 62 58 59 62 67 71 82 81 68 61 56 57 57 60 64 66 68 69 74 73 71 68 68 67 68 76 81 85 89 92 94 95 96 94 98 95
47 39 35 34 34 35 32 54 51 50 54 57 62 70 66 61 67 66 72 74 69 66 63 61 61 61 61 63 64 63 66 75 80 75 72 70 69 73 73 78 86 88 94 93 94 87 95 95 97
38 40 39 40 46 50 50 52 54 51 61 61 64 66 66 64 60 66 63 60 61 64 68 66 65 66 68 68 70 77 75 75 75 72 67 67 71 73 70 78 89 90 93 93 92 92 92 94 94
34 43 50 58 54 68 58 50 56 56 56 58 59 60 58 61 61 63 64 63 66 68 71 68 70 71 71 70 70 72 74 74 71 71 70 73 78 79 75 77 92 91 92 92 94 94 93 94 96
40 54 75 78 82 77 52 60 59 49 48 52 60 61 62 65 68 69 62 62 62 69 72 66 68 70 71 72 73 73 73 70 67 66 71 72 80 82 76 78 90 93 92 93 94 94 93 93 96
48 50 78 66 76 69 51 68 60 58 50 50 52 55 58 59 58 63 68 68 66 66 68 66 66 68 71 70 71 72 70 72 70 69 75 78 83 80 76 74 89 90 92 93 92 94 95 94 96
49 52 47 74 84 84 69 60 47 55 54 52 52 51 56 62 68 67 67 68 66 63 61 62 64 70 70 68 70 71 76 76 77 75 78 84 84 74 80 76 85 87 90 92 93 96 95 94 95
35 40 61 72 65 67 60 69 70 57 58 53 58 64 66 67 66 67 66 65 62 60 62 63 64 61 60 60 62 60 64 70 76 79 81 83 82 79 78 76 78 78 79 86 90 93 92 92 94
45 50 55 57 75 76 82 63 46 56 58 58 67 66 66 66 68 67 61 56 55 53 55 60 59 57 59 61 61 64 64 64 70 81 83 82 82 79 74 74 75 70 67 70 74 76 79 74 73
44 51 50 67 54 87 83 62 46 59 57 59 60 62 68 69 65 63 58 55 51 54 52 58 55 56 58 62 63 61 62 61 65 78 81 84 83 75 77 78 80 78 67 64 66 70 70 72 74

GFSSGP_sfc_rhum_030.txt.gz
RH
66 29 30 23 21 25 28 23 34 48 61 60 62 69 87 91 74 77 89 93 93 97 97 96 95 93 92 90 90 89 84 83 82 81 80 80 78 76 78 77 72 68 66 65 67 68 69 69 71
32 25 24 26 25 27 33 25 46 53 60 65 64 66 74 95 85 95 92 89 92 94 98 97 96 93 92 92 90 86 82 83 82 81 80 77 76 77 76 74 73 69 64 63 63 64 67 70 72
39 24 20 28 32 27 28 40 49 54 45 43 46 45 64 91 86 86 83 87 92 98 98 97 96 95 93 92 90 89 88 88 85 82 76 76 75 73 73 74 74 68 64 61 61 63 66 69 71
28 19 19 23 30 24 26 44 43 52 42 42 47 55 51 79 82 91 89 89 94 94 97 97 96 95 93 92 91 90 91 92 88 82 76 74 72 72 72 74 71 66 63 61 61 63 66 70 76
25 23 24 28 26 32 27 41 52 47 47 47 46 61 68 92 92 91 84 82 87 91 94 97 96 95 92 88 88 92 93 91 88 84 82 75 72 72 72 73 70 67 63 62 64 66 68 74 77
20 23 26 60 49 34 46 45 53 45 47 51 57 60 76 88 87 81 80 85 84 88 96 98 96 95 94 92 94 94 92 90 89 88 85 78 78 78 73 71 70 67 65 66 68 71 72 77 79
22 24 26 65 54 38 32 43 49 47 51 47 46 75 87 91 84 87 85 88 92 98 99 99 98 95 95 95 93 92 90 88 88 87 85 84 83 81 77 75 73 71 72 73 76 79 81 82 82
24 22 26 30 50 47 28 36 46 45 48 38 53 94 94 81 90 95 95 98 99 98 97 98 97 96 96 95 91 91 89 88 86 85 83 82 81 80 80 78 77 78 78 79 81 83 84 85 86
22 23 25 22 43 42 30 32 31 43 43 46 47 71 75 83 91 94 95 95 95 90 95 96 96 95 94 93 90 88 86 86 86 84 82 86 88 87 83 83 84 83 85 85 84 85 86 87 84
26 28 22 17 31 32 31 31 33 48 54 51 57 66 76 85 93 95 92 92 91 88 90 94 94 94 93 74 91 92 88 92 91 90 90 91 91 92 87 87 86 84 80 78 80 79 79 76 83
24 22 15 10 15 24 26 38 42 52 58 51 60 71 77 84 78 76 72 70 69 74 78 86 91 90 91 81 94 94 95 94 93 90 90 92 92 95 96 97 93 88 76 82 77 78 78 76 79
21 14 11 12 13 18 28 25 49 46 44 44 54 60 67 72 64 57 56 61 62 68 72 79 84 85 87 85 92 91 92 93 94 91 92 95 96 91 90 84 85 87 89 85 85 85 80 78 75
16 11 13 11 10 14 12 21 42 29 56 42 49 53 58 56 55 45 43 52 62 67 69 76 83 85 82 83 90 90 92 92 90 93 89 90 85 88 89 88 88 87 84 85 82 78 75 73 73
12 12 13 14 12 14 14 18 20 44 51 45 48 52 54 52 51 56 56 58 58 59 69 78 82 86 83 81 85 89 90 91 92 91 86 86 89 90 88 83 81 80 80 78 79 77 78 75 75
15 12 13 13 16 18 16 19 25 55 49 47 46 47 49 50 51 50 51 57 61 64 72 86 89 92 89 83 83 85 89 86 92 84 84 84 83 78 77 78 77 80 78 76 77 75 76 75 71
18 21 17 16 18 21 15 18 22 60 50 54 51 49 54 65 65 65 54 50 64 73 93 95 89 93 92 90 92 86 89 93 78 76 73 71 69 71 74 73 77 77 75 75 76 77 78 76 78
26 25 29 24 20 20 18 21 21 66 56 62 62 62 66 73 70 73 81 67 72 94 95 96 96 92 90 86 86 77 77 75 68 65 63 66 66 70 72 75 76 74 74 81 80 78 84 81 84
23 27 49 28 34 23 22 34 47 38 63 61 73 77 74 74 75 69 90 98 97 97 95 95 93 95 90 89 82 68 68 70 68 69 68 65 62 64 66 69 81 80 83 88 90 89 87 87 95
24 28 28 32 27 26 54 66 66 57 65 78 80 80 80 78 74 75 77 79 79 90 90 92 86 86 88 83 80 80 84 76 72 67 65 59 60 68 75 81 82 84 84 91 92 95 94 94 92
30 32 36 34 30 31 56 58 68 69 77 80 79 80 78 73 73 74 76 81 83 89 87 84 82 86 72 74 75 73 77 76 72 70 70 67 71 72 73 82 84 84 81 86 94 95 94 94 96
44 38 42 36 34 33 40 48 65 59 68 68 71 71 68 70 75 76 82 84 84 83 65 60 61 61 66 72 71 79 79 80 72 71 71 71 72 74 76 78 77 82 89 93 94 94 93 97 95
43 42 38 37 35 43 38 46 63 65 71 73 72 74 72 70 77 79 76 69 66 69 67 65 65 66 65 68 69 72 73 80 81 75 74 71 72 75 75 79 81 85 92 89 92 87 92 92 93
42 40 41 44 48 52 54 55 63 65 76 74 76 73 74 76 77 71 72 69 69 68 68 73 70 68 68 68 70 78 79 80 79 76 71 74 75 76 71 76 85 89 92 91 91 92 92 95 96
38 47 52 60 57 69 66 52 59 69 65 68 68 72 71 77 75 68 67 67 71 71 64 67 66 71 73 73 74 73 74 75 75 74 75 75 79 80 77 77 91 91 92 93 94 93 94 94 95
46 55 76 79 81 77 58 59 54 52 56 60 66 71 70 72 73 73 70 68 69 68 65 70 73 74 73 74 74 75 74 71 68 68 74 74 78 84 83 79 90 94 92 93 94 96 96 95 95
51 52 78 64 83 74 57 70 58 61 50 55 60 64 68 73 72 72 69 72 75 71 71 69 69 74 74 74 73 73 72 76 75 71 75 78 79 80 79 78 81 89 91 94 93 96 96 94 96
52 56 51 76 85 85 74 64 58 61 64 61 61 62 68 68 68 71 73 74 74 70 67 70 68 74 72 68 69 73 77 80 81 79 83 85 83 77 83 83 79 88 88 90 93 95 96 94 95
41 45 60 72 64 64 64 71 73 69 67 62 64 65 65 72 74 74 72 71 69 65 62 68 70 68 68 70 73 68 70 70 73 80 82 83 87 86 82 83 76 78 82 78 88 91 87 92 93
49 53 59 62 74 73 81 72 56 61 61 63 65 67 73 75 75 71 66 62 59 52 54 63 63 59 61 65 68 69 69 68 70 74 80 85 87 84 82 82 82 83 87 81 82 80 78 82 76
48 50 49 64 51 88 83 63 54 61 59 61 67 70 75 77 72 69 64 58 56 53 56 58 53 53 60 69 65 61 66 69 70 73 76 82 87 86 85 83 87 89 85 78 74 74 73 74 72

GFSSGP_sfc_rhum_033.txt.gz
RH
41 20 20 19 17 20 26 16 26 49 58 56 54 52 67 73 70 70 80 78 78 79 72 71 93 92 92 90 89 89 85 81 80 80 80 77 76 77 74 71 73 66 63 61 62 62 62 63 65
21 20 18 19 19 21 24 19 45 55 58 59 55 64 53 59 78 89 83 85 77 74 73 71 95 93 91 91 89 87 82 81 80 80 77 75 75 73 72 71 74 68 61 59 58 59 60 63 66
22 16 15 18 21 17 22 44 57 62 57 44 48 50 65 66 87 84 82 81 74 77 73 76 95 93 92 91 88 88 88 86 85 81 75 74 72 70 72 72 74 66 59 60 60 61 60 64 70
19 14 14 16 19 18 24 44 45 54 44 44 42 54 67 74 81 79 83 73 70 77 75 90 96 94 92 91 90 90 90 90 86 81 76 72 69 68 71 72 71 63 62 62 63 65 67 73 79
17 16 16 19 22 27 23 38 41 51 68 50 45 48 75 84 78 82 81 74 77 80 78 78 96 95 93 88 88 92 92 89 86 84 80 74 69 70 71 72 70 67 65 66 68 70 73 77 81
17 16 17 34 37 32 43 40 41 42 43 44 51 61 81 86 84 80 77 76 75 81 83 78 93 94 93 91 94 94 91 89 88 87 83 78 77 76 71 71 71 70 70 71 73 76 78 80 81
19 17 20 42 39 32 45 42 52 44 44 42 46 77 94 94 82 80 83 79 81 80 85 75 73 82 95 96 94 92 89 88 88 86 85 83 82 80 79 78 75 74 76 76 77 80 84 82 83
17 17 26 37 40 46 36 44 44 36 38 38 54 73 93 84 84 84 81 84 87 88 79 79 78 75 76 76 93 90 89 88 86 85 84 82 80 80 82 78 81 80 81 80 80 84 85 79 79
16 18 18 24 39 51 38 42 37 37 38 41 42 65 70 83 90 91 94 93 92 86 83 83 78 77 76 72 74 84 86 85 85 80 80 79 60 62 61 81 85 82 78 79 78 79 78 76 73
18 20 17 14 31 26 27 30 36 41 44 41 58 76 82 88 88 91 90 88 83 79 77 75 78 74 74 61 71 70 65 62 65 65 69 63 70 67 64 76 83 76 75 73 73 73 71 58 41
20 19 17 12 26 30 25 30 38 40 43 39 54 84 86 86 86 87 78 64 62 64 64 67 74 75 69 62 66 63 63 66 67 71 69 71 70 72 69 63 58 60 66 51 52 48 44 50 45
16 12 11 9 14 22 28 30 42 35 33 38 54 73 81 85 82 73 64 57 56 56 56 62 68 73 74 62 62 64 64 67 67 70 77 75 70 70 67 62 58 58 52 54 49 46 52 50 47
15 10 11 10 13 20 23 34 40 30 42 48 60 65 70 70 65 56 47 44 46 52 55 62 68 70 69 70 70 69 71 68 71 73 73 67 64 71 62 60 52 51 49 49 48 47 46 45 43
14 10 11 10 12 12 17 19 27 31 41 52 58 56 56 54 51 44 41 42 49 47 55 65 69 74 68 67 71 74 80 80 81 82 79 74 68 66 56 54 49 47 44 45 43 44 42 40 40
11 12 12 13 12 15 15 14 16 42 40 52 52 49 48 44 43 41 38 41 44 46 64 73 77 75 74 75 77 79 83 84 85 83 76 69 59 60 56 50 48 47 48 48 45 44 42 41 41
14 17 14 12 12 15 12 15 20 48 40 48 49 47 46 41 40 43 45 39 44 56 70 74 78 79 81 81 85 90 89 86 80 74 62 59 58 55 53 48 50 53 51 49 48 48 42 46 49
22 16 19 15 14 14 12 19 33 50 42 45 44 45 46 50 53 56 66 60 53 67 77 84 83 82 86 91 95 92 75 70 59 53 49 56 55 59 52 52 53 54 50 52 47 44 51 49 47
21 20 19 17 16 20 22 38 42 34 47 51 52 54 54 56 60 67 79 86 81 79 80 83 90 91 96 97 88 72 61 56 52 50 46 48 48 55 52 51 54 47 44 47 50 54 49 56 54
18 20 20 20 20 37 49 53 51 46 52 57 57 57 59 61 65 70 77 85 86 87 81 80 94 98 94 88 71 55 58 51 50 45 49 51 51 51 52 46 48 48 47 56 58 51 54 44 55
25 26 27 26 26 32 44 50 56 55 60 58 57 61 61 66 69 72 72 78 80 89 94 90 82 79 63 50 51 49 49 49 48 48 51 50 53 50 49 51 48 52 44 54 59 59 47 48 59
33 31 31 27 26 29 32 35 51 55 60 62 63 61 63 68 68 69 74 78 83 84 79 68 63 59 54 53 54 53 53 52 48 48 45 49 53 49 51 52 50 52 51 48 57 57 55 46 49
36 30 30 28 25 27 29 25 43 55 64 66 64 64 65 63 63 62 63 63 61 60 59 56 54 51 53 57 53 55 48 50 51 50 48 46 54 52 48 52 56 57 55 54 52 50 54 57 50
36 36 34 34 36 36 38 28 36 59 64 67 64 61 58 59 58 56 50 49 48 54 54 54 52 52 53 51 54 53 57 55 52 52 54 55 55 58 54 54 58 59 55 56 61 65 66 61 59
40 39 43 46 43 46 49 36 33 53 55 63 60 58 56 60 56 51 49 50 50 54 58 60 53 56 57 57 59 59 59 56 51 52 52 51 52 53 57 55 60 62 62 66 64 69 70 67 65
37 40 52 59 64 57 47 48 38 40 46 54 58 54 55 57 54 51 52 52 53 53 56 57 52 54 57 58 57 57 56 56 53 51 50 53 50 50 52 60 62 61 66 68 69 71 71 70 68
40 41 63 55 64 56 45 51 37 46 40 48 49 49 53 55 55 54 54 54 53 54 54 54 52 55 55 56 53 53 54 53 54 58 56 56 56 56 62 63 63 61 64 68 70 66 69 75 76
41 41 42 62 70 63 46 45 40 50 47 49 49 53 52 53 55 55 56 58 58 56 56 58 54 56 58 54 54 59 58 58 58 58 60 58 60 54 58 64 64 62 63 63 64 63 65 68 70
34 39 47 53 60 47 41 48 40 53 53 50 52 53 51 53 55 58 57 60 54 52 54 56 56 63 55 52 56 52 52 52 53 55 56 55 55 56 58 58 60 63 62 63 66 68 60 61 67
41 44 51 47 53 46 51 32 45 46 49 52 49 49 53 54 57 59 55 53 47 44 46 52 56 47 47 50 53 52 49 51 52 51 53 54 57 53 58 61 65 65 69 72 68 65 59 58 57
36 40 43 51 44 65 60 39 36 47 47 50 49 54 56 57 57 52 48 45 42 41 50 54 44 44 48 47 44 46 48 48 50 52 52 54 54 58 60 66 66 69 76 80 64 56 58 58 58

GFSSGP_sfc_rhum_036.txt.gz
RH
27 9 7 12 15 15 16 14 20 37 49 41 38 40 46 46 48 63 57 52 50 55 59 62 91 91 91 88 88 88 82 80 80 80 79 76 76 73 70 71 72 64 60 59 57 56 57 61 65
8 12 11 11 15 15 13 15 23 40 45 42 44 39 36 52 58 69 69 62 56 57 53 53 93 91 90 90 90 86 81 79 79 77 75 74 71 70 70 69 72 66 59 57 56 55 61 65 69
12 11 10 10 10 13 15 23 38 39 34 38 50 46 52 63 65 73 62 64 58 56 50 62 94 93 92 91 89 87 85 85 83 79 73 70 69 68 69 69 71 66 61 60 58 61 66 72 75
8 9 9 11 11 12 24 34 35 35 36 35 52 68 69 60 80 72 70 65 61 56 53 84 94 93 91 90 89 88 88 88 84 80 74 68 66 66 68 70 72 65 64 64 65 68 72 77 78
9 8 9 10 13 17 19 31 31 34 52 35 34 41 58 72 59 64 73 73 60 56 57 67 96 93 92 88 87 88 88 87 85 82 78 72 66 67 69 71 70 68 67 68 69 72 76 80 80
8 9 9 11 19 27 23 29 30 35 31 29 36 42 66 69 72 71 79 69 58 61 63 70 93 94 92 91 93 92 89 88 87 84 81 74 73 74 70 71 71 71 72 73 76 78 79 79 78
10 8 10 20 27 32 34 30 29 29 27 30 35 39 81 73 69 70 66 63 66 63 63 60 59 77 95 95 93 90 88 88 87 86 85 83 82 81 78 77 75 75 76 77 78 79 79 76 78
10 9 18 23 28 38 32 30 27 28 28 33 34 48 88 74 75 69 65 65 77 66 49 46 49 49 54 60 91 89 87 87 86 85 83 82 81 81 77 82 80 80 78 78 77 75 74 73 75
11 11 16 26 33 34 26 28 27 26 33 35 39 46 52 77 74 74 84 86 85 64 48 46 45 49 46 44 62 81 85 85 84 78 81 76 43 47 50 84 82 76 77 76 73 71 70 69 69
12 13 12 12 19 21 24 21 27 29 29 35 43 53 66 82 79 81 81 90 78 57 56 57 55 54 52 41 50 49 46 45 48 48 52 44 53 51 50 68 78 74 73 72 70 66 65 49 27
11 13 10 10 15 17 20 22 22 25 28 29 35 61 80 82 81 74 62 53 43 44 43 44 55 55 48 45 43 40 44 48 52 58 54 57 55 57 50 46 42 46 58 37 40 36 32 39 35
14 10 10 8 17 18 19 20 28 25 24 26 26 50 67 73 68 55 40 32 33 38 39 42 48 56 55 42 42 47 44 50 49 54 64 60 53 57 51 42 44 45 40 42 38 35 42 40 37
13 10 9 9 14 18 18 22 24 26 27 30 41 54 53 49 42 29 26 28 33 36 39 44 48 51 52 54 50 52 53 51 58 59 66 55 51 57 49 48 41 40 37 37 37 36 34 36 34
11 9 8 9 11 18 20 26 26 29 31 42 50 45 35 30 27 26 28 29 34 36 41 48 48 52 49 54 61 61 62 63 68 82 82 73 56 56 49 45 40 38 36 35 35 38 35 33 34
10 10 11 13 15 16 17 21 17 28 32 40 38 33 30 23 23 24 25 28 33 36 45 53 59 58 61 61 63 71 70 73 81 78 76 66 58 55 50 44 41 40 40 41 37 36 30 30 27
9 10 14 13 14 13 15 14 18 29 29 31 30 32 31 28 26 25 25 26 28 35 47 61 69 70 73 77 78 74 80 78 77 72 66 63 53 50 47 42 44 44 39 34 31 30 29 26 28
12 10 11 12 10 13 10 13 21 31 27 32 32 32 31 29 29 32 37 32 28 37 54 68 72 71 74 78 95 95 90 67 52 50 46 50 49 49 45 42 42 40 32 34 31 29 33 31 31
13 10 10 10 11 10 11 19 21 32 27 29 30 31 31 32 33 42 45 39 35 45 59 67 71 78 91 98 92 68 57 53 48 44 43 43 44 45 41 37 40 33 30 30 34 39 33 32 35
10 14 12 12 15 13 15 18 22 29 32 31 31 33 34 36 41 47 55 55 52 64 69 68 77 97 97 91 79 64 53 49 43 38 42 42 41 38 36 30 34 33 34 38 38 33 35 32 36
14 15 18 18 16 17 21 23 27 27 31 31 32 33 35 40 42 53 56 61 66 62 64 74 72 84 72 60 48 40 40 38 37 37 43 41 39 35 32 35 32 36 31 38 42 44 39 32 34
20 18 21 18 19 19 21 24 30 35 37 40 40 35 36 39 46 54 60 62 69 70 68 63 61 58 49 42 40 41 42 42 38 38 38 38 39 34 35 36 36 39 38 34 42 42 45 41 36
22 21 19 19 19 18 19 17 25 32 33 39 42 44 42 45 49 53 54 60 61 60 57 48 46 42 41 43 38 41 33 36 36 39 38 32 40 37 32 35 41 43 40 43 41 35 48 46 44
26 22 20 20 20 22 21 18 20 32 34 35 40 44 48 49 49 45 40 42 43 50 50 44 42 39 41 41 41 42 42 42 40 40 40 38 37 40 37 38 42 44 41 45 50 52 50 45 49
27 27 27 26 24 30 21 24 13 16 24 35 40 47 49 46 43 36 32 34 36 39 44 45 40 39 41 42 45 46 47 42 37 34 33 30 32 34 36 39 46 48 49 52 52 53 56 56 56
25 24 29 37 40 34 33 29 16 25 28 33 43 46 45 43 39 34 34 35 39 44 46 43 39 42 44 45 44 44 40 37 35 36 35 41 36 37 40 45 47 46 48 51 53 57 57 58 59
25 23 31 28 35 30 33 32 23 30 28 32 35 39 40 39 36 33 35 36 38 41 42 40 38 40 41 43 42 40 39 34 34 39 41 41 40 39 41 40 39 39 40 45 52 53 54 52 56
30 28 30 42 57 50 24 27 25 32 31 34 37 38 38 34 34 34 37 39 40 41 45 45 40 39 45 51 47 46 41 41 40 42 40 36 37 30 34 38 37 37 39 44 48 54 56 49 49
28 26 35 36 47 31 20 23 16 34 34 35 39 39 34 32 34 36 38 44 43 41 46 47 42 42 53 50 44 38 39 38 36 36 36 36 35 35 37 38 39 41 43 45 51 55 60 55 52
33 32 31 27 36 29 27 15 25 26 29 33 36 35 33 33 36 38 40 43 42 39 38 40 44 46 46 41 42 40 34 34 34 34 35 36 39 38 39 41 44 44 46 52 69 80 73 52 51
27 28 27 32 32 45 45 21 21 28 31 31 31 32 31 35 37 40 42 42 38 35 34 41 43 39 40 38 34 32 30 30 33 34 35 40 42 42 43 47 47 48 56 57 53 55 56 55 54

GFSSGP_sfc_rhum_039.txt.gz
RH
33 14 6 7 12 13 14 11 11 29 34 33 29 32 37 46 55 66 45 51 46 49 48 58 92 91 90 88 88 87 82 81 80 79 77 76 71 70 70 72 70 63 58 55 55 60 63 65 67
10 6 6 9 14 13 12 11 19 49 51 35 34 30 38 55 51 63 56 50 50 50 50 56 94 92 91 91 89 86 80 80 78 75 74 71 69 68 67 67 71 65 60 55 60 62 64 68 69
10 5 8 9 12 13 14 20 35 33 28 30 32 30 40 58 52 60 56 53 54 50 50 68 92 92 92 91 88 87 86 84 80 77 70 67 66 66 66 69 72 67 60 61 62 65 69 74 75
7 6 8 12 12 9 10 45 39 29 28 27 30 41 42 51 53 53 52 53 57 62 69 90 94 92 90 89 88 86 86 85 83 78 72 65 64 65 68 73 72 66 64 64 66 69 73 77 78
6 7 9 10 10 9 10 25 25 36 30 29 26 38 43 52 46 63 56 54 58 70 78 70 94 92 89 88 86 87 86 86 83 79 75 69 65 67 70 73 72 69 68 69 71 73 74 76 76
7 7 10 11 10 16 16 24 22 36 25 26 29 32 49 48 50 49 64 76 81 86 72 69 90 92 92 91 91 90 89 88 86 82 77 72 71 73 71 72 72 73 73 74 75 76 74 75 74
10 8 10 9 16 22 26 21 33 28 22 23 25 47 53 57 52 68 84 86 92 75 71 64 65 81 94 94 91 89 88 88 87 86 83 82 82 82 79 77 75 75 76 76 76 73 73 72 72
7 8 10 11 25 27 24 22 23 22 25 21 24 36 55 52 58 81 71 87 76 70 58 55 58 58 66 69 90 88 88 87 86 84 82 82 80 77 79 83 79 76 76 75 71 70 69 69 68
7 11 10 25 29 34 28 24 20 20 22 26 32 34 43 56 62 69 79 78 70 63 41 40 38 42 43 45 66 82 86 85 84 77 80 77 42 49 53 82 77 75 75 72 67 67 63 64 69
9 10 10 21 37 73 31 25 19 20 19 22 35 40 49 59 64 74 68 65 61 44 41 43 47 48 44 33 49 48 53 49 47 46 54 47 46 51 49 63 78 73 70 70 65 62 56 52 29
9 11 11 9 16 41 19 18 17 18 23 25 30 47 67 64 54 53 51 51 39 40 41 41 50 53 45 45 39 37 41 46 49 52 49 54 47 51 49 44 42 44 58 37 41 36 32 40 38
10 8 9 8 10 17 20 16 19 24 45 18 21 46 68 56 50 44 42 33 30 34 35 37 41 47 43 37 37 39 39 44 45 50 55 54 50 54 49 38 40 43 37 43 39 36 41 39 37
10 10 8 9 11 16 16 19 18 22 17 16 29 47 51 47 42 34 24 24 29 31 34 35 42 47 49 46 46 45 48 63 68 70 65 60 54 56 47 46 40 41 38 38 39 37 37 38 35
10 9 9 12 15 15 17 18 18 22 20 25 38 42 40 38 32 24 24 27 31 30 37 40 40 46 45 51 57 69 74 73 69 70 78 70 64 63 48 45 40 40 41 40 40 41 35 31 31
8 10 10 10 12 16 16 23 31 22 21 30 36 34 29 26 20 21 24 29 30 30 38 45 50 49 56 57 61 67 64 56 68 75 76 68 64 65 52 50 47 47 44 46 36 34 30 28 24
10 11 16 12 13 14 15 18 19 20 23 24 24 23 19 17 17 20 23 26 29 33 42 48 53 60 66 70 72 71 67 68 73 70 69 67 56 54 57 50 49 46 40 34 33 30 29 29 28
10 12 14 14 11 12 14 13 16 18 20 22 21 20 18 18 17 20 21 22 27 36 51 61 65 67 71 83 94 97 97 90 57 58 52 54 50 48 48 45 43 39 32 33 33 30 31 30 28
14 13 10 10 9 10 10 12 13 16 18 22 22 23 24 22 21 24 28 25 24 36 57 58 63 72 72 82 81 95 96 69 54 49 46 46 44 44 40 38 42 35 32 34 35 39 32 31 30
10 9 8 8 7 10 9 12 15 18 18 21 23 24 24 25 24 32 34 32 30 44 58 62 71 71 76 72 70 77 66 52 47 42 42 43 40 36 37 32 35 36 31 36 40 39 41 35 33
9 13 13 11 9 11 9 11 13 16 17 17 20 23 25 25 32 36 41 40 40 51 62 69 66 67 59 47 52 52 47 42 38 38 42 39 38 34 31 38 33 35 33 37 38 43 42 38 35
12 15 20 14 13 10 12 14 17 17 18 19 19 20 22 27 34 38 43 50 54 59 60 57 58 54 50 50 40 38 37 39 38 38 40 38 36 32 32 34 35 38 37 36 42 42 43 41 39
18 15 14 14 16 17 13 16 16 19 23 27 28 28 25 28 30 37 44 55 55 55 54 48 45 44 42 39 36 40 34 34 35 35 35 36 38 35 31 30 36 40 39 42 41 35 46 46 44
24 17 15 13 13 17 16 13 22 18 21 24 25 30 31 31 36 40 43 50 50 50 48 43 41 36 36 36 35 37 38 38 38 37 41 41 36 34 33 34 38 43 40 43 49 51 57 47 47
19 19 18 16 16 28 16 16 14 17 17 19 24 29 32 36 38 36 39 37 37 41 43 40 36 34 37 38 40 42 43 38 40 38 35 31 28 28 31 31 38 42 41 44 44 47 46 50 57
17 20 33 36 31 33 20 19 15 15 20 18 27 30 36 38 37 33 33 32 37 42 43 40 35 36 38 41 42 41 41 41 36 34 32 33 31 32 35 40 40 36 37 38 41 46 48 55 66
20 18 31 32 30 24 21 18 18 20 21 22 25 30 35 37 36 31 29 30 34 40 41 38 36 38 40 41 38 38 36 34 32 31 34 34 34 33 34 34 35 35 35 37 40 41 47 50 66
21 22 21 28 49 42 16 14 21 22 23 25 28 32 36 35 33 29 28 31 34 37 41 40 38 37 38 38 39 41 48 36 32 35 36 32 34 28 31 35 36 35 37 39 41 42 46 56 59
22 19 28 26 39 32 14 14 16 23 23 26 30 34 33 32 30 28 29 34 34 36 41 42 38 38 38 38 41 40 41 34 32 33 33 33 34 33 34 35 36 39 40 40 42 48 54 56 64
25 25 23 22 28 35 26 16 14 16 19 24 27 30 32 31 28 29 30 33 35 37 42 42 37 35 38 37 41 48 34 32 31 32 32 32 35 34 33 35 40 40 39 49 57 56 52 54 54
20 21 22 38 28 32 42 24 13 16 17 20 23 26 28 28 26 28 31 35 38 39 38 38 36 35 34 36 46 37 31 27 30 31 30 33 36 35 35 38 40 42 46 49 54 57 58 56 55

GFSSGP_sfc_rhum_042.txt.gz
RH
37 20 14 12 13 15 16 13 14 35 44 32 28 40 55 58 65 84 61 57 52 58 72 76 92 90 89 89 88 87 85 81 79 79 80 78 77 76 75 73 70 66 57 61 62 62 63 65 67
14 12 8 7 14 17 14 28 48 45 39 32 30 33 46 76 58 65 62 55 51 56 60 72 93 91 90 89 87 85 82 79 80 78 76 75 72 69 68 73 73 67 61 62 62 64 67 70 72
20 8 8 10 13 18 20 43 48 32 29 30 34 33 43 72 57 62 69 69 50 53 60 82 92 92 90 89 88 87 85 83 80 76 72 67 66 67 69 75 73 70 64 63 64 66 70 74 78
9 8 7 14 15 11 23 38 31 30 28 27 30 43 44 39 46 53 69 69 62 74 83 91 92 92 89 89 89 88 86 84 80 76 73 66 66 70 72 77 75 69 66 66 67 69 73 80 80
8 8 10 12 12 10 11 26 27 28 28 27 27 41 51 47 56 58 62 67 72 83 84 84 92 89 89 88 88 88 88 84 81 77 75 73 70 71 74 79 78 74 71 71 71 71 74 79 79
10 7 13 14 11 10 12 23 30 34 52 74 26 35 44 40 55 70 74 91 90 89 87 85 90 91 91 91 90 90 89 86 83 80 77 77 76 77 78 79 79 77 76 75 75 73 74 76 73
11 10 12 12 12 15 22 33 48 55 41 50 23 50 58 46 49 70 86 93 93 93 91 84 83 91 94 92 90 91 89 89 87 85 84 84 84 82 82 82 78 77 77 76 73 72 74 70 65
8 9 12 10 10 36 59 53 52 57 45 20 19 34 52 63 76 67 77 90 94 96 87 84 82 79 84 79 90 89 89 88 86 83 82 82 80 82 83 82 80 77 76 72 68 69 69 69 63
6 11 13 12 20 58 51 68 45 24 22 27 28 41 47 62 71 67 86 94 96 93 85 66 67 73 74 78 82 86 87 86 83 81 81 82 63 70 69 82 80 76 75 72 67 65 61 66 67
9 13 11 18 41 57 56 71 51 19 20 27 37 50 59 67 67 75 84 85 91 90 69 56 65 65 62 49 71 71 71 68 66 66 76 71 74 71 61 74 77 76 73 70 65 60 61 60 51
9 12 9 14 24 38 53 52 34 21 32 35 47 57 68 65 71 76 70 71 76 50 55 54 68 66 54 60 61 62 67 67 70 73 74 72 70 72 78 80 70 80 76 67 62 57 54 55 58
10 9 8 12 25 26 26 25 32 29 37 59 56 57 65 61 57 57 58 58 45 47 48 54 58 66 66 54 54 60 58 68 76 76 73 81 82 74 71 70 65 64 62 62 62 63 63 59 54
10 9 8 9 10 16 19 28 30 28 22 44 52 59 56 44 43 44 49 33 39 41 47 51 57 63 62 65 68 72 76 83 87 91 86 92 85 82 74 68 66 66 63 61 63 62 56 56 47
9 9 10 11 14 14 21 32 30 22 19 42 50 53 46 40 36 35 27 34 37 38 45 53 54 66 64 75 80 86 87 89 86 83 85 83 83 81 75 68 63 64 64 63 62 59 58 51 47
10 12 11 13 14 22 22 27 22 23 23 35 40 38 37 32 27 27 34 37 37 39 43 53 61 69 76 76 73 71 70 75 82 86 83 83 82 82 72 72 69 68 63 59 56 51 48 49 41
10 12 19 15 14 14 24 35 21 21 25 34 37 36 34 29 24 25 33 33 34 42 48 54 57 71 75 76 73 75 76 80 84 83 85 76 70 67 70 69 68 64 64 57 57 57 52 51 50
14 18 21 19 11 14 22 27 18 17 22 26 26 27 27 25 22 27 29 33 35 42 54 68 75 79 79 82 89 95 93 94 86 86 70 67 63 64 68 69 64 64 58 61 56 58 60 56 53
23 16 15 17 12 12 20 18 13 17 21 24 24 22 20 20 20 24 26 31 36 52 63 71 76 84 87 91 92 92 92 91 80 66 63 63 61 61 64 62 62 59 54 58 60 63 60 62 60
15 14 14 10 9 11 11 12 11 15 19 24 23 23 22 22 22 29 34 36 44 63 74 74 82 81 84 83 80 76 78 71 67 58 61 63 58 52 53 58 54 54 57 59 57 61 63 65 62
12 19 17 9 8 10 11 10 13 13 17 22 24 26 27 26 24 35 38 42 53 65 67 78 78 78 75 62 61 66 65 63 57 57 61 59 55 48 51 54 56 57 59 60 65 66 70 65 66
14 28 26 22 11 8 11 10 14 14 15 16 20 23 24 27 33 39 41 47 54 68 75 71 74 74 70 56 60 62 59 60 59 57 61 57 52 46 46 48 54 58 61 65 67 66 67 71 66
23 24 20 19 18 18 24 26 17 16 17 17 18 22 24 25 33 36 43 49 56 67 70 68 66 63 60 61 55 58 52 53 53 56 56 53 52 49 43 46 52 59 65 66 69 52 71 71 71
28 25 24 15 15 32 30 34 33 19 21 19 23 24 24 26 31 36 43 53 53 67 67 70 60 52 52 52 53 59 57 59 56 59 61 55 62 55 49 50 56 60 65 67 70 73 72 72 77
24 25 20 17 22 43 38 42 32 28 33 33 23 26 28 30 31 36 53 55 55 63 65 60 53 48 47 50 54 57 59 56 59 59 62 57 52 50 52 55 64 62 63 62 63 65 65 68 73
16 20 42 84 81 48 14 18 19 33 23 21 24 27 30 33 39 41 46 50 52 54 57 55 46 43 49 54 55 56 57 54 54 52 51 50 52 55 59 56 56 58 58 59 61 64 67 69 77
30 21 62 63 80 41 20 22 20 20 18 18 22 25 32 39 42 41 43 43 46 52 52 50 44 43 47 55 54 55 52 53 54 54 49 54 54 56 53 53 55 55 56 58 61 66 68 66 81
29 24 22 28 59 66 22 12 22 19 21 22 26 30 38 39 39 37 39 42 46 49 54 54 45 43 51 56 56 57 52 50 52 50 47 53 51 39 54 55 54 55 58 60 63 67 70 76 79
18 16 32 31 50 46 19 16 33 25 23 23 29 35 38 37 37 36 34 40 41 46 52 57 51 48 50 51 57 52 53 52 49 46 48 46 48 48 52 53 53 56 58 60 71 74 71 72 81
24 26 20 18 33 56 55 25 16 17 20 24 29 32 38 38 37 35 32 36 39 43 47 52 48 45 48 48 54 56 52 50 46 46 45 45 47 48 48 49 52 54 58 64 68 70 68 70 72
18 22 22 62 40 45 62 37 15 18 17 20 23 27 33 34 34 32 32 37 39 44 47 51 51 47 47 49 51 54 51 46 46 45 44 45 48 50 48 50 51 52 56 62 66 70 68 70 70

GFSSGP_sfc_rhum_045.txt.gz
RH
64 51 42 28 25 31 32 27 56 66 56 48 52 70 82 78 82 92 82 80 81 87 87 87 92 90 90 90 89 88 85 80 76 79 80 78 76 74 73 72 70 69 62 62 61 61 61 63 65
30 22 27 25 22 32 27 37 66 62 50 44 42 60 72 85 72 83 84 81 80 85 87 87 91 90 90 89 87 85 81 78 79 78 76 75 72 69 69 72 73 70 63 61 61 62 64 67 69
37 22 19 19 22 23 27 53 57 48 43 45 48 48 66 82 67 72 75 75 77 79 83 90 93 91 89 88 87 85 84 81 78 76 72 69 70 70 70 77 75 71 64 63 63 64 66 70 75
20 17 14 20 23 18 20 42 45 43 38 40 49 66 55 55 65 78 86 82 75 84 87 92 92 91 90 90 87 86 83 80 78 75 73 71 71 72 74 79 76 69 66 64 64 66 68 76 74
18 20 16 19 18 14 33 34 41 57 51 52 43 61 67 65 83 86 87 85 90 90 88 84 90 91 90 88 87 86 84 81 79 78 78 76 72 73 75 81 79 74 70 67 67 69 70 74 71
24 17 21 21 16 25 50 66 61 58 56 50 45 56 67 69 95 95 94 98 97 92 85 79 86 92 92 89 89 88 86 83 81 81 80 79 79 80 79 81 80 77 75 72 70 72 72 70 70
20 22 22 17 15 38 57 61 77 72 62 49 47 74 70 81 97 92 96 94 94 95 90 86 93 86 93 92 91 90 88 86 84 84 83 83 84 84 84 83 80 78 76 72 71 71 69 67 64
16 18 19 15 15 69 61 69 63 74 58 39 41 75 84 97 91 82 87 93 94 94 96 97 91 88 87 86 90 90 88 87 85 83 83 84 84 84 82 82 81 79 75 71 65 67 65 66 64
16 20 17 16 57 60 57 60 72 63 74 44 58 64 85 77 89 89 90 92 94 92 95 93 87 82 86 86 85 87 86 83 82 81 81 84 80 80 80 79 80 78 74 68 68 63 62 69 67
17 23 19 20 53 59 59 47 63 58 58 67 84 90 80 72 85 92 88 92 96 96 96 89 80 80 75 68 84 88 77 79 79 78 81 78 79 82 70 79 78 76 73 69 70 62 64 64 57
15 16 13 20 38 49 54 50 41 45 44 56 65 77 91 78 80 90 84 83 92 87 77 82 76 73 64 72 76 77 80 83 79 77 80 85 81 80 85 84 80 82 77 72 66 62 60 57 60
16 12 12 26 39 46 51 48 41 42 40 56 77 80 82 80 81 85 86 86 90 89 70 61 60 59 63 66 70 72 75 86 91 96 92 92 91 94 89 82 76 73 74 68 69 66 58 57 49
14 12 12 26 34 35 38 58 48 47 52 46 54 57 76 81 83 74 78 75 76 63 61 60 63 61 62 75 88 89 94 92 97 96 91 94 94 92 78 72 72 72 67 66 65 56 58 53 50
14 12 14 15 21 26 39 54 40 44 49 51 54 59 64 73 67 73 64 52 55 57 59 66 70 71 83 89 88 91 95 95 93 94 93 88 86 77 72 72 70 69 62 63 58 55 54 54 49
15 16 16 19 27 34 36 54 52 43 43 60 68 68 66 62 72 66 59 46 52 55 57 67 77 86 82 81 80 86 86 91 90 94 89 86 75 80 76 77 72 68 65 57 58 54 53 54 48
23 18 24 23 23 32 28 46 38 44 56 67 67 59 52 42 42 41 43 44 48 52 57 63 75 83 83 85 93 93 95 94 94 94 90 80 72 74 73 72 66 68 64 63 62 60 59 59 60
26 24 26 26 18 34 34 38 31 37 46 52 51 50 43 36 42 40 41 44 47 50 62 84 84 87 89 93 96 97 96 97 95 88 77 67 70 71 71 68 64 67 67 66 58 62 64 64 64
31 24 25 25 20 26 29 29 28 30 40 44 47 45 40 34 38 39 40 44 50 62 81 82 85 94 97 98 98 99 98 96 94 82 74 68 68 68 68 69 63 62 63 63 61 65 67 68 70
21 23 21 19 17 23 28 28 28 26 33 36 36 35 35 32 34 36 42 47 64 81 86 87 91 95 96 98 99 98 97 92 80 71 68 70 67 59 68 70 67 63 63 60 66 69 67 70 70
24 24 24 21 14 14 17 19 21 23 31 32 34 32 30 33 35 38 44 62 74 83 88 90 87 91 94 93 89 86 84 78 72 70 70 68 66 57 54 60 62 60 62 67 69 69 74 76 73
34 36 34 34 31 20 17 20 19 20 23 30 30 30 30 32 38 43 49 74 84 85 91 90 86 86 87 85 79 84 78 78 78 75 76 68 56 51 56 58 61 62 68 69 72 74 75 78 77
37 25 29 27 35 40 29 41 33 22 20 25 31 32 36 42 46 43 53 81 82 89 90 86 82 85 84 70 78 81 76 74 74 73 74 62 58 55 50 54 57 65 71 68 76 69 79 83 82
30 28 28 32 32 36 38 47 36 31 25 24 30 34 35 36 47 48 55 77 79 86 89 84 81 83 78 70 70 70 74 71 73 73 67 65 58 56 52 63 70 68 72 70 65 65 70 77 80
27 32 33 50 51 54 34 38 48 29 27 31 26 27 36 49 46 49 54 64 78 84 85 84 81 75 71 69 67 67 69 68 66 64 64 65 65 63 64 59 61 63 63 64 69 69 70 74 78
30 37 63 74 83 74 35 39 43 31 24 32 28 25 45 46 58 66 68 68 73 79 85 88 86 65 61 64 66 69 64 64 66 64 61 58 63 67 56 56 61 63 62 61 64 68 72 74 85
33 41 64 76 87 72 32 41 36 29 27 28 28 37 42 55 62 72 70 70 73 76 81 72 57 50 56 64 68 67 57 62 60 60 57 60 59 58 56 57 58 56 58 62 65 71 78 82 89
46 52 38 61 77 83 45 26 31 30 31 36 37 43 59 60 59 64 65 65 67 72 68 58 52 57 64 68 67 63 61 61 59 56 54 56 55 48 54 53 54 56 60 64 77 83 83 82 87
33 28 46 53 50 54 40 37 51 39 36 38 43 56 57 56 54 59 60 65 65 65 66 64 61 64 70 65 62 59 61 58 54 55 52 52 53 50 52 52 55 58 64 69 73 79 76 80 85
34 37 36 34 58 66 76 46 29 32 33 39 47 52 56 55 55 54 56 56 58 63 64 64 66 62 56 58 62 64 60 56 54 51 53 50 52 51 50 52 54 58 66 66 73 74 74 75 78
24 32 45 70 47 61 77 53 24 26 30 32 38 45 50 48 52 50 48 51 57 59 62 68 63 52 54 57 59 55 55 56 49 49 53 52 51 52 52 53 55 59 63 66 65 72 76 76 75

GFSSGP_sfc_rhum_048.txt.gz
RH
77 63 45 30 28 33 36 30 63 65 62 64 66 74 87 86 84 86 85 80 90 87 89 89 92 91 90 89 90 87 82 77 74 76 77 77 74 72 75 74 72 67 60 59 59 59 58 62 66
37 28 30 29 24 29 26 31 53 62 52 64 60 71 81 86 79 96 90 83 85 86 86 89 91 90 89 89 87 84 78 76 77 75 73 75 71 71 71 73 72 69 61 60 58 56 56 61 71
39 26 22 26 26 22 24 50 60 54 47 47 56 63 75 83 76 84 84 86 84 85 86 90 91 90 89 88 85 83 82 81 78 75 71 70 70 70 70 76 74 70 61 59 57 55 57 68 71
23 20 19 19 22 20 18 21 54 52 46 51 61 72 60 70 78 80 81 87 88 91 89 93 92 90 88 87 86 83 82 79 77 77 76 72 71 72 73 78 74 69 62 60 59 58 65 71 71
23 23 22 20 18 33 67 69 63 68 54 51 53 71 68 89 92 89 86 86 89 93 90 90 93 91 88 86 84 83 82 80 79 80 79 76 72 72 75 81 78 74 66 64 64 64 70 71 71
27 22 24 22 18 47 63 70 66 73 68 54 57 66 84 92 94 96 94 98 96 95 91 87 86 87 88 86 86 85 83 83 83 82 80 78 79 79 78 80 80 76 70 69 69 73 72 71 69
28 26 25 19 18 21 67 69 73 78 79 54 62 83 90 89 94 94 96 96 98 98 96 97 91 87 93 92 90 88 85 85 85 84 83 83 84 84 83 82 80 76 74 72 72 71 70 69 70
21 20 22 20 18 45 66 64 65 53 62 51 62 80 96 90 92 91 89 95 96 94 92 91 92 94 92 88 91 89 88 88 86 84 84 85 85 84 83 83 81 78 73 69 67 66 66 68 71
17 23 25 21 40 59 64 69 65 54 48 58 92 85 89 88 84 90 94 95 96 93 91 89 93 92 91 88 84 86 85 85 84 83 84 85 84 80 77 80 80 77 71 66 67 72 72 71 70
19 23 20 15 43 57 63 63 69 64 62 70 93 94 84 88 90 87 90 93 93 93 94 93 87 90 86 72 85 84 75 81 82 81 81 81 86 87 75 80 80 76 72 70 72 70 67 61 60
18 19 15 16 43 56 59 54 49 50 60 64 94 92 90 85 85 86 88 85 85 84 89 92 86 85 82 80 89 89 87 84 82 80 83 86 86 88 90 89 83 85 74 61 60 57 58 52 54
16 13 13 21 50 51 53 45 43 45 43 64 89 84 89 87 84 79 80 83 88 92 89 87 80 79 80 77 82 83 77 89 91 91 88 95 95 94 89 85 79 76 74 68 62 64 57 54 48
19 17 14 27 43 48 41 48 46 54 72 75 80 82 85 86 77 77 75 75 85 86 76 79 73 69 75 80 84 89 94 98 98 97 94 95 94 94 77 74 72 70 68 60 58 56 54 54 46
24 22 19 35 40 42 40 45 41 52 61 71 70 81 83 86 82 82 81 78 85 73 71 72 66 72 82 94 95 98 98 98 98 97 92 90 85 73 73 75 72 68 63 61 59 55 55 56 52
26 20 18 34 39 46 44 50 53 47 47 59 63 62 68 72 82 80 75 76 77 61 61 67 88 93 94 95 95 98 97 96 98 95 89 81 78 80 78 76 73 70 63 60 58 57 58 59 54
29 21 25 23 32 38 37 41 40 46 53 61 71 72 70 71 75 70 71 69 62 60 62 82 79 87 88 94 96 96 98 98 98 95 88 82 78 76 74 70 72 75 69 65 64 62 62 64 66
32 26 30 28 26 33 31 37 34 57 61 80 82 79 71 73 67 64 55 58 57 57 77 91 87 88 91 96 97 97 96 97 96 89 81 77 76 73 67 65 72 72 68 67 61 69 67 69 68
35 28 25 28 24 37 33 34 32 58 67 73 76 65 51 69 64 60 51 54 55 57 82 87 86 92 96 98 98 98 98 97 92 83 76 73 76 68 71 70 71 69 66 66 68 68 70 69 74
26 25 27 24 19 36 36 32 31 57 58 61 62 57 52 54 50 47 50 52 55 81 89 89 92 96 95 97 99 99 98 97 88 80 72 73 73 70 72 74 69 68 63 70 68 71 69 73 79
31 35 32 24 24 25 33 29 31 45 53 52 51 51 43 46 48 49 54 56 81 88 89 91 90 94 93 92 97 93 93 90 80 77 77 75 66 65 65 68 64 64 69 69 70 73 79 81 79
35 37 34 33 32 23 22 24 28 27 38 43 43 41 37 36 47 52 59 76 86 92 94 90 91 90 91 89 88 87 83 83 81 81 79 78 65 60 62 65 65 66 72 73 77 77 78 84 84
38 30 31 33 36 35 30 29 36 26 29 37 36 37 35 37 40 54 63 85 91 92 92 88 86 89 91 90 87 79 82 77 81 80 81 73 64 62 59 61 67 75 77 77 76 68 76 80 74
38 37 32 34 39 47 44 40 34 29 29 40 37 36 33 37 38 59 73 80 83 94 95 92 87 88 83 88 82 80 84 80 82 83 80 73 67 64 64 70 74 73 73 67 65 69 73 79 83
32 35 47 53 53 56 42 42 39 34 26 25 33 36 40 47 51 54 78 81 88 94 96 94 89 88 92 90 81 82 78 79 81 85 77 76 79 73 62 59 65 66 64 63 67 70 69 75 82
35 46 64 69 79 65 43 46 41 34 27 28 31 39 48 50 64 70 89 89 95 96 95 94 91 89 87 87 79 80 76 77 74 76 76 75 66 61 57 59 62 61 61 65 68 73 78 84 89
39 44 64 57 84 65 45 50 38 32 32 32 31 32 49 60 58 63 82 88 90 92 92 91 89 85 80 79 77 76 72 75 78 70 62 62 63 66 61 67 60 58 62 71 80 85 88 84 91
45 49 41 67 82 88 53 33 33 35 35 39 42 44 53 68 69 71 72 82 88 89 90 91 89 77 71 71 69 64 66 67 69 59 59 61 63 60 67 58 56 61 72 74 77 82 80 83 88
34 32 52 61 58 60 44 42 52 44 42 46 53 52 69 72 82 85 82 84 86 88 90 78 71 68 68 67 61 59 65 64 57 58 61 60 60 57 58 60 55 63 72 68 74 77 80 79 85
39 39 40 43 60 62 72 45 32 41 40 46 49 58 67 68 72 75 76 76 76 74 71 70 65 64 63 60 67 67 66 66 66 62 62 59 63 63 55 55 55 59 70 68 71 72 74 80 80
45 48 47 68 44 66 78 49 30 36 37 46 47 55 63 59 60 65 68 70 70 67 65 68 72 69 65 62 68 57 58 64 64 62 63 63 59 58 55 56 55 59 69 70 68 68 72 78 80

GFSSGP_sfc_rhum_051.txt.gz
RH
76 65 46 30 29 35 40 32 36 66 70 74 71 75 83 93 78 82 92 87 92 91 87 92 92 89 89 89 88 84 78 72 70 71 76 76 77 75 75 72 70 67 60 57 58 58 64 72 78
45 37 29 26 26 31 26 25 34 49 68 78 64 72 88 90 92 92 88 94 84 85 87 89 91 89 90 89 85 81 74 73 73 74 72 75 73 71 72 73 72 68 62 55 56 58 59 67 75
41 26 27 30 27 25 23 30 68 61 63 66 69 71 81 90 88 89 87 88 83 86 84 90 91 90 89 87 83 80 80 79 78 77 72 71 70 68 69 75 72 68 61 54 55 60 62 71 77
24 21 20 20 24 20 22 74 52 60 53 55 68 77 73 90 94 85 87 84 88 91 88 90 90 90 88 85 84 83 81 80 79 78 76 71 68 69 72 75 72 68 60 56 56 60 72 73 73
26 25 26 22 17 28 73 77 71 75 73 67 70 77 84 94 91 88 94 90 93 96 92 88 92 89 87 85 84 83 81 81 80 79 78 75 72 71 76 78 76 72 66 61 60 68 71 74 73
30 23 26 26 21 33 72 73 67 71 70 65 65 75 92 93 94 97 94 97 95 98 97 88 89 86 86 85 85 84 84 84 83 81 79 78 78 78 79 80 78 76 73 72 72 74 72 71 74
30 30 28 22 20 18 64 72 74 71 61 54 67 90 92 96 97 96 96 96 98 97 98 97 96 87 91 90 88 87 87 87 85 84 82 83 83 83 82 81 78 76 75 72 72 74 76 73 72
27 23 25 21 18 25 66 65 68 65 67 52 60 92 92 96 96 94 95 95 96 97 98 97 95 94 91 86 90 89 89 89 88 86 86 87 87 86 85 82 79 75 72 72 74 74 74 77 75
21 28 28 21 23 34 71 69 66 62 60 89 90 83 92 96 91 92 94 93 93 93 93 89 88 94 92 90 85 88 88 88 86 85 85 88 89 86 78 81 79 75 74 77 73 73 71 71 73
24 28 22 17 23 55 69 68 62 59 77 93 94 95 93 91 89 94 94 94 91 86 86 85 81 88 94 77 87 88 81 86 87 88 86 86 89 82 80 83 81 78 77 73 71 68 63 56 56
25 21 17 15 31 59 65 63 62 59 72 89 95 96 92 88 89 92 91 89 89 86 87 89 80 85 91 84 95 93 90 89 86 83 86 88 90 87 92 88 86 79 66 58 55 52 52 49 54
20 15 15 14 53 53 59 52 53 66 54 76 83 85 86 91 91 88 87 90 89 89 87 92 88 91 91 92 95 93 82 88 88 88 87 95 96 94 88 88 80 73 69 62 60 60 55 50 48
21 20 20 32 47 46 46 52 48 82 91 84 80 81 88 84 82 80 80 78 82 87 91 95 88 84 83 86 91 90 92 92 96 96 94 96 97 97 86 78 75 72 63 60 58 56 54 53 49
27 29 45 48 49 45 41 54 47 81 91 92 92 92 83 78 76 79 81 82 90 84 86 91 84 80 82 88 90 95 98 98 98 97 96 93 89 82 77 74 70 67 63 59 57 55 58 59 55
27 21 44 47 48 43 39 49 54 74 83 93 91 90 85 81 71 81 77 82 88 84 78 85 79 80 86 91 94 98 99 98 98 96 90 84 84 80 77 76 70 68 62 60 61 61 61 62 57
31 25 39 37 44 44 34 44 53 68 77 80 80 84 86 80 72 71 73 73 81 75 78 77 70 88 95 97 98 99 98 98 98 93 87 85 81 78 76 75 74 72 66 65 64 65 66 67 68
36 27 36 33 34 45 42 36 44 57 66 71 70 74 82 82 77 72 73 71 81 71 75 81 93 95 96 98 98 98 97 98 97 91 84 81 77 72 70 74 78 70 70 70 64 73 69 70 72
42 32 31 28 26 36 43 34 54 55 56 62 87 82 80 86 82 73 73 71 73 70 87 92 91 96 97 98 98 98 98 97 93 86 83 78 75 69 72 75 74 71 70 71 72 69 75 75 76
40 33 30 28 23 34 40 38 32 63 76 83 89 83 79 81 76 71 71 67 71 84 96 94 96 97 96 97 97 98 98 97 90 83 78 79 72 70 71 73 72 67 65 71 69 74 70 78 83
38 34 32 29 26 30 39 39 34 64 73 71 72 74 63 79 74 71 67 68 68 87 94 95 93 96 93 90 98 96 97 96 86 82 79 77 74 72 70 70 68 66 75 74 74 74 83 84 85
40 41 37 35 33 31 32 34 36 52 62 62 62 60 53 66 69 67 61 67 72 88 94 93 92 93 92 90 92 93 88 86 83 83 84 82 70 71 68 67 70 72 75 76 80 81 77 78 80
44 36 34 38 38 33 31 32 33 38 52 57 58 58 50 57 56 58 60 65 77 79 88 88 91 92 92 87 87 87 86 89 82 82 84 83 72 68 65 67 72 78 81 81 78 71 79 74 72
40 39 40 39 43 49 45 42 36 35 46 48 55 53 48 47 53 56 59 60 72 82 95 94 94 93 89 87 85 89 89 84 85 84 82 84 76 72 68 71 78 78 74 71 68 69 70 78 82
36 41 46 55 52 57 47 44 45 36 28 29 41 46 45 44 48 52 54 64 77 94 96 96 94 91 91 89 93 89 86 85 85 88 89 85 82 78 74 68 66 64 64 66 70 70 71 78 86
37 47 62 68 74 63 46 51 44 34 31 27 33 40 45 44 48 56 68 83 90 94 95 94 93 92 92 94 95 92 86 82 82 81 82 84 77 72 66 66 72 65 63 66 70 76 86 87 90
50 45 65 55 75 60 50 60 39 35 37 36 34 44 47 49 52 71 80 85 92 92 92 92 94 91 95 96 94 90 88 81 84 85 80 74 67 67 73 74 73 64 65 70 77 86 87 84 89
50 53 44 69 82 87 59 42 33 37 40 44 47 40 53 63 62 76 86 88 94 95 92 93 95 93 94 93 92 92 85 84 84 78 70 72 68 66 78 72 70 68 72 74 80 84 81 84 90
38 37 52 62 58 66 47 47 48 42 39 42 57 53 53 73 75 77 87 91 93 93 92 94 94 93 90 90 85 78 76 72 63 67 70 68 79 86 78 76 73 67 74 74 79 81 82 80 85
44 45 46 49 60 62 70 52 32 42 40 41 44 53 70 81 90 91 88 91 92 93 95 96 95 92 84 78 73 75 69 65 67 67 66 69 79 79 83 69 65 66 72 74 77 74 75 76 79
44 45 50 70 51 70 79 52 31 33 39 47 45 48 71 76 84 86 85 88 93 94 94 93 89 81 75 78 75 70 65 68 68 64 64 78 93 78 64 67 60 63 72 74 73 70 72 78 81

GFSSGP_sfc_rhum_054.txt.gz
RH
78 59 43 27 28 34 44 31 30 46 71 79 76 83 84 94 82 87 88 93 91 86 90 89 90 90 88 86 84 81 77 74 71 72 77 78 77 74 72 71 69 68 63 66 71 70 70 74 80
50 38 30 26 27 32 27 27 45 59 74 75 72 78 87 95 89 91 88 95 83 86 86 90 90 90 87 84 81 78 74 74 74 74 74 75 75 74 74 71 68 67 64 61 67 73 76 77 77
39 24 28 28 29 26 23 22 66 68 71 73 78 77 89 93 85 88 89 90 85 88 87 90 91 90 86 83 79 78 78 77 77 76 73 70 72 72 73 71 67 66 65 58 60 66 67 74 80
25 22 22 25 30 19 20 46 81 67 62 62 74 80 79 85 95 89 89 89 91 93 92 92 92 89 85 82 82 81 81 80 78 77 75 71 70 70 74 73 68 67 66 61 60 63 70 76 77
28 28 30 31 21 18 73 79 76 74 71 73 74 87 89 95 94 95 94 93 96 97 94 91 92 87 85 84 83 82 83 82 79 78 76 75 74 74 78 76 74 70 69 66 64 67 71 76 78
32 27 29 35 24 18 72 74 72 72 71 73 77 86 94 93 94 97 94 96 95 96 95 94 93 90 87 85 84 84 84 84 82 80 78 78 78 79 78 78 77 74 73 72 73 74 74 74 72
30 32 33 29 21 18 49 72 72 74 71 65 65 88 94 97 97 94 95 95 96 92 96 98 97 89 90 89 89 89 88 87 85 84 83 83 84 82 79 77 76 74 75 76 76 76 74 76 76
30 27 47 26 20 20 70 66 68 66 75 62 72 95 97 92 97 95 94 96 94 92 92 94 94 93 93 86 91 92 91 90 89 88 88 88 88 86 83 80 76 75 75 74 75 77 77 77 76
26 31 33 27 21 26 74 67 65 64 77 90 87 85 95 94 91 95 97 97 98 95 93 96 92 83 91 89 86 89 90 90 89 88 88 90 91 87 81 82 78 79 75 73 71 67 67 69 68
28 34 25 20 18 34 64 66 64 68 94 95 90 96 96 92 90 96 97 97 97 95 92 88 89 93 89 78 92 91 87 92 90 89 88 87 86 87 85 83 81 76 74 71 65 59 58 54 51
27 25 20 18 16 54 69 70 63 67 86 89 94 97 91 94 90 90 87 90 92 85 82 80 75 90 88 90 90 90 90 95 93 88 91 92 89 91 93 90 78 72 61 56 52 48 49 53 54
26 19 16 15 35 62 67 54 56 66 63 80 84 83 88 94 92 88 86 81 78 77 70 82 87 92 92 92 93 93 87 89 92 92 91 95 94 94 89 79 71 67 66 61 62 58 55 55 54
21 21 24 27 53 53 48 56 57 96 93 82 81 85 87 86 85 84 81 76 89 91 88 95 96 96 93 93 92 92 92 90 93 92 92 96 94 95 87 77 72 65 61 59 58 57 56 57 57
28 30 46 52 49 49 48 56 63 87 81 82 84 88 92 89 88 85 85 86 87 84 88 96 96 94 91 93 93 95 96 94 97 97 96 94 95 87 85 75 69 65 61 59 58 60 62 61 58
32 27 44 50 52 52 44 64 67 85 82 88 86 89 92 80 81 86 82 84 83 81 86 95 93 87 90 91 92 97 98 98 98 97 96 94 92 85 85 75 70 67 63 62 60 64 64 64 57
34 26 46 45 49 51 41 48 83 92 92 95 89 86 89 80 75 77 78 82 93 93 94 95 83 88 93 94 96 98 99 98 98 97 94 90 89 85 82 75 72 70 67 64 68 67 68 70 67
36 32 36 42 43 51 45 45 68 90 86 92 95 83 88 84 82 75 81 84 93 92 91 94 92 94 95 96 98 98 98 98 98 95 96 86 80 77 76 69 73 71 76 72 67 73 70 70 72
50 47 42 32 36 44 56 48 65 81 76 85 93 93 94 89 83 74 80 82 92 84 87 94 96 96 97 99 99 99 99 98 97 94 88 80 76 73 76 76 74 74 72 74 73 72 78 77 77
42 43 38 28 26 36 42 45 63 70 72 74 80 85 90 90 76 74 77 83 89 85 94 96 96 98 98 99 99 100 99 98 96 96 88 80 73 71 73 74 74 72 70 73 71 76 73 81 84
41 41 40 30 32 34 41 39 40 63 64 65 74 83 83 91 89 82 84 86 84 86 94 96 94 97 96 96 98 96 98 97 94 94 86 80 75 71 70 73 71 70 78 77 76 75 84 85 85
41 43 43 38 34 32 38 34 41 49 72 73 73 73 73 80 88 87 83 82 81 86 94 94 94 95 95 94 96 97 96 95 94 89 88 84 77 72 68 71 74 76 78 79 81 81 75 75 79
44 38 42 41 42 40 34 35 36 45 67 71 70 76 72 70 78 79 80 78 75 76 91 91 94 95 95 92 88 90 91 96 90 86 86 85 77 76 72 71 74 79 83 84 78 72 79 72 69
37 40 45 47 46 51 48 48 38 40 49 63 69 67 66 60 67 76 75 71 70 79 94 93 95 96 95 93 87 92 95 96 95 93 84 88 80 76 71 74 82 83 81 75 71 71 73 78 76
37 44 46 55 54 57 47 47 45 40 36 48 54 62 61 58 61 65 67 68 71 92 97 97 96 95 95 93 92 92 93 96 96 92 86 89 84 82 79 78 77 72 69 69 68 69 68 75 83
42 48 61 68 73 62 50 54 45 36 34 30 38 48 58 56 55 64 69 71 83 94 97 96 95 95 96 95 93 93 95 91 90 85 83 86 84 82 78 70 70 67 70 76 74 73 77 80 86
50 45 65 56 72 55 52 55 39 38 39 40 37 36 50 57 48 56 61 70 83 92 95 94 95 89 95 96 95 96 92 86 87 86 84 83 77 75 72 81 79 75 70 71 75 78 79 78 89
54 53 46 69 84 86 58 44 28 41 44 47 44 55 57 58 52 55 59 72 88 92 94 94 92 88 92 95 96 97 96 91 88 90 86 80 75 70 83 75 77 84 89 78 78 77 75 80 86
44 42 52 64 60 64 52 48 44 35 39 42 50 57 54 66 69 70 74 84 89 92 92 93 91 90 92 95 95 96 95 90 89 85 80 74 79 83 81 88 91 92 79 75 77 76 76 84 87
50 51 51 50 62 61 70 52 37 32 42 41 45 53 57 62 76 79 90 92 93 94 95 94 94 95 96 97 96 96 92 84 81 78 77 83 84 83 85 90 91 75 76 78 77 76 78 84 84
44 47 50 70 55 72 80 59 33 30 33 45 42 47 67 76 79 89 92 96 98 96 97 96 95 96 96 95 93 90 84 84 87 84 81 83 86 86 93 81 70 69 73 74 78 78 72 81 81

GFSSGP_sfc_rhum_057.txt.gz
RH
56 34 26 17 18 21 19 18 20 21 32 71 70 63 60 80 74 67 76 79 74 77 68 71 90 89 87 86 84 81 79 76 76 80 80 77 75 74 73 72 73 77 73 72 70 74 74 66 70
38 26 21 19 17 18 13 18 20 39 48 60 64 64 62 67 74 88 85 81 82 77 70 67 90 87 86 84 82 80 76 77 79 80 78 76 75 73 72 71 73 77 76 71 71 76 70 70 76
26 17 20 20 20 15 15 14 31 53 59 57 68 76 88 83 77 77 89 80 86 78 70 71 89 86 84 82 79 78 78 79 79 78 77 76 74 72 72 71 70 71 73 72 74 70 70 76 82
18 15 15 18 19 15 14 15 62 55 50 51 59 75 79 86 90 84 78 76 83 79 80 87 89 86 82 80 79 79 80 80 79 76 76 75 74 72 72 72 70 69 69 64 64 64 70 79 80
18 18 20 18 15 14 18 55 60 57 56 56 58 77 75 91 96 91 92 82 87 97 85 87 90 86 82 81 80 81 81 81 79 77 76 75 74 75 73 73 72 70 69 69 68 69 74 77 77
21 18 21 18 18 14 37 59 58 57 58 60 62 71 86 91 91 96 94 95 92 95 97 94 89 91 88 83 84 84 83 82 80 78 78 78 78 79 77 74 74 75 74 73 72 73 76 79 76
23 21 21 19 18 16 30 59 62 57 56 50 57 71 84 93 96 92 93 92 97 92 92 96 96 92 90 82 90 87 86 85 83 83 83 84 83 80 77 76 76 75 75 75 76 78 77 74 72
21 19 20 18 17 16 44 61 55 58 56 56 68 68 83 95 95 92 87 86 87 92 95 94 95 90 88 86 92 91 91 90 88 88 88 88 86 84 82 78 78 78 78 77 74 78 74 68 68
18 21 22 20 18 18 54 57 59 56 67 78 75 72 83 96 86 92 95 91 91 90 86 89 86 83 82 88 86 88 89 90 88 85 89 81 58 56 52 76 80 77 76 73 70 68 70 69 64
18 23 20 16 14 19 53 52 52 55 76 80 82 92 94 92 87 94 95 95 94 92 88 85 80 71 62 59 78 94 84 80 78 77 75 59 65 59 55 71 78 76 73 71 64 59 55 44 30
20 20 18 15 14 19 38 56 48 52 65 69 81 92 96 93 88 93 95 88 94 85 71 61 63 68 75 78 83 75 72 70 74 79 70 70 69 67 68 60 53 52 53 35 38 36 34 40 34
20 17 16 13 14 43 39 47 51 53 56 65 69 84 91 91 90 86 90 90 82 78 63 81 86 89 84 72 74 74 68 66 66 76 75 76 71 75 68 55 52 53 45 47 41 40 46 44 43
17 16 20 20 31 42 43 48 54 74 81 71 78 85 86 86 85 79 78 79 84 66 66 67 76 82 78 76 72 72 75 66 80 82 81 79 75 78 62 58 50 47 42 43 41 39 39 41 40
21 21 32 42 43 43 44 53 52 78 78 79 81 80 81 79 81 75 76 78 69 55 59 65 68 76 74 73 75 75 77 78 77 75 79 81 74 74 60 54 46 45 40 40 38 37 36 37 38
24 26 31 42 42 43 40 43 42 73 77 81 81 80 79 77 77 68 64 69 62 55 57 66 70 77 77 75 72 70 69 73 74 71 80 81 76 75 67 57 50 44 46 49 46 45 42 37 34
25 20 27 33 39 42 36 38 61 75 77 76 81 81 79 77 75 73 68 65 60 56 63 68 70 79 79 76 72 70 71 73 76 78 84 86 81 77 72 60 52 51 48 50 51 42 41 40 38
31 25 25 30 37 39 34 32 57 80 80 74 76 73 74 73 71 70 70 69 65 63 65 73 79 80 79 78 78 82 83 85 82 83 84 82 79 75 68 56 54 56 49 49 44 47 44 43 41
34 34 30 25 26 37 38 35 62 82 82 74 65 72 71 73 68 67 70 66 64 63 68 72 78 80 81 84 85 85 86 86 84 78 80 76 70 67 61 52 67 51 50 50 48 51 51 48 46
32 32 30 25 22 36 37 34 43 81 79 75 71 70 69 65 59 64 66 66 67 70 74 76 81 82 81 81 89 90 92 88 84 80 76 73 62 60 59 55 62 52 48 51 55 54 57 52 53
33 32 30 27 26 28 29 26 30 72 78 67 64 64 59 60 64 67 66 68 68 70 75 78 77 79 74 68 71 71 76 84 78 80 75 68 63 57 56 62 52 51 51 58 58 57 55 53 53
32 33 34 32 30 24 24 23 32 50 59 61 56 55 55 58 63 67 70 71 71 73 79 75 74 75 73 70 71 75 79 78 79 79 77 66 61 55 58 59 53 56 54 54 59 58 56 50 51
34 30 33 34 34 31 27 32 28 30 53 59 55 58 57 60 61 62 69 70 71 70 74 72 73 74 77 79 73 77 71 76 78 81 74 67 68 66 56 54 56 60 56 60 60 53 52 48 42
33 34 34 35 37 37 36 32 27 29 30 44 53 56 60 56 58 62 64 64 65 68 79 78 76 74 76 77 74 81 80 79 82 82 75 74 66 60 53 56 60 62 58 62 58 60 55 49 47
34 39 39 42 42 45 36 33 29 25 26 27 33 46 58 55 57 57 59 62 62 70 78 80 79 76 77 79 79 81 82 84 86 84 84 74 65 63 62 56 60 62 60 58 61 67 68 69 53
33 36 46 56 56 48 42 41 32 28 26 26 27 33 49 54 54 54 60 63 63 70 74 77 75 75 79 82 83 85 86 82 78 77 82 73 72 66 63 62 65 57 56 59 70 74 80 77 73
37 37 53 45 50 41 42 43 24 29 26 33 34 34 34 53 53 50 52 56 59 67 70 74 72 73 78 83 84 90 87 80 76 79 83 80 74 62 64 64 60 57 61 73 88 89 83 78 67
42 42 38 59 69 65 42 33 22 26 27 32 36 34 36 41 50 48 48 54 58 64 70 76 71 72 76 83 85 92 92 87 85 87 86 72 67 62 71 67 59 64 75 89 88 78 76 75 68
36 36 46 51 55 55 39 37 28 26 29 32 31 37 37 43 46 46 47 54 57 64 68 76 72 72 73 79 85 90 90 84 83 83 75 72 67 66 71 66 66 84 92 76 68 72 74 75 62
42 42 45 40 47 48 50 35 34 26 27 34 35 36 41 42 48 48 47 52 59 67 71 75 73 70 74 78 84 87 89 86 85 79 76 72 80 79 68 76 87 86 79 75 77 77 74 65 60
36 40 42 57 49 59 59 43 29 30 27 32 32 35 40 48 46 50 53 63 68 71 72 74 75 74 77 83 87 91 91 89 87 88 84 87 84 79 76 82 88 81 85 79 79 72 58 60 61

GFSSGP_sfc_rhum_060.txt.gz
RH
46 17 12 12 12 10 11 10 9 10 22 30 38 28 33 37 44 52 49 56 65 62 52 64 90 89 89 87 84 82 80 80 81 80 78 77 76 76 77 79 80 77 75 72 70 63 65 69 72
15 16 14 11 12 11 9 9 10 15 24 41 46 45 44 42 52 60 65 59 58 60 58 56 91 88 86 84 81 80 80 81 80 78 77 76 76 76 79 81 79 79 76 73 65 64 68 72 75
15 12 13 12 11 11 10 10 12 25 36 43 46 49 46 44 52 60 54 58 61 58 61 69 90 88 85 82 80 79 80 81 79 78 76 76 75 75 78 81 79 76 77 73 64 67 72 76 81
12 9 10 12 12 10 8 8 20 24 34 37 40 48 58 66 72 70 60 61 70 68 66 85 90 88 84 82 80 81 81 80 79 78 76 75 75 74 75 77 79 79 77 67 65 68 71 80 81
10 9 10 11 11 8 7 14 24 29 36 37 39 49 60 81 89 78 70 66 89 94 80 85 92 86 83 80 81 82 81 79 79 77 75 75 75 76 76 76 76 74 72 67 66 68 71 77 78
11 10 11 11 10 8 9 23 34 37 41 43 42 46 66 74 86 91 90 96 95 97 98 97 93 90 86 81 79 83 81 80 79 78 77 77 77 78 78 76 76 76 77 76 75 75 74 74 71
14 13 12 12 10 11 14 34 38 40 41 38 37 43 71 91 92 91 90 90 93 94 95 95 94 90 84 85 81 80 85 84 82 81 82 83 82 80 79 78 76 76 75 75 74 77 77 72 69
10 11 13 11 10 15 18 34 40 43 37 38 40 45 64 95 89 84 90 90 92 90 89 93 92 90 89 79 84 86 90 90 89 88 86 84 83 82 81 79 78 78 77 75 71 74 73 70 68
11 12 12 12 13 16 24 30 47 41 39 46 49 46 53 92 80 79 93 96 94 93 89 87 80 80 85 85 86 84 90 89 86 82 82 71 47 45 48 71 82 79 78 76 70 68 66 67 64
12 13 12 10 10 12 13 27 36 41 42 46 66 82 87 91 79 78 91 95 96 96 91 82 75 80 80 71 74 74 73 61 66 59 56 42 49 43 46 67 80 78 75 69 63 59 60 45 23
13 12 12 11 11 10 11 23 23 32 30 36 52 86 90 88 81 84 87 86 88 85 77 78 76 73 65 64 71 66 63 68 65 65 51 52 48 50 46 49 44 46 54 33 36 35 27 32 26
15 12 12 12 12 13 16 20 31 31 38 42 48 74 88 89 89 86 87 87 83 82 77 73 60 62 62 59 60 61 51 57 53 54 54 53 48 52 49 42 42 42 36 39 36 34 38 35 32
16 13 14 15 21 19 28 27 32 38 46 50 62 80 82 82 73 72 75 80 78 66 63 62 83 83 67 58 49 50 52 52 50 52 54 49 49 55 48 46 41 39 38 37 35 34 30 32 30
16 15 16 23 24 28 30 33 34 42 51 60 72 76 75 78 67 63 78 83 76 59 73 74 67 60 51 50 57 53 49 48 51 49 52 59 52 57 50 49 42 40 36 33 32 31 29 27 28
18 19 17 25 26 29 28 31 30 39 55 69 71 70 69 69 58 52 74 63 51 50 49 55 49 54 53 50 53 48 46 46 43 48 62 58 56 59 54 47 44 40 38 40 37 34 31 27 23
18 18 17 24 26 31 30 25 28 41 48 54 67 62 67 66 55 45 51 48 41 39 44 47 44 52 55 51 48 43 43 45 43 48 57 67 59 58 58 54 49 42 40 36 36 33 30 28 25
16 17 16 26 26 27 28 23 32 45 44 39 48 50 54 58 51 47 48 46 40 40 42 46 48 50 58 58 47 49 52 47 44 50 54 67 68 69 64 52 49 49 40 41 37 36 34 32 29
16 19 16 16 22 27 24 20 26 44 42 39 37 41 50 49 49 50 48 46 38 41 45 44 46 53 62 60 58 48 49 47 48 52 55 66 70 72 63 55 50 44 40 41 38 41 36 33 34
20 20 18 16 18 26 23 20 16 35 48 41 36 36 41 44 42 47 50 47 44 42 46 50 52 57 62 59 52 46 50 48 51 52 65 67 68 68 66 52 50 45 43 45 48 44 46 40 40
23 19 18 20 19 22 18 17 15 24 41 39 37 40 36 38 41 46 51 50 50 44 47 49 50 55 56 50 45 43 45 48 46 55 62 64 66 64 60 52 48 50 42 49 49 47 43 42 41
24 23 22 21 21 19 19 16 19 27 37 43 45 38 31 32 36 42 49 53 52 50 50 47 48 51 54 50 44 44 46 52 54 58 76 69 64 57 54 54 49 53 45 46 50 48 48 44 43
25 19 20 22 21 22 19 22 18 18 27 34 34 39 36 31 32 34 43 48 51 51 49 48 48 50 52 55 48 53 44 46 49 56 69 63 62 57 50 54 52 58 46 46 49 44 46 44 42
22 23 24 23 23 27 23 21 17 19 18 22 30 32 35 34 32 33 37 42 44 48 51 53 49 49 52 54 55 54 52 41 45 64 68 70 66 61 54 53 62 60 46 50 51 52 50 46 50
23 26 28 28 27 33 24 22 17 14 15 16 16 24 28 32 35 33 31 37 41 45 51 56 55 52 53 58 62 62 61 55 65 68 69 67 65 61 57 53 61 55 48 52 51 53 56 50 72
25 26 36 45 42 36 27 26 19 16 16 17 19 19 20 27 32 35 33 34 40 45 52 56 54 52 53 60 63 65 67 68 74 70 66 67 67 67 71 66 65 50 50 52 52 57 61 71 79
26 25 34 39 39 31 29 25 16 17 16 19 22 23 24 23 31 32 34 36 38 44 50 56 57 53 52 61 65 67 68 70 77 78 75 68 76 79 80 72 55 51 52 60 60 80 63 61 74
31 32 25 38 52 47 24 20 15 16 16 21 19 21 23 22 26 30 30 34 39 42 49 55 58 54 52 60 65 71 76 77 84 79 75 75 81 85 77 60 57 68 66 59 80 85 73 72 76
29 24 35 33 43 39 26 24 17 17 20 16 16 17 20 25 27 28 30 32 36 38 45 52 55 52 51 55 66 76 78 79 78 82 78 78 88 80 64 65 70 66 73 79 83 85 77 74 77
31 31 30 28 31 39 37 24 17 17 17 22 22 20 21 25 28 31 31 31 34 38 43 49 51 49 49 52 61 79 78 78 79 83 82 84 83 72 67 72 74 86 89 85 82 71 82 82 63
23 26 28 37 35 39 42 30 14 17 19 18 19 21 24 27 28 29 31 34 37 41 43 47 49 49 49 53 62 73 81 82 83 86 83 84 79 78 78 85 88 87 85 84 87 88 77 62 53

GFSSGP_sfc_rhum_063.txt.gz
RH
52 23 10 9 12 10 10 8 6 7 8 16 21 24 16 11 37 74 82 41 45 50 52 62 89 88 90 89 87 84 82 81 81 80 79 80 79 79 79 79 80 78 74 64 64 65 67 70 72
13 9 10 10 13 10 8 6 8 7 16 19 22 26 24 22 37 66 81 45 46 54 60 54 93 89 89 87 85 83 81 81 80 79 79 79 80 82 82 80 80 78 73 64 65 67 69 72 75
14 8 10 12 11 11 9 10 8 10 17 22 23 30 32 28 34 42 46 49 49 65 68 64 92 91 88 86 83 82 82 81 79 79 79 79 83 83 83 82 81 78 70 65 67 69 72 76 79
10 8 8 10 10 8 8 7 8 12 15 24 22 31 34 48 58 64 50 50 53 64 74 88 92 89 86 84 83 82 82 80 79 78 78 80 83 83 82 81 80 77 71 67 68 70 73 78 80
8 8 10 9 9 8 6 7 15 20 19 22 26 30 34 57 70 79 79 68 83 88 97 91 93 90 84 83 83 82 82 81 80 78 78 79 80 82 83 83 81 75 73 68 67 69 72 74 75
10 8 10 9 10 8 6 14 19 24 25 31 29 31 45 66 75 93 90 95 91 91 92 98 94 92 86 82 83 83 83 82 80 79 79 80 80 81 81 79 77 76 76 75 73 74 71 70 71
11 10 11 10 9 9 11 19 24 25 28 27 25 32 57 78 90 95 94 93 93 94 94 98 98 91 85 84 82 81 82 82 84 84 83 84 83 81 80 81 81 80 79 77 73 74 75 69 71
9 9 10 9 10 12 16 18 22 18 25 30 26 32 40 93 90 90 91 94 95 92 96 96 95 93 92 92 85 81 81 90 89 87 86 86 84 82 80 78 78 77 76 74 72 74 72 68 65
8 10 10 10 10 14 16 16 30 29 28 31 34 37 78 85 87 89 93 95 94 97 94 93 92 88 86 89 88 88 86 88 87 83 81 71 60 52 52 76 81 81 78 73 70 69 68 69 64
9 11 10 8 8 10 9 12 18 25 18 33 47 61 80 83 81 86 91 94 96 94 97 93 90 88 80 67 77 78 72 70 58 58 60 49 59 54 56 76 83 80 77 71 68 65 69 59 24
9 11 9 9 9 9 10 11 13 24 24 43 37 70 84 83 77 86 95 90 90 86 80 79 81 80 72 77 79 79 72 66 60 60 52 60 58 62 60 59 50 53 56 34 36 39 33 32 26
12 8 8 9 9 10 11 11 16 18 30 32 44 68 82 87 81 83 91 92 92 88 88 90 87 89 81 73 73 68 69 63 57 52 61 61 59 60 56 44 44 45 38 40 38 36 39 34 31
12 10 9 9 10 14 14 15 17 23 32 45 60 73 83 80 81 77 82 83 85 87 88 89 86 93 81 71 68 65 62 51 52 51 58 58 55 60 49 48 46 44 39 40 39 39 34 33 30
11 12 10 10 13 15 17 16 24 28 34 56 67 73 75 72 73 71 85 84 78 80 76 73 74 72 64 60 50 50 46 44 50 51 55 61 53 59 49 51 43 41 40 38 37 35 33 28 30
13 14 12 11 13 13 16 19 57 31 38 51 56 60 62 65 59 67 84 90 75 70 81 84 70 67 64 56 51 45 42 41 46 45 53 54 54 58 54 49 45 43 40 41 38 37 32 29 24
13 13 15 16 13 15 18 57 63 28 37 46 44 44 49 43 40 55 66 60 53 57 58 52 40 51 52 48 45 40 39 44 47 44 48 57 52 57 54 48 50 50 44 41 40 37 35 30 27
13 14 20 24 13 17 17 37 46 21 28 36 36 38 45 43 34 42 55 43 40 41 44 51 44 45 44 45 45 46 53 46 40 42 46 57 54 56 55 52 53 53 44 43 41 39 38 33 30
15 12 14 12 20 15 16 17 28 24 24 27 30 34 38 40 34 37 38 34 34 37 41 42 44 46 47 50 47 40 42 40 38 40 40 55 65 66 63 54 57 54 44 45 43 44 38 34 33
17 14 13 13 13 17 18 21 15 24 24 27 28 29 35 34 32 35 38 38 36 40 43 42 44 46 47 45 44 39 42 40 40 40 44 53 65 70 68 56 56 55 47 47 49 47 46 39 40
18 17 14 14 14 16 16 19 16 15 25 23 26 25 31 33 33 35 38 40 38 40 42 41 39 41 43 41 40 35 34 34 36 39 45 57 68 66 66 62 56 58 47 52 55 53 46 42 43
19 19 23 21 22 14 15 16 14 14 20 24 24 24 27 29 32 36 37 42 42 40 42 40 38 39 42 40 37 34 34 35 39 39 44 63 67 63 65 63 60 60 52 55 61 54 49 45 45
23 15 16 17 18 22 23 29 25 14 18 23 27 31 29 25 27 32 38 42 45 42 40 38 38 37 39 43 39 42 36 36 37 42 41 60 64 65 59 59 59 58 54 60 61 51 50 49 48
20 19 18 18 21 23 20 17 30 14 12 15 22 30 26 23 24 26 32 36 38 42 43 43 39 38 38 42 45 43 44 38 37 41 47 70 70 63 64 64 70 65 56 62 68 63 53 47 45
16 20 20 20 22 36 22 20 24 16 12 10 11 18 23 23 21 22 24 30 33 37 43 45 43 39 40 42 48 50 51 49 39 40 57 67 68 65 64 59 69 68 68 74 71 62 56 51 53
19 23 33 43 53 39 26 19 22 22 12 12 13 12 17 21 25 24 22 26 31 36 41 44 44 42 42 46 48 53 53 54 54 50 62 68 69 74 71 68 72 71 80 77 70 58 58 72 63
23 22 36 54 48 53 20 21 17 12 11 12 14 15 16 17 21 24 25 24 28 34 38 43 43 46 43 52 52 54 57 54 56 75 88 79 80 74 69 67 70 83 84 79 68 59 78 69 80
24 27 22 33 30 38 20 15 12 11 11 13 14 15 16 17 17 20 23 26 26 30 38 45 43 42 44 49 53 58 61 62 61 68 69 83 78 77 79 81 82 90 90 74 72 86 84 89 91
25 19 31 27 46 43 22 19 18 15 16 12 13 13 13 17 19 20 22 26 28 29 36 42 45 43 44 46 57 64 70 74 73 76 75 79 74 76 82 86 90 87 76 83 83 88 90 89 84
24 28 25 30 39 41 35 22 15 14 14 15 15 13 14 16 20 23 23 23 24 28 33 39 42 45 46 45 57 70 77 81 84 82 83 80 76 76 84 83 82 84 92 90 85 84 88 89 89
18 22 23 36 31 29 36 28 13 13 13 14 14 14 14 18 18 21 25 26 27 29 31 36 41 44 43 44 48 75 75 82 90 91 91 87 89 86 80 80 92 91 90 93 90 90 87 88 85

GFSSGP_sfc_rhum_066.txt.gz
RH
48 28 22 16 15 14 14 10 6 7 9 32 26 36 43 18 26 42 64 78 86 89 74 78 90 89 90 90 89 86 83 82 83 82 83 82 83 84 84 82 77 74 70 65 67 67 67 67 67
21 20 15 12 17 17 12 8 10 8 12 26 30 28 22 20 42 56 65 62 74 86 73 74 92 90 90 89 87 84 82 82 82 82 82 81 82 82 83 81 76 73 71 67 66 67 68 68 70
28 12 12 14 16 15 12 9 8 8 8 14 15 22 20 40 52 60 58 60 59 74 62 78 90 90 90 88 85 83 83 82 81 81 81 81 82 82 84 81 74 73 72 67 67 69 71 72 78
14 11 10 13 12 9 8 9 6 8 16 41 36 31 41 66 71 77 73 62 72 78 75 95 92 90 88 86 84 84 82 82 82 82 82 84 84 83 84 79 75 75 72 68 68 70 71 76 77
12 10 12 12 9 8 8 6 10 33 42 58 60 39 81 83 76 80 84 86 94 93 97 95 95 94 87 85 85 83 84 83 83 84 85 85 85 83 84 79 77 76 73 68 69 70 71 73 75
12 10 14 12 10 10 8 9 15 36 36 49 66 61 73 80 88 95 88 94 93 96 94 94 92 97 95 89 89 86 84 84 84 84 85 86 86 85 83 80 78 78 77 75 72 72 70 70 71
13 12 12 10 10 9 16 15 18 22 22 44 53 63 84 95 96 95 94 92 93 94 95 94 95 96 95 95 89 81 85 85 86 86 86 86 85 83 82 81 81 80 79 76 72 72 74 68 67
9 10 11 10 10 14 19 15 18 17 16 18 40 50 82 94 94 92 94 95 96 94 94 94 92 92 94 94 92 86 91 90 90 89 87 85 85 85 84 83 82 81 78 74 72 73 72 66 64
8 12 12 11 13 20 22 20 17 19 17 37 60 72 86 92 85 92 96 97 97 97 96 94 92 92 91 92 87 89 89 88 87 84 82 78 71 72 67 81 82 81 80 77 72 70 70 64 59
9 12 11 10 8 10 10 12 12 23 43 49 56 67 85 85 82 90 95 97 97 97 97 95 92 91 85 83 75 82 79 83 74 69 70 63 69 69 74 84 83 81 79 76 74 71 68 59 42
10 12 9 8 8 9 10 10 12 14 52 61 66 63 86 85 87 87 95 93 94 94 95 96 96 95 84 80 68 74 74 78 72 73 66 70 73 77 80 78 73 75 69 53 58 62 51 48 46
11 9 8 8 8 9 11 10 12 25 46 44 48 71 81 84 91 90 92 93 90 90 92 92 92 92 94 93 92 89 87 72 68 72 72 73 73 74 73 69 68 67 62 56 58 64 55 48 45
10 10 8 8 8 9 11 14 14 47 46 50 63 72 84 82 84 86 87 89 89 93 93 93 93 95 92 94 93 89 84 68 72 70 70 70 71 74 71 71 65 62 64 63 65 58 52 49 44
10 11 10 9 9 10 12 16 35 57 84 59 62 70 69 71 75 88 88 90 88 92 94 94 94 96 90 94 93 88 75 75 69 72 76 75 73 78 69 74 67 68 64 63 60 60 55 52 46
12 14 11 10 10 12 11 17 44 54 69 59 63 62 62 63 69 84 83 87 88 90 91 93 89 91 86 74 64 61 58 60 69 71 74 72 74 75 74 74 72 67 65 63 64 55 55 50 45
14 15 16 11 12 14 14 26 44 46 50 49 50 53 56 56 60 81 77 78 78 78 84 84 73 71 76 62 52 57 54 61 66 70 74 74 71 74 74 74 74 70 71 64 64 61 56 57 51
15 17 14 13 14 15 20 37 55 48 42 53 41 44 43 49 60 69 68 66 66 69 74 68 66 75 78 67 57 63 66 68 60 69 70 75 72 75 76 76 76 72 71 71 65 65 66 58 52
19 18 16 14 16 16 15 54 59 51 47 47 34 41 41 45 56 58 57 55 54 58 57 52 57 65 66 65 70 65 65 64 63 63 62 70 70 76 77 77 78 73 72 72 67 68 62 62 56
16 16 17 16 15 18 17 18 38 44 33 35 31 37 42 37 40 55 51 48 52 54 58 55 56 62 62 59 62 59 66 59 59 52 59 72 75 80 81 81 80 77 74 72 71 73 68 64 62
18 18 16 14 15 15 14 16 27 30 21 21 26 31 35 35 38 41 42 47 52 52 56 54 53 56 53 53 52 53 55 55 52 58 57 68 78 80 80 84 77 75 74 76 77 72 74 68 70
18 17 21 24 17 15 17 17 18 15 19 18 22 23 32 33 36 41 45 47 50 54 55 50 49 50 52 50 48 48 50 53 52 53 62 70 80 80 78 81 83 78 75 76 77 75 72 65 71
21 14 18 17 19 22 22 34 26 20 17 21 21 25 27 30 31 36 42 48 49 51 51 47 46 45 49 53 49 54 46 47 54 61 56 66 77 79 73 78 84 83 82 78 76 70 70 70 70
20 20 22 18 19 22 24 34 24 19 17 17 22 27 30 31 32 36 38 43 44 47 51 51 48 44 45 49 54 55 58 56 52 60 61 74 80 82 76 79 84 85 87 88 86 75 74 74 73
15 18 21 22 23 35 22 26 29 22 23 15 20 26 30 29 29 31 36 39 43 45 50 52 51 46 46 50 56 63 62 61 58 62 66 81 82 83 81 76 84 86 90 90 93 91 89 96 88
18 23 38 48 48 45 22 25 26 27 20 16 13 24 28 27 27 28 32 38 42 48 52 53 49 47 48 55 59 60 67 70 66 61 64 84 85 85 86 85 90 87 85 88 90 96 95 89 88
22 23 41 60 84 63 42 29 17 17 13 12 12 16 18 24 27 26 26 35 39 45 50 52 50 49 47 53 58 63 62 66 65 66 83 82 86 90 89 85 83 83 91 95 97 98 97 95 94
24 31 22 59 60 74 51 25 14 13 11 12 13 16 18 20 22 27 27 30 37 41 49 55 51 49 48 53 58 63 66 64 67 72 83 88 90 87 88 87 88 90 94 95 96 96 95 96 95
18 20 33 35 74 49 22 21 22 18 15 14 13 17 18 21 23 23 25 31 30 38 45 52 52 48 50 52 60 62 68 72 73 85 87 90 92 88 89 89 90 93 95 92 93 97 97 94 95
21 28 32 25 30 53 58 36 35 22 16 16 17 16 20 22 25 26 27 30 30 33 37 48 48 46 48 51 57 64 74 87 91 95 93 91 92 92 93 92 94 92 93 93 96 96 94 93 93
17 23 28 44 40 42 60 37 28 26 15 17 16 16 19 19 21 26 29 30 32 35 36 45 48 48 50 55 69 76 88 93 93 97 96 96 98 96 94 91 89 91 93 95 96 94 90 88 90

GFSSGP_sfc_rhum_069.txt.gz
RH
71 58 48 36 36 33 31 21 15 13 21 36 36 32 35 33 44 75 80 81 87 78 82 94 93 90 91 90 87 86 84 83 83 83 83 86 86 84 81 78 76 74 70 66 64 60 60 65 69
43 30 36 36 33 38 28 17 15 16 32 36 30 30 28 73 60 76 88 81 79 82 85 86 87 89 90 89 86 84 84 83 84 83 85 86 85 82 78 76 76 75 70 64 62 60 64 70 72
44 28 35 29 35 34 25 15 12 33 43 42 45 38 75 92 77 86 86 75 70 76 72 62 94 94 90 88 85 84 84 84 83 83 84 85 84 80 78 77 76 74 69 65 62 62 67 69 75
26 26 23 24 24 18 17 11 30 31 39 45 50 61 74 81 83 92 87 66 90 93 90 94 91 91 90 87 85 84 84 84 83 83 83 85 84 79 78 78 77 75 69 65 64 63 66 73 75
33 29 30 28 21 15 11 12 26 36 41 58 54 63 67 80 84 90 90 93 98 97 94 92 95 96 93 87 85 84 84 84 84 84 84 85 83 80 80 80 78 76 71 66 66 65 65 71 72
32 23 28 25 19 12 18 21 25 36 35 57 46 62 79 82 85 95 93 96 95 96 97 96 88 86 92 99 85 85 86 85 87 86 86 86 83 82 82 80 79 78 76 73 69 69 66 69 67
26 29 28 21 15 13 24 20 30 34 40 54 56 67 84 86 93 94 95 95 95 95 96 94 93 90 92 96 96 91 87 90 89 88 86 88 84 83 82 82 81 80 79 73 70 70 71 68 66
21 22 21 16 15 20 25 21 23 23 53 51 57 78 88 95 94 94 94 96 97 96 96 95 94 93 94 95 94 93 80 92 90 89 88 86 86 85 84 83 82 80 77 71 68 71 67 61 59
20 22 22 18 16 24 28 26 27 26 39 50 73 77 81 92 91 96 98 98 98 98 96 95 94 94 94 93 90 89 78 90 91 89 87 84 81 79 78 83 82 81 79 76 70 68 63 58 53
22 24 18 12 12 14 19 24 22 34 46 52 88 89 91 91 92 94 97 94 98 98 98 95 92 92 86 83 88 90 91 93 86 82 81 74 79 80 78 83 83 82 80 78 73 67 64 51 45
19 17 12 12 10 14 16 14 53 39 66 94 60 94 94 89 87 92 96 96 97 97 96 94 92 91 82 78 78 80 93 90 79 75 68 80 83 81 84 80 81 84 74 66 67 61 54 53 52
21 13 13 11 10 13 14 22 82 84 84 70 65 88 89 92 90 92 95 95 94 96 97 96 94 93 87 84 76 86 92 79 80 76 82 82 81 78 76 76 75 66 64 57 62 67 54 49 44
16 15 12 12 11 13 11 47 61 76 64 68 70 79 88 90 89 86 88 90 91 94 96 97 93 93 93 93 95 93 93 74 79 74 82 87 79 75 74 75 73 67 63 58 70 56 52 48 44
16 16 16 14 14 13 14 40 48 76 58 54 70 79 88 86 87 91 92 93 94 94 96 95 93 94 92 90 90 92 89 76 79 77 79 80 82 71 78 79 70 70 67 68 62 58 55 52 46
19 23 19 17 15 14 14 36 56 64 53 61 71 69 83 80 84 91 89 91 90 91 91 94 94 91 86 82 81 83 84 76 77 79 79 78 83 77 82 78 75 74 68 66 63 63 58 56 46
25 24 29 18 16 14 20 45 55 69 68 78 74 74 72 78 85 84 83 85 85 90 87 85 81 80 87 87 76 70 70 73 74 80 82 80 80 78 80 74 78 74 75 72 67 63 61 58 54
32 34 27 20 14 18 24 62 51 49 53 59 69 70 68 87 90 82 83 84 85 86 85 86 83 84 87 74 66 65 67 74 74 84 81 79 80 78 82 79 81 76 75 73 65 66 62 64 60
36 29 23 24 23 22 36 48 54 50 46 59 82 73 67 89 92 83 83 79 78 81 81 76 75 78 79 70 71 81 78 78 75 83 79 80 82 79 80 86 82 76 75 75 75 67 75 66 57
25 25 25 21 18 24 28 44 52 48 54 76 77 78 71 72 75 77 76 74 76 81 77 68 73 72 79 78 72 76 73 79 80 78 75 84 81 85 86 90 85 81 75 77 72 72 74 70 68
24 26 27 22 20 25 23 24 49 53 54 52 66 66 63 68 74 72 71 71 73 67 63 62 62 62 72 65 68 74 68 77 73 71 73 77 85 87 88 90 89 85 80 83 76 76 79 67 72
24 27 28 28 25 24 26 28 49 37 41 45 47 48 48 70 72 68 62 67 66 58 59 55 59 62 65 58 66 70 77 76 69 73 64 88 83 84 89 92 94 86 87 82 86 80 80 69 75
27 21 21 28 31 38 28 43 33 28 32 31 37 48 47 60 63 62 58 63 63 61 60 56 55 58 62 61 58 61 57 65 63 66 72 85 83 88 87 87 90 89 84 88 90 84 85 80 82
25 25 28 30 35 37 34 53 47 36 29 31 34 44 44 48 50 51 54 56 56 55 60 57 56 55 56 57 57 59 59 59 67 70 64 88 87 85 86 88 92 94 88 88 88 90 87 97 98
19 28 31 34 37 52 36 53 58 39 26 26 31 37 40 42 48 48 47 49 53 52 54 53 55 53 52 54 58 58 56 63 62 68 70 81 91 89 87 84 88 92 90 89 95 97 96 99 98
24 33 56 68 72 65 40 48 42 32 27 25 26 36 33 36 43 45 52 49 49 54 54 52 52 53 51 52 55 63 60 72 60 68 68 91 91 86 86 88 95 93 94 95 95 96 98 97 97
30 34 63 66 84 75 51 50 31 26 24 20 23 30 36 33 35 42 44 50 48 48 52 52 51 54 51 54 53 58 63 64 79 66 75 83 85 86 93 94 94 94 94 95 96 98 98 95 97
34 39 35 73 79 93 73 43 24 24 22 19 19 27 36 37 33 36 42 43 48 48 50 55 51 51 52 54 68 60 60 74 65 65 86 84 88 94 96 95 95 95 96 96 97 98 98 97 98
26 27 48 66 97 97 57 50 38 41 30 20 19 23 28 30 35 34 34 45 44 47 51 54 54 52 50 53 57 69 68 74 80 77 95 94 97 98 98 98 96 96 97 97 96 97 96 96 96
30 30 40 48 64 76 73 61 44 36 28 20 26 24 29 31 30 34 38 41 42 45 48 54 54 53 53 52 63 62 85 90 93 97 97 98 98 96 96 95 96 97 96 95 95 96 96 93 93
22 30 42 70 56 64 78 62 30 33 25 25 22 22 25 31 32 33 38 44 55 44 46 53 56 53 53 57 68 77 96 96 98 98 97 97 95 95 96 96 96 95 95 95 95 95 93 92 92

GFSSGP_sfc_rhum_072.txt.gz
RH
75 62 50 37 31 36 38 26 23 19 18 39 36 39 87 90 83 86 83 84 85 88 91 88 91 90 89 85 87 85 84 82 82 85 87 86 83 81 79 77 75 72 67 61 67 69 70 71 70
48 38 41 40 38 43 35 25 24 32 39 39 36 54 74 93 80 82 88 82 74 87 91 90 85 84 81 91 87 85 84 82 83 86 86 85 82 80 78 78 75 72 66 60 65 68 69 66 69
39 32 38 39 44 42 36 24 19 47 42 40 42 70 76 65 79 86 87 81 84 87 87 86 87 78 86 90 90 85 84 82 85 86 85 83 81 79 79 78 75 71 65 59 65 67 66 67 75
28 29 29 30 30 24 24 16 15 46 50 51 54 70 84 76 84 88 87 80 87 90 87 81 83 84 87 89 92 87 84 84 86 86 84 81 80 80 79 78 74 71 65 61 64 65 66 71 76
37 33 35 41 28 23 16 14 16 36 52 56 53 71 68 79 88 93 92 91 96 98 98 95 91 89 92 92 96 92 84 86 86 86 82 81 81 81 80 78 76 72 68 62 62 63 70 71 76
40 32 37 40 28 21 16 22 34 38 48 57 55 70 80 80 88 91 93 97 97 98 98 96 93 91 92 90 90 94 86 86 87 87 82 81 82 82 81 80 78 76 74 70 66 69 70 70 74
39 34 38 34 24 17 22 22 36 38 48 62 59 69 81 79 96 96 96 95 97 97 97 97 96 92 88 90 96 93 88 88 88 86 83 84 84 83 82 81 80 77 73 70 68 69 69 68 67
30 30 37 29 23 20 15 23 28 38 70 64 73 83 72 95 95 93 96 97 96 96 97 97 96 95 94 91 94 95 87 85 89 85 88 87 86 84 84 82 81 78 74 70 68 66 67 65 68
22 32 34 28 21 17 20 25 36 46 52 73 82 90 94 91 92 95 96 97 98 97 98 97 96 94 93 93 92 91 91 83 91 90 89 86 82 81 78 82 81 79 76 71 68 68 66 63 67
26 32 27 19 15 17 19 32 37 68 88 81 83 90 95 95 92 95 94 98 98 98 98 97 94 91 84 83 90 92 90 97 93 92 91 87 82 79 79 83 82 80 77 71 67 69 67 57 49
27 27 20 17 15 15 16 58 67 71 93 87 76 89 93 92 93 92 95 96 97 97 96 94 94 90 83 80 76 88 95 98 96 87 87 83 84 84 85 82 85 82 73 64 59 56 61 51 51
24 18 17 15 14 14 17 68 66 84 69 73 69 83 89 94 92 92 97 97 97 97 95 93 92 91 89 78 77 85 89 91 86 85 84 85 89 89 87 78 78 68 63 60 62 68 56 52 46
21 17 17 16 16 15 21 54 66 72 70 72 83 90 95 97 90 89 91 92 96 97 97 96 93 88 89 86 86 84 94 77 76 82 83 79 81 82 82 77 71 63 60 65 67 57 53 50 46
19 22 23 21 17 17 25 60 57 62 63 72 86 92 96 94 89 93 93 95 93 94 96 96 91 88 86 89 91 90 82 80 73 81 84 85 79 78 74 70 68 69 62 70 62 56 52 51 47
24 27 25 22 21 19 30 45 61 63 65 78 84 90 91 91 91 93 91 93 92 94 94 95 95 93 88 86 85 81 67 80 72 78 81 82 79 82 78 76 80 75 72 71 64 62 59 55 46
28 33 34 23 21 17 19 27 54 67 62 84 86 83 88 89 94 92 86 86 88 92 95 89 89 92 88 79 76 77 75 77 72 79 82 83 79 82 83 72 79 79 76 74 71 68 66 61 55
42 42 36 29 20 20 23 37 54 73 73 82 82 81 85 91 87 85 83 84 86 88 92 90 89 86 82 73 82 79 76 78 75 82 85 87 80 81 83 78 83 83 82 80 72 72 66 66 62
45 39 44 34 23 25 42 45 57 66 67 79 85 82 82 93 89 80 81 80 83 86 84 90 82 82 78 78 77 80 75 77 79 84 84 82 84 86 83 85 87 84 81 78 73 67 74 68 66
33 34 36 28 21 26 32 47 55 62 63 77 83 82 82 97 90 86 90 90 88 82 82 82 80 80 83 70 73 72 72 88 87 89 80 88 88 87 89 90 88 85 75 75 75 74 73 79 70
32 35 35 27 22 25 26 27 53 61 58 63 72 79 81 89 97 89 90 90 92 91 87 83 82 83 84 74 66 69 77 85 73 82 84 81 88 90 89 92 86 86 80 81 82 78 86 79 78
31 34 33 29 27 30 32 37 59 46 54 56 59 55 72 81 95 88 86 88 90 89 87 74 75 74 73 77 73 82 84 81 80 83 82 86 85 84 86 89 89 85 88 84 87 82 79 83 84
35 26 26 27 37 42 32 44 50 46 47 50 54 61 64 74 79 81 80 85 86 80 75 65 63 61 68 76 62 71 61 68 63 75 76 84 87 85 84 87 92 93 91 91 90 86 87 86 87
32 29 29 30 38 43 40 51 44 40 39 42 50 54 60 69 75 79 73 74 74 65 64 60 60 59 61 68 61 70 71 73 79 80 78 81 91 87 85 91 94 95 91 89 94 95 93 92 94
24 29 35 40 43 55 43 51 53 48 36 35 45 50 55 66 70 70 64 63 58 54 56 59 60 59 61 68 65 66 65 76 78 75 76 88 92 90 89 89 91 93 95 94 96 95 94 96 97
27 36 55 61 70 65 49 55 44 31 33 30 43 48 52 64 70 69 64 63 59 58 56 60 63 62 62 66 66 66 64 81 67 69 69 75 86 92 91 93 95 97 96 97 96 95 97 98 97
32 36 60 59 74 68 61 55 42 30 26 27 31 43 47 58 59 64 62 59 60 60 60 61 60 61 60 63 62 64 68 62 73 62 66 72 75 82 86 91 95 96 96 96 97 98 98 98 98
33 43 36 74 83 87 69 58 37 30 29 25 30 39 46 50 53 54 54 55 55 57 60 63 61 58 58 59 59 59 67 70 68 71 72 79 89 86 94 95 96 97 96 95 96 98 98 98 98
30 32 61 69 82 88 69 65 52 37 31 26 32 48 41 42 49 50 51 52 52 54 56 58 58 56 55 55 57 57 58 77 75 84 92 92 96 97 97 98 97 97 97 97 97 98 98 97 98
35 37 48 55 70 83 80 60 47 40 29 25 25 32 37 41 44 44 48 50 51 48 51 55 55 54 58 56 58 59 63 64 82 91 97 98 98 98 98 98 97 97 98 98 97 97 98 97 97
30 30 39 72 76 75 77 58 36 37 27 28 29 30 35 36 40 41 42 47 50 51 51 50 54 54 64 85 89 91 90 91 92 93 98 97 98 98 98 97 98 98 97 97 97 98 95 94 94

GFSSGP_sfc_rhum_075.txt.gz
RH
75 70 52 35 30 38 47 32 26 21 25 44 39 67 78 93 73 72 87 89 88 93 95 93 94 91 89 88 88 86 86 85 84 84 84 84 83 82 80 77 75 74 73 69 69 70 72 72 74
54 44 40 37 39 43 34 29 24 25 41 41 51 74 77 93 83 80 89 82 81 88 93 92 93 91 87 88 87 85 83 85 86 85 84 83 82 80 78 75 73 75 74 70 70 70 71 73 77
40 35 35 42 48 43 37 26 20 39 42 47 50 76 73 78 83 90 92 91 86 90 90 93 93 90 84 87 82 84 84 84 85 85 83 82 80 79 77 74 72 74 73 69 66 65 72 78 79
30 30 30 34 35 29 29 21 18 37 50 52 57 66 82 77 90 87 91 89 86 92 89 91 92 92 89 83 82 82 86 86 86 85 83 81 80 79 77 73 71 73 73 66 62 66 75 81 80
39 35 38 44 35 26 21 18 17 25 45 54 58 59 74 84 92 92 89 90 96 95 97 89 89 87 84 85 82 83 86 92 90 85 82 81 81 79 77 74 72 74 72 65 66 75 82 81 79
38 33 41 44 33 25 20 17 33 32 46 55 65 77 80 93 88 97 93 97 98 98 98 94 85 86 87 87 84 86 88 87 91 84 82 82 82 80 78 76 74 74 73 71 72 80 80 79 76
37 39 42 40 32 27 21 23 34 45 56 64 63 66 88 95 99 96 96 97 97 98 98 97 95 93 90 91 88 89 93 90 91 84 83 84 84 82 80 79 77 75 71 70 69 75 80 78 76
35 36 58 39 33 27 20 25 45 55 64 67 79 75 73 91 91 96 96 97 97 98 98 99 98 96 96 94 95 92 92 89 83 82 87 87 86 84 82 80 76 72 67 67 68 71 76 79 79
28 36 42 33 30 22 19 30 48 59 62 87 85 92 94 90 92 96 98 98 98 98 98 98 98 97 96 94 92 95 92 91 87 83 89 87 85 84 85 80 77 72 68 70 67 70 82 81 80
30 37 31 25 22 20 19 39 48 68 82 76 88 92 92 94 96 95 97 98 99 99 99 98 97 94 89 83 89 92 95 96 89 81 89 88 86 87 83 80 76 72 69 70 72 67 70 70 73
30 31 26 20 20 22 21 45 62 70 82 69 78 87 99 93 93 94 95 95 97 97 98 97 95 93 87 86 82 88 97 99 99 94 89 82 86 88 85 83 75 71 63 55 57 50 45 49 63
28 22 21 18 17 22 20 48 60 71 50 76 73 88 88 87 92 93 97 98 97 97 97 96 92 92 87 81 80 86 96 98 99 95 82 85 88 89 88 83 78 72 67 62 64 58 56 51 61
25 21 18 18 19 24 46 55 52 66 73 76 84 92 87 90 90 89 91 95 96 97 96 95 93 95 90 86 87 90 94 95 96 92 81 78 79 81 82 78 71 69 66 68 64 57 53 51 50
24 21 25 26 24 24 38 60 69 52 73 72 95 88 85 84 89 95 96 97 97 96 97 96 92 94 87 88 88 84 92 84 89 90 82 80 78 78 77 74 68 67 69 72 63 56 54 52 50
26 28 29 26 25 23 40 54 65 54 69 77 98 96 91 97 90 87 90 95 93 94 94 96 90 91 86 81 81 86 79 78 75 81 82 81 81 81 76 78 75 71 72 70 64 59 58 54 47
30 36 38 28 24 23 22 33 30 65 74 84 96 97 98 97 90 86 93 88 88 91 95 93 90 89 93 81 80 82 84 75 75 80 81 81 80 82 81 77 78 80 79 73 70 67 63 58 54
44 37 37 30 27 27 27 30 37 70 68 81 93 94 94 98 93 96 92 87 88 90 92 92 92 92 95 94 82 89 85 76 79 82 79 78 81 84 79 80 82 84 81 77 70 71 66 63 62
41 43 51 39 29 29 33 31 51 75 82 85 93 92 95 98 97 91 90 85 84 88 90 92 95 94 92 89 90 87 81 83 85 80 83 88 81 86 88 87 86 85 83 82 77 70 72 68 65
36 40 41 34 27 33 32 38 47 68 82 82 92 92 94 95 96 91 85 84 85 88 89 92 93 91 87 88 87 85 82 85 87 83 86 90 85 85 88 91 90 88 79 77 75 74 71 78 74
38 41 39 33 28 32 32 30 44 64 65 65 76 91 92 98 90 97 98 87 88 91 85 88 86 83 77 71 74 72 75 82 83 92 89 86 92 90 89 90 88 87 81 83 82 78 84 80 78
39 40 38 36 32 32 35 36 54 52 61 60 62 75 83 96 93 97 97 97 84 93 88 88 87 86 81 64 68 76 74 79 86 92 94 91 90 92 90 92 92 92 89 85 86 81 80 84 83
40 30 32 35 41 46 37 50 41 53 59 60 58 68 81 93 94 92 95 98 97 94 94 86 85 84 84 81 70 74 78 78 81 84 86 91 92 91 93 93 94 93 91 92 85 85 87 88 93
36 31 36 37 44 47 47 51 42 50 52 50 49 52 65 84 92 91 90 90 92 91 93 85 81 76 74 74 76 78 77 77 80 84 84 86 93 92 90 92 94 94 93 86 90 93 93 92 94
30 38 40 47 47 60 45 49 52 46 40 37 36 44 57 77 87 82 79 81 88 92 88 80 76 71 68 72 83 76 84 88 89 87 84 88 87 93 93 91 94 92 92 94 93 94 95 95 95
36 42 60 62 68 66 46 60 50 36 36 33 36 46 51 65 82 85 81 81 83 84 80 74 70 67 65 70 74 78 78 86 81 79 77 82 86 92 89 94 95 93 92 95 95 97 96 97 96
41 42 66 60 69 61 63 67 47 36 34 34 32 39 46 63 74 78 78 73 72 68 68 66 64 63 60 66 70 73 70 73 77 71 71 80 81 81 88 95 92 93 95 96 97 98 97 97 97
38 48 34 73 88 88 66 53 40 34 30 35 37 50 61 62 72 73 72 69 65 59 60 62 60 58 58 63 67 70 74 71 69 76 80 81 88 81 94 94 94 96 98 98 98 98 98 98 98
30 37 53 70 84 82 66 70 55 41 33 28 39 51 55 56 65 68 68 67 63 57 56 57 60 60 60 61 65 68 71 78 76 85 88 85 89 95 98 98 98 99 99 98 98 99 98 98 99
41 45 56 58 68 71 82 64 52 45 36 28 35 48 54 56 60 60 63 62 60 61 62 62 59 63 66 63 66 73 77 78 86 88 93 95 98 98 98 97 97 99 99 98 98 98 98 98 99
32 39 54 72 78 79 80 69 40 40 38 32 26 38 50 49 51 54 55 56 60 58 59 61 61 62 73 77 80 77 74 72 79 90 95 96 95 96 96 97 95 98 98 98 98 98 98 98 99

GFSSGP_sfc_rhum_078.txt.gz
RH
75 59 50 32 26 38 48 32 30 25 34 44 58 60 68 87 64 61 88 90 89 96 90 90 90 89 89 83 85 85 86 87 85 85 85 86 84 82 80 78 77 75 72 68 68 69 69 72 74
55 46 38 37 34 39 31 32 27 22 38 48 55 78 79 81 90 86 92 90 84 93 96 94 91 86 85 81 81 81 84 84 85 86 85 85 83 80 79 78 76 75 73 66 66 70 70 72 74
44 36 34 41 49 39 34 28 22 26 37 47 51 79 78 75 87 90 89 93 90 92 93 91 91 88 90 87 92 83 83 85 86 85 84 84 82 79 78 78 77 75 74 73 73 73 75 75 78
32 32 32 35 45 32 30 23 22 22 35 52 57 56 79 82 93 90 93 90 94 92 92 94 89 86 84 82 88 89 83 84 85 84 83 82 80 78 77 79 77 76 73 68 72 77 76 79 78
38 35 39 50 39 29 24 21 23 23 44 56 57 53 72 84 96 94 96 94 94 96 96 95 92 88 81 84 83 87 87 86 83 83 82 81 79 77 77 78 78 75 71 68 76 78 77 79 77
38 35 42 43 36 27 24 22 22 31 44 59 62 74 73 94 92 94 97 95 97 98 95 94 88 88 87 85 87 88 82 83 86 85 82 81 80 77 76 79 77 73 74 78 82 80 78 77 76
36 38 43 49 34 31 26 21 31 42 57 59 62 72 84 93 93 94 96 96 98 98 98 97 94 93 90 89 89 89 86 85 85 83 84 82 81 79 78 79 77 75 81 83 82 80 79 78 77
37 39 58 44 36 31 23 27 51 53 53 72 76 78 74 93 93 95 96 97 97 98 98 99 99 98 97 97 92 86 84 83 86 86 86 86 84 82 80 78 74 74 80 82 81 80 80 79 80
32 38 46 38 32 25 21 25 54 64 72 81 83 96 90 88 94 97 98 98 98 98 98 98 98 96 96 96 96 90 88 87 94 85 85 87 83 81 79 73 72 70 73 80 82 82 80 80 80
34 41 36 28 27 24 24 26 27 65 76 67 88 90 88 93 97 97 98 99 98 99 99 98 97 96 92 87 94 94 90 93 93 86 89 88 84 77 77 72 72 72 74 80 81 83 82 79 82
34 33 29 24 22 26 26 27 47 64 67 64 66 94 94 97 96 93 96 95 98 98 98 97 96 95 88 88 90 93 95 97 96 88 89 83 82 83 83 73 68 72 71 68 76 80 74 81 82
35 26 25 21 21 25 26 41 60 68 44 74 70 91 89 93 94 93 95 96 98 98 98 96 95 93 89 82 87 95 98 95 95 95 86 85 84 80 84 75 73 69 69 61 58 60 66 75 78
28 24 22 21 22 26 32 39 52 68 58 77 89 96 85 89 89 88 87 93 94 98 98 97 95 92 91 92 93 96 97 95 95 94 82 79 77 80 74 70 64 66 68 59 59 54 60 69 73
28 24 24 28 27 28 32 49 73 46 79 88 95 95 86 87 89 91 93 95 97 94 96 95 94 92 91 94 91 92 95 96 97 94 83 77 73 74 68 64 61 64 66 64 58 54 54 63 65
30 33 30 29 26 26 34 46 70 50 82 83 97 82 78 86 83 89 90 91 91 94 94 94 94 94 88 88 86 88 89 95 96 88 86 82 75 70 65 65 65 67 70 63 61 58 57 58 53
36 38 37 29 27 26 28 38 30 44 78 85 98 86 84 82 81 78 78 84 89 92 94 92 87 92 91 82 78 89 89 94 95 90 86 81 78 73 65 62 69 73 74 67 65 63 60 59 57
46 45 38 29 28 30 28 34 31 78 74 83 99 98 89 87 84 81 81 81 87 90 94 95 92 94 94 89 92 96 95 92 90 91 84 80 80 78 70 69 76 78 80 76 69 71 64 61 59
45 46 56 42 34 35 37 35 31 64 75 78 96 97 98 93 85 84 84 86 86 88 90 93 95 94 96 97 97 98 97 96 89 87 82 78 86 84 80 80 82 86 85 80 75 70 73 66 64
36 41 45 40 32 33 35 39 31 53 85 88 93 96 97 96 95 82 85 90 88 89 92 95 95 95 95 97 98 97 94 93 93 86 82 88 82 84 82 88 88 88 83 80 79 75 71 77 72
39 43 41 35 29 32 37 34 31 60 65 80 84 95 96 97 97 91 89 90 88 91 90 92 92 92 90 83 92 96 88 92 85 89 85 79 87 88 88 90 88 88 88 86 83 77 83 80 77
43 43 42 39 37 37 39 41 36 44 62 64 67 81 92 95 88 93 91 84 89 91 90 89 86 87 83 79 91 89 90 94 90 96 94 95 93 90 88 92 91 89 91 84 86 83 79 82 87
48 37 35 38 46 52 47 55 40 36 48 60 60 73 90 95 92 87 88 84 81 88 78 83 82 84 78 75 81 83 78 81 83 90 90 96 94 94 86 88 90 90 92 92 86 84 87 87 91
41 34 38 39 48 54 48 56 45 50 42 42 47 62 78 91 95 96 92 89 83 80 93 94 89 88 84 77 68 76 84 78 82 85 88 92 94 92 93 93 95 95 92 91 92 93 90 92 94
34 41 44 52 54 70 49 54 54 45 40 37 39 45 63 87 93 92 91 93 93 93 97 96 93 89 85 82 82 76 82 80 84 87 84 86 89 94 94 93 95 94 94 95 92 93 93 93 94
42 48 66 69 79 71 48 57 41 36 34 36 35 36 49 72 94 93 94 96 97 98 98 95 88 89 82 84 81 81 76 86 78 81 78 91 90 95 94 96 97 96 94 94 94 95 95 95 93
46 47 72 64 72 62 63 62 48 39 38 37 35 34 53 78 86 88 86 86 92 92 94 90 85 82 78 81 79 78 82 76 80 83 86 91 90 90 92 94 95 94 94 95 96 94 95 98 97
43 52 41 71 88 83 67 52 40 33 36 33 36 40 52 77 86 86 82 79 82 86 86 85 81 76 73 74 76 73 86 86 84 86 88 92 92 90 91 94 95 96 96 97 98 97 98 98 98
37 40 61 72 86 86 68 69 50 38 30 34 33 47 54 67 82 82 82 78 73 73 75 78 74 72 68 67 70 71 82 88 86 87 90 89 89 90 93 95 96 97 99 99 99 98 98 99 99
45 38 55 55 66 63 72 62 51 40 42 45 36 37 50 66 79 80 78 75 71 67 68 74 72 70 69 64 66 78 87 88 89 86 83 82 84 87 88 88 93 96 98 98 98 98 99 98 98
31 42 47 65 71 79 74 49 38 42 43 45 34 30 50 61 70 74 76 75 74 68 63 65 68 67 74 75 73 77 77 78 79 78 74 76 84 88 89 94 94 94 97 98 98 98 98 98 98

GFSSGP_sfc_rhum_081.txt.gz
RH
59 35 29 20 17 21 22 19 19 18 19 22 47 44 47 58 43 40 76 78 80 88 78 80 93 92 90 89 89 88 87 86 86 84 85 85 86 84 82 80 78 75 72 66 66 66 72 71 73
40 33 25 22 18 18 17 20 19 16 18 33 62 61 58 48 68 68 78 77 77 85 89 79 93 89 87 87 90 88 87 86 85 86 86 85 84 82 80 79 77 75 72 67 66 68 71 74 76
30 25 22 24 26 17 17 18 16 16 16 23 35 56 56 54 71 73 76 78 75 82 92 86 92 88 86 86 84 83 89 90 85 86 85 84 82 81 80 78 77 75 71 65 66 69 73 76 81
22 20 22 22 21 21 19 16 17 16 27 38 37 37 57 58 72 77 78 78 80 82 91 92 92 91 87 84 83 82 85 90 86 86 84 82 81 81 80 79 76 74 73 73 68 74 77 82 80
24 22 24 26 24 21 20 17 17 17 22 39 42 32 46 64 75 76 81 85 82 87 95 93 91 88 83 78 82 85 86 97 86 85 84 82 81 81 80 79 79 78 77 74 75 76 77 80 80
25 23 24 20 22 20 18 17 17 25 27 45 44 44 46 80 73 75 85 87 92 92 93 92 89 85 84 84 84 86 90 88 89 85 83 81 81 82 82 80 78 77 79 82 81 77 76 78 77
26 25 22 24 23 22 19 16 20 22 32 35 48 40 48 75 78 82 85 89 95 96 96 95 92 80 89 88 88 87 88 88 86 84 83 81 82 82 82 79 76 78 84 83 81 80 80 78 78
23 22 30 26 23 20 17 16 31 33 23 55 48 41 46 72 77 86 87 89 95 97 97 97 98 97 95 88 89 91 90 87 91 86 83 83 82 84 80 78 82 82 85 84 82 81 81 81 81
22 26 27 26 26 18 16 18 26 47 44 55 62 67 72 79 81 89 89 92 96 96 98 98 97 95 94 92 93 89 90 88 88 90 88 85 76 74 70 74 86 85 85 82 82 82 82 83 82
22 27 25 22 20 20 19 18 16 32 44 45 66 76 74 79 87 88 90 92 96 97 98 98 94 95 94 91 86 84 86 85 85 96 88 85 78 70 66 74 84 85 83 83 82 82 83 69 55
25 23 23 19 18 17 18 18 22 34 27 33 47 64 77 80 86 82 82 84 90 94 95 96 95 94 90 84 88 88 94 95 98 96 92 86 74 69 65 70 70 74 77 62 65 67 52 56 52
25 23 20 18 18 20 19 19 29 40 22 48 42 63 76 82 80 78 80 84 86 93 94 95 94 94 96 96 89 94 96 97 98 96 86 77 68 68 66 65 68 66 65 66 64 58 62 61 55
26 22 18 18 18 18 20 21 23 37 33 61 71 74 76 77 75 74 79 78 84 92 94 96 92 89 85 87 94 97 98 97 96 93 76 69 67 70 65 65 56 60 61 63 61 59 60 58 56
23 21 19 20 22 22 23 26 48 22 42 68 83 80 71 71 70 72 81 86 92 91 93 94 91 89 83 90 96 98 98 96 97 90 74 73 67 67 61 59 57 57 50 53 58 58 56 52 50
25 27 25 22 19 19 22 30 41 29 62 71 78 75 71 67 68 66 71 86 86 90 92 94 90 87 83 88 97 96 96 95 96 86 80 70 64 60 58 56 62 59 49 57 51 55 54 52 48
27 28 29 20 22 21 22 20 23 33 55 67 76 72 67 67 66 67 69 78 81 88 94 91 86 86 86 86 95 97 94 95 94 83 75 76 66 58 56 53 59 62 60 51 48 48 50 48 47
35 26 30 22 20 21 24 23 23 46 54 58 82 73 69 72 70 68 72 75 81 86 91 93 91 86 86 90 93 96 98 96 94 79 72 75 65 62 54 51 62 67 65 59 49 48 45 44 42
34 34 32 28 22 25 24 23 20 31 50 51 62 79 82 79 73 69 75 75 79 84 89 93 92 90 89 95 97 98 97 98 94 72 64 67 62 59 56 54 73 72 68 56 52 51 53 46 41
31 30 28 26 26 26 24 24 20 22 54 56 64 71 80 86 70 70 78 79 81 87 89 94 96 93 94 97 98 98 98 97 96 86 76 72 64 62 62 58 62 70 60 62 67 58 59 53 51
31 32 30 28 26 28 24 25 22 24 30 46 53 64 69 71 84 79 82 86 85 87 88 92 91 90 89 92 96 92 96 97 92 94 86 72 69 66 60 66 60 64 59 68 66 61 56 54 53
41 40 37 33 30 25 28 28 26 24 39 47 54 51 61 67 79 87 86 92 86 88 87 92 88 86 87 92 96 95 97 97 95 92 84 72 71 63 62 66 62 66 65 64 68 65 64 56 58
40 33 36 36 37 33 29 34 29 23 24 37 45 58 60 66 69 73 82 88 87 80 86 84 86 87 85 92 92 92 81 88 81 81 69 60 71 67 62 64 67 70 68 69 70 66 65 65 67
34 31 35 35 36 37 26 33 32 32 28 24 24 46 53 60 67 71 79 74 76 75 83 86 83 82 80 81 84 86 85 77 68 70 70 75 75 70 64 67 72 74 71 73 76 77 74 74 71
32 33 35 41 40 48 34 36 34 28 27 25 24 28 48 58 65 67 70 74 75 72 77 81 82 78 75 73 75 81 78 74 76 74 69 73 72 75 76 71 73 75 76 79 80 78 77 77 75
34 40 48 58 61 44 38 43 33 29 26 25 23 22 38 56 64 70 77 85 82 79 80 84 82 81 78 76 75 74 72 73 71 70 68 71 74 76 77 79 81 81 80 80 78 80 81 80 80
40 40 45 44 52 39 44 45 30 28 27 29 28 27 31 53 63 66 69 74 80 84 83 83 82 79 78 78 75 72 70 68 66 68 66 70 68 68 71 76 76 78 76 79 80 82 82 82 86
45 48 34 52 71 65 45 41 31 27 28 26 25 27 31 47 60 63 65 69 72 78 86 85 77 73 74 76 76 74 72 69 68 70 70 72 72 67 74 74 75 75 77 79 80 86 85 86 89
34 35 51 48 53 54 46 48 30 29 26 29 33 30 31 42 59 63 63 68 67 67 73 79 75 71 70 71 72 71 71 71 68 72 74 75 74 73 73 78 74 75 76 78 82 86 84 90 94
34 40 46 40 48 46 49 43 39 31 28 36 38 31 31 45 58 63 62 62 64 64 66 72 71 68 70 68 69 71 70 70 73 75 73 73 72 70 72 72 72 74 77 83 91 93 97 97 97
28 34 36 54 60 57 50 38 29 34 33 38 32 30 27 37 52 59 63 63 64 64 63 63 64 64 71 71 72 74 74 72 73 74 71 71 69 69 71 71 73 71 80 89 97 97 98 98 98

GFSSGP_sfc_rhum_084.txt.gz
RH
47 17 14 14 13 10 10 10 10 11 12 12 17 23 25 25 21 25 56 60 66 76 57 69 93 91 91 90 89 88 88 87 87 86 84 85 85 85 83 82 81 78 74 70 72 71 65 67 72
17 20 16 12 11 9 9 10 12 11 11 15 21 34 35 23 33 43 55 60 59 74 76 65 94 92 91 91 88 88 87 87 86 85 85 86 85 84 83 81 79 76 74 67 72 72 71 73 77
20 20 14 11 9 9 9 10 11 11 11 13 18 28 29 28 41 46 57 62 57 67 84 64 92 92 91 91 88 83 80 87 85 85 85 85 84 83 81 80 77 75 72 70 71 72 74 78 81
16 13 12 11 9 10 11 10 11 12 15 14 14 23 31 39 44 54 61 60 56 56 84 84 92 90 90 84 86 82 92 86 84 84 83 84 83 82 81 79 77 75 73 70 68 74 79 82 82
13 12 11 11 9 9 11 10 12 13 14 23 21 17 26 42 48 55 58 62 60 67 89 86 92 90 87 84 88 87 90 88 86 89 92 84 82 81 82 79 76 75 74 74 73 77 78 81 82
13 12 11 9 8 8 11 10 12 14 16 24 27 24 24 47 47 56 66 71 72 71 87 92 85 90 87 84 86 87 90 89 86 86 90 83 82 82 81 78 78 79 78 81 79 80 78 79 78
14 13 10 10 9 9 10 11 13 14 15 15 24 20 27 48 52 60 67 70 81 79 83 92 86 78 88 90 89 92 92 92 93 94 91 82 84 82 83 83 82 83 83 82 80 82 81 78 78
13 12 11 10 8 9 10 11 11 15 14 27 24 17 20 47 57 57 60 68 82 88 89 92 88 84 81 84 95 88 91 88 87 92 91 89 86 84 82 82 86 86 85 83 82 83 81 80 82
14 14 12 10 11 9 10 13 12 19 20 22 26 25 38 52 55 62 76 79 82 90 91 93 94 82 87 80 90 92 89 90 90 84 88 88 77 72 70 71 87 86 85 83 84 83 83 84 83
15 14 12 9 9 12 12 12 11 12 11 15 24 34 46 53 54 54 58 58 72 76 95 95 96 91 83 76 85 88 91 91 91 92 87 87 86 73 60 77 88 86 84 84 84 84 84 68 43
13 14 10 12 11 11 11 11 10 13 14 13 16 17 41 47 50 54 53 51 58 74 90 93 96 94 94 91 90 79 83 92 92 94 92 87 92 77 70 70 70 73 68 51 58 62 40 40 37
15 12 10 9 9 11 11 10 12 12 15 12 19 23 34 46 50 52 51 52 51 73 84 87 93 92 92 88 92 86 72 91 92 98 98 92 89 75 68 58 62 62 49 52 48 42 43 43 39
18 11 11 11 12 13 12 13 13 12 12 13 25 35 38 46 46 50 47 49 52 69 80 83 87 90 94 93 86 85 91 97 96 96 94 92 91 77 66 63 62 57 52 52 47 44 44 43 40
13 14 13 12 12 13 15 12 12 13 12 18 29 30 34 44 44 48 51 52 58 62 80 86 86 86 75 86 93 93 98 97 95 95 92 90 91 71 60 56 60 58 59 51 46 46 43 37 36
17 18 14 14 14 14 12 14 12 13 20 23 27 33 35 41 43 46 47 55 62 64 78 86 86 83 78 81 94 95 98 96 94 95 88 78 70 63 57 50 53 55 56 58 48 47 41 36 32
19 19 20 13 13 12 14 14 8 10 20 21 25 34 39 42 42 43 45 50 55 67 82 83 82 83 80 92 94 94 97 94 94 90 82 65 62 55 50 49 57 50 51 54 51 45 39 36 33
18 21 18 17 12 12 15 11 10 18 19 21 25 33 37 39 42 43 52 53 54 64 81 86 84 85 84 94 93 93 94 94 93 82 65 57 56 55 52 51 52 49 49 49 41 38 38 39 34
20 21 20 19 13 14 13 13 10 11 17 20 23 34 35 37 42 45 57 56 55 65 81 86 87 87 84 97 94 95 93 95 93 69 55 53 49 56 49 44 51 40 38 40 37 41 37 35 32
18 21 20 15 15 19 16 15 11 9 15 20 25 30 35 39 40 44 60 67 65 68 87 91 92 85 84 97 97 96 94 93 94 76 70 67 45 46 45 43 47 41 42 45 49 43 46 39 38
25 24 21 16 16 20 17 15 11 10 13 15 18 26 31 38 44 49 62 66 69 68 81 92 90 91 90 85 92 91 94 90 88 80 72 66 66 52 44 48 50 50 53 58 55 53 47 42 42
28 26 23 20 17 18 20 19 15 9 13 18 21 21 25 32 42 51 60 66 68 67 76 89 86 86 86 88 95 96 91 95 94 84 76 67 62 50 47 52 52 60 50 53 57 55 52 48 46
29 19 21 23 24 24 20 21 12 14 15 16 18 26 26 30 35 47 55 65 67 66 69 80 84 81 80 84 91 94 86 86 81 74 74 71 62 56 44 47 51 55 50 52 56 50 53 53 52
26 20 19 22 26 26 24 24 15 12 16 14 13 19 25 28 34 43 51 57 58 63 66 75 82 81 80 84 88 92 91 77 74 72 72 70 70 60 50 50 54 55 50 55 56 58 61 53 56
24 27 28 28 28 37 28 21 17 14 17 15 14 14 20 26 32 37 46 55 55 62 67 73 81 82 83 81 85 86 84 83 83 76 72 55 50 50 55 48 54 56 54 57 59 62 63 63 59
26 28 36 43 44 38 19 22 20 16 16 16 14 14 18 24 31 38 46 53 56 65 68 72 74 79 82 83 80 76 76 79 82 66 64 58 46 43 53 57 56 55 58 59 62 66 67 66 65
30 28 34 40 38 32 22 28 19 16 14 14 15 16 19 24 31 37 42 48 55 61 62 70 72 74 76 78 74 72 67 72 70 69 66 52 50 50 55 60 62 63 62 63 65 65 65 67 69
25 33 24 34 31 48 26 24 21 18 17 17 16 15 17 20 28 33 39 48 54 58 60 72 71 69 66 71 69 67 68 63 62 60 62 54 55 49 58 61 64 63 64 63 64 65 67 68 71
18 18 36 34 46 43 25 27 23 22 18 15 18 19 20 18 24 31 36 46 50 54 59 68 65 62 56 63 65 62 62 61 58 58 61 58 57 57 56 60 61 60 60 59 62 63 64 68 69
28 32 30 27 31 37 35 24 19 20 18 18 20 19 20 23 26 32 34 39 44 50 55 61 58 52 53 55 59 62 62 60 60 62 61 61 62 59 58 58 57 57 56 55 60 64 66 68 70
23 26 29 40 31 34 37 29 20 22 21 22 20 21 20 26 30 32 36 38 42 47 50 54 52 49 54 56 58 62 62 61 63 64 64 65 63 60 56 55 54 53 52 54 57 61 67 75 81

GFSSGP_sfc_rhum_087.txt.gz
RH
43 17 10 11 13 10 8 7 6 8 9 8 11 14 15 15 15 27 40 48 54 55 51 62 90 88 91 91 91 90 88 88 88 87 86 87 87 86 84 82 81 78 75 72 71 72 72 74 76
14 10 12 12 11 8 6 7 9 8 8 9 12 17 18 17 16 25 36 47 46 61 64 57 93 92 90 90 87 88 87 88 88 86 86 86 86 85 83 82 80 79 77 71 68 67 73 76 79
21 11 15 12 10 9 8 8 8 8 9 9 10 14 17 18 23 28 46 51 46 52 56 62 91 93 92 90 85 84 85 84 87 86 86 86 86 84 84 82 80 78 76 71 70 71 77 79 82
12 11 10 9 9 7 8 7 8 9 9 9 9 14 17 27 26 35 46 47 46 45 55 77 94 93 92 89 81 82 83 82 86 85 85 84 82 83 83 81 78 76 77 74 73 77 80 83 84
11 10 12 11 9 7 6 7 8 9 10 13 12 12 17 29 32 39 44 49 50 51 58 70 92 91 91 89 85 87 86 90 94 93 86 82 83 83 82 80 78 79 77 78 78 80 80 83 83
10 9 12 11 8 6 6 7 9 10 10 12 18 14 15 29 33 40 50 52 57 57 61 77 87 90 86 88 88 85 90 87 88 93 85 80 84 84 82 80 80 79 78 81 82 84 81 82 81
13 11 13 10 8 7 6 7 10 11 11 10 14 15 18 32 32 46 49 54 62 62 62 69 80 82 87 87 88 86 89 89 89 89 78 73 84 87 80 80 80 82 83 83 82 84 84 82 80
10 10 12 11 9 8 6 7 8 10 10 13 12 15 15 30 41 44 47 48 59 63 66 67 75 82 81 75 91 90 87 87 82 85 86 89 88 88 82 82 84 85 84 84 82 84 84 83 82
10 14 13 11 9 8 6 9 8 9 11 10 13 13 23 36 38 42 49 54 58 67 64 74 71 77 79 75 77 88 88 90 83 92 94 97 94 76 70 75 86 85 84 84 83 84 85 85 82
13 14 12 8 7 8 7 8 8 8 9 10 12 13 20 34 37 39 41 44 58 60 64 71 81 74 77 68 72 77 75 82 82 89 90 97 96 83 68 83 88 85 85 85 85 85 84 63 46
12 14 11 8 8 7 7 7 7 9 10 10 11 10 12 28 32 35 34 35 42 51 59 70 88 94 79 80 78 77 89 91 93 92 94 97 96 93 83 90 75 75 75 60 61 61 40 40 40
13 11 10 9 7 8 8 7 7 8 9 9 9 11 15 17 29 32 34 36 36 60 65 72 88 95 93 92 90 79 91 93 96 95 95 98 97 94 87 73 68 61 56 57 52 42 45 42 38
12 11 9 7 9 8 8 9 9 9 8 8 8 10 16 20 25 30 33 34 35 50 72 74 81 90 90 94 96 95 87 90 94 96 96 97 96 94 87 70 58 52 51 51 48 42 40 40 39
12 10 10 10 9 10 11 11 10 8 8 9 10 10 13 21 27 29 37 36 40 42 67 72 75 80 80 90 96 91 90 93 93 96 97 94 96 92 84 72 60 53 49 50 47 46 41 37 37
13 16 14 12 12 12 11 13 12 9 8 8 11 12 18 19 26 30 35 40 40 42 60 76 75 78 75 85 91 91 92 97 95 95 95 90 89 90 89 82 69 62 55 56 56 51 40 34 33
18 18 21 14 12 10 11 17 11 7 7 8 13 13 18 23 27 29 32 36 38 41 59 70 75 78 80 85 92 94 97 98 96 94 92 95 86 83 85 76 69 65 61 55 57 53 45 40 35
21 24 21 16 11 12 12 14 10 8 11 12 13 14 20 25 28 29 33 36 38 42 57 73 82 83 87 93 93 96 95 96 94 93 92 86 81 80 72 62 62 67 60 60 54 52 56 48 37
24 23 17 17 13 12 13 13 11 8 11 12 13 14 19 25 27 29 34 38 39 44 62 78 85 86 87 95 95 94 94 94 92 89 82 77 73 71 62 59 68 61 58 58 51 54 46 44 38
17 16 15 14 12 15 16 15 12 9 8 9 13 14 17 22 23 28 38 43 44 50 70 80 86 91 92 97 97 94 94 90 87 81 82 79 64 56 58 56 56 51 47 48 54 50 53 47 39
20 19 19 16 14 15 16 16 13 11 10 8 9 12 16 21 25 32 40 49 53 55 64 79 81 83 88 91 91 90 90 85 82 77 62 50 56 52 49 52 50 49 46 56 57 56 49 41 45
22 24 23 20 15 13 17 18 15 12 11 10 8 10 11 17 27 33 42 53 62 59 64 71 79 74 81 91 93 90 87 91 89 86 68 56 52 47 47 56 52 59 62 65 64 57 57 50 47
29 20 20 20 20 22 15 22 17 12 10 9 9 13 13 14 23 31 40 49 58 57 59 65 71 77 76 88 92 89 85 84 75 71 56 65 63 58 53 63 64 66 61 60 62 52 55 54 52
25 19 21 20 19 21 19 19 17 14 13 11 12 13 14 15 21 29 39 43 47 52 60 68 74 76 75 81 90 92 84 74 71 68 64 62 69 65 56 57 62 58 53 62 63 58 58 51 51
23 22 22 22 22 34 24 22 20 15 12 13 12 11 12 14 19 24 33 39 44 50 57 70 76 79 78 82 89 90 89 79 81 74 73 70 71 75 66 52 55 54 58 59 58 60 60 64 61
26 29 37 42 41 39 19 20 20 13 12 12 12 11 12 14 18 24 33 39 44 52 56 73 74 80 79 83 81 86 86 80 78 73 74 71 72 72 70 62 59 57 59 57 60 66 68 67 65
27 29 40 45 40 32 18 24 17 12 11 10 11 11 13 16 18 23 30 38 42 50 56 66 69 72 76 81 79 76 80 71 70 75 69 66 65 65 62 64 60 56 57 59 61 62 66 70 72
21 31 24 30 29 40 28 21 16 14 13 13 13 12 13 13 17 22 26 37 42 48 55 62 67 70 75 77 78 78 76 72 67 74 70 64 58 50 54 54 63 61 60 61 63 64 67 69 72
15 10 26 26 41 44 25 21 17 18 17 15 14 15 14 12 14 21 25 35 38 45 51 56 61 62 69 70 75 72 67 71 67 66 69 62 59 52 51 54 59 63 61 62 65 65 64 66 69
19 19 20 24 28 34 35 20 16 16 16 16 17 17 17 16 14 19 24 30 37 43 46 52 53 53 58 68 70 72 71 68 67 67 66 63 62 54 54 53 58 61 61 61 64 66 63 64 67
17 21 20 32 33 25 28 25 14 16 16 17 16 18 18 20 17 18 24 29 37 42 43 49 50 49 52 58 64 69 72 70 68 66 64 65 62 58 56 56 56 57 56 57 59 62 58 61 64

GFSSGP_sfc_rhum_090.txt.gz
RH
49 29 16 13 17 15 13 9 5 7 7 8 9 12 13 15 15 41 41 49 54 54 72 70 89 92 92 90 90 90 88 88 89 87 88 88 87 86 86 84 81 79 77 74 75 74 75 74 79
19 12 11 13 20 15 10 7 8 8 8 9 10 12 14 16 17 37 47 43 49 57 64 69 88 89 93 92 92 90 87 88 89 88 88 89 87 86 85 84 82 79 77 73 74 74 75 78 83
31 15 14 18 16 15 11 7 8 7 8 9 9 10 14 19 23 36 46 46 42 54 57 78 90 90 90 92 93 91 88 87 87 88 87 87 86 85 85 84 82 80 78 72 72 76 79 84 85
17 13 14 16 14 10 8 7 8 8 8 9 9 10 13 23 19 36 42 41 45 48 58 89 92 92 92 89 89 89 87 83 83 96 96 86 85 84 84 83 82 79 76 72 74 79 80 85 85
14 13 16 15 13 9 7 6 7 8 8 10 11 11 15 25 31 38 45 46 52 57 67 75 91 93 93 89 86 86 89 90 93 89 90 93 83 84 84 83 81 79 78 77 76 81 82 83 82
15 12 16 14 11 8 6 6 7 9 9 10 14 16 16 27 33 43 54 55 62 65 72 78 90 90 90 90 88 89 89 92 86 84 91 92 87 87 84 82 82 82 83 84 83 84 83 82 82
16 14 15 13 12 11 8 6 8 10 10 10 11 15 21 30 34 50 52 57 68 70 70 82 81 86 86 91 92 91 89 91 85 84 87 88 93 90 92 84 84 85 87 86 84 85 84 82 80
13 13 15 12 12 12 7 6 6 9 10 9 11 16 23 34 42 45 50 53 63 67 72 74 81 90 87 91 89 90 92 90 86 85 87 88 92 84 88 87 84 86 87 86 84 86 85 83 79
10 15 15 13 12 10 6 7 7 8 9 9 9 12 22 36 39 42 53 56 60 70 69 71 70 88 89 86 87 90 91 91 92 91 90 94 93 83 88 88 85 86 86 86 85 86 87 84 78
13 16 15 11 9 10 8 7 7 8 10 10 11 12 18 34 35 39 43 51 60 66 66 66 80 81 86 77 89 83 87 91 93 94 98 97 99 95 90 82 87 87 87 86 87 86 83 69 65
13 16 13 11 9 9 8 8 6 8 10 10 11 10 13 30 33 35 34 34 47 54 58 66 80 87 88 90 90 94 94 95 96 96 98 96 99 96 92 94 90 85 85 82 84 79 60 59 56
14 11 11 11 10 9 9 8 8 8 9 8 8 12 13 14 23 29 30 33 35 57 59 65 84 87 89 84 96 93 96 95 97 96 96 96 98 98 99 94 85 78 73 76 72 64 57 61 57
15 12 11 10 10 9 8 10 9 10 9 10 8 9 11 15 16 20 28 31 36 59 67 74 83 86 91 93 93 96 96 96 94 96 95 96 97 97 97 91 72 67 65 62 58 60 52 56 55
14 12 11 10 10 10 11 10 11 11 11 9 8 9 9 10 15 21 29 36 41 57 69 78 83 88 86 88 93 95 96 96 97 96 95 94 96 96 96 92 64 62 62 56 56 52 56 49 56
15 18 15 13 12 12 12 14 14 11 10 11 10 9 10 11 16 25 30 42 43 45 66 81 84 80 81 88 90 93 94 99 98 97 94 94 93 94 93 85 63 64 63 63 69 63 58 58 52
18 19 22 15 14 13 14 19 14 11 11 10 10 9 12 13 19 24 30 37 38 44 71 74 72 73 82 92 91 92 97 98 97 98 98 94 92 90 91 84 81 76 73 72 68 66 62 58 60
24 28 24 20 15 14 14 16 12 10 10 9 9 10 13 17 22 26 31 36 38 44 70 82 78 77 86 93 95 98 97 98 96 96 96 92 90 92 86 87 87 84 77 78 66 68 65 61 60
28 25 22 22 17 14 14 15 12 11 11 12 13 13 14 19 23 28 32 38 39 48 76 83 83 85 93 97 97 97 97 98 97 96 93 90 86 84 84 88 88 83 77 76 70 67 68 62 59
20 20 22 20 16 15 16 16 13 12 12 12 14 14 14 17 21 28 36 45 46 66 78 84 82 91 96 96 97 96 97 96 97 94 87 87 87 79 82 87 85 74 74 69 68 71 67 61 64
17 20 22 21 18 16 16 17 14 13 13 12 11 11 14 15 20 30 42 48 53 67 80 86 85 88 92 90 90 88 88 86 88 92 91 83 85 80 81 84 73 70 68 68 70 68 69 64 64
20 25 24 30 25 18 19 19 17 14 13 12 12 11 9 15 21 32 45 53 59 70 81 85 77 79 90 90 91 91 88 88 88 86 87 84 84 83 79 75 64 73 66 66 74 73 66 66 63
22 19 26 33 39 46 20 28 20 15 14 13 13 14 12 12 19 30 42 55 60 64 76 78 79 79 88 88 88 86 83 82 78 77 68 62 67 65 61 62 62 61 60 69 70 69 69 69 64
21 20 28 41 44 34 26 26 21 16 16 14 13 13 13 17 17 30 39 52 56 61 70 78 80 78 87 85 84 83 79 75 83 78 72 62 62 60 61 64 68 75 69 72 77 78 81 79 87
19 22 28 32 38 55 34 26 23 20 17 14 11 12 15 16 18 27 37 46 53 58 66 76 81 79 86 86 82 81 82 80 85 76 71 69 64 68 70 66 75 77 69 76 74 86 79 80 83
22 31 44 61 66 60 26 25 25 18 15 13 13 13 16 17 20 25 40 44 49 62 68 73 78 80 83 87 87 78 78 79 79 73 64 64 66 78 81 75 74 71 73 71 76 79 84 83 88
26 34 41 56 72 73 40 38 21 14 13 12 11 14 16 16 23 25 37 43 48 60 66 67 73 77 81 85 85 81 74 79 77 66 64 66 65 67 73 76 73 67 67 78 79 84 86 87 88
27 36 26 39 40 57 42 37 24 16 13 14 13 13 17 18 20 22 33 43 48 57 63 72 71 77 80 83 82 84 82 77 71 69 66 71 69 66 73 72 74 78 77 76 80 81 84 85 88
20 23 39 37 51 45 30 28 29 23 17 15 16 17 18 16 16 22 27 44 45 54 62 72 69 73 76 81 79 79 82 78 71 73 68 70 67 66 65 70 73 71 69 76 77 81 80 84 85
16 18 23 21 25 37 47 38 30 36 28 19 19 20 22 22 20 22 26 42 44 51 59 68 69 68 73 75 78 79 78 79 74 73 77 70 68 64 64 63 65 67 69 74 79 78 79 81 82
16 20 20 34 33 33 38 37 18 22 20 20 19 20 22 22 22 21 25 40 43 51 56 61 65 65 70 73 77 79 78 77 79 75 74 74 72 64 62 58 56 56 67 72 74 80 76 78 84

GFSSGP_sfc_rhum_093.txt.gz
RH
73 64 48 29 35 35 34 20 16 12 15 16 14 17 22 20 32 57 64 64 73 79 85 85 91 93 92 90 89 86 81 85 87 90 91 88 87 86 86 84 81 78 77 74 75 75 76 80 84
46 32 30 27 35 43 31 17 14 14 13 12 14 16 20 23 45 58 64 64 66 82 82 86 92 93 93 90 88 88 86 89 89 89 90 88 87 87 86 83 81 81 80 75 72 72 76 81 85
47 31 29 34 38 36 28 16 13 13 12 11 14 14 18 37 45 59 59 64 66 71 79 81 90 92 94 93 91 89 88 89 90 86 88 88 84 86 85 85 84 82 80 74 73 73 78 84 85
35 33 25 33 34 23 19 14 12 12 12 12 13 14 23 35 39 57 57 53 64 72 83 90 90 90 93 94 94 91 90 90 90 81 86 91 88 86 86 86 83 81 78 75 76 78 83 85 84
32 32 35 42 27 17 12 11 11 12 14 16 13 18 37 53 53 56 59 57 64 87 95 94 93 92 91 91 94 93 90 89 89 90 91 91 88 94 85 84 83 80 79 80 78 81 84 83 86
31 28 36 35 23 15 13 10 11 14 14 17 19 22 32 49 54 71 66 71 72 82 92 95 92 93 93 91 89 92 93 93 91 90 89 86 89 88 85 85 83 81 83 83 84 84 84 86 83
38 34 33 26 20 16 13 11 12 15 13 15 20 23 39 48 65 68 70 77 76 77 91 94 94 87 91 92 92 92 94 91 88 88 85 81 92 95 89 93 84 85 85 85 86 85 85 84 80
27 28 31 23 21 18 12 10 12 12 15 12 16 23 48 62 63 68 71 82 81 80 84 93 95 94 93 97 93 91 92 90 90 88 87 88 88 94 95 90 87 88 87 87 86 86 85 82 80
26 33 31 24 20 15 12 12 13 11 12 14 15 16 35 56 58 69 76 82 87 82 86 84 93 94 94 96 91 92 93 90 89 88 89 93 96 95 91 90 88 89 88 88 86 86 85 81 76
27 34 26 18 15 16 14 14 11 14 14 15 16 19 45 52 58 67 75 76 80 89 86 85 83 95 94 87 96 98 96 96 95 95 93 97 97 98 94 93 88 89 89 89 87 85 82 72 72
25 27 20 17 14 15 17 14 11 15 16 15 18 15 51 52 56 56 61 65 70 80 87 93 91 90 92 97 97 99 99 99 98 98 97 98 98 97 95 98 94 92 90 90 86 79 70 65 68
26 19 16 15 14 14 16 15 13 14 13 13 12 16 45 46 48 48 50 50 74 77 87 94 93 91 93 97 97 97 97 98 99 98 97 97 99 99 98 97 92 88 89 93 80 77 70 66 63
24 21 17 15 14 15 14 15 13 13 13 15 14 13 15 33 44 44 43 47 70 76 90 95 94 91 92 97 97 98 98 98 98 97 96 98 97 97 97 95 88 82 84 78 71 75 63 65 63
22 21 20 17 16 15 15 15 16 13 15 13 13 13 12 13 17 26 42 54 71 79 90 95 95 92 94 98 98 98 98 97 97 97 95 96 95 96 96 92 77 77 72 62 64 60 65 65 60
21 27 22 21 21 20 16 20 19 15 14 16 14 13 13 13 15 26 43 53 72 80 87 95 96 90 92 97 97 98 98 99 97 96 96 94 95 98 93 90 74 67 59 61 70 60 67 65 62
31 32 34 25 20 18 18 23 19 15 14 14 13 13 13 15 15 33 49 54 72 85 90 92 84 84 91 96 98 99 99 99 98 97 96 94 94 94 92 87 70 71 56 65 62 62 64 70 66
41 45 38 30 22 20 19 22 18 15 14 14 14 15 14 16 29 41 50 54 81 84 87 92 90 87 96 97 98 99 99 99 99 98 96 94 93 96 91 87 76 82 60 74 62 72 59 64 67
47 40 38 34 25 21 22 22 18 15 14 15 15 16 17 23 33 40 50 50 78 86 88 92 92 93 98 98 99 99 99 99 99 99 98 95 95 94 92 89 80 76 74 71 63 62 64 61 60
29 30 32 26 18 20 24 26 23 15 16 17 22 19 19 20 34 39 48 60 87 92 92 94 94 98 97 98 98 98 98 98 98 97 94 95 94 93 91 92 89 69 69 65 62 72 62 65 63
20 25 26 20 18 20 23 32 31 24 17 17 19 21 21 22 36 47 52 78 86 94 93 94 91 96 95 94 94 94 94 94 96 96 96 94 93 88 90 86 85 74 68 71 71 70 71 64 72
14 20 26 28 28 34 43 42 37 23 18 16 16 17 18 19 39 54 54 75 92 96 95 93 89 92 92 92 91 93 92 94 96 95 96 96 92 87 89 88 83 77 71 75 74 71 66 60 72
17 13 15 22 48 62 42 76 47 36 23 16 15 15 16 17 40 53 57 77 92 96 93 90 84 92 91 89 89 90 89 92 89 88 90 94 93 92 82 79 78 79 73 71 72 71 68 66 65
23 19 19 41 54 61 54 73 57 30 24 18 17 16 16 18 43 56 59 66 87 92 93 87 81 91 89 86 85 86 86 82 84 86 89 90 92 90 84 80 77 76 74 70 74 80 76 78 83
26 30 37 46 52 82 62 61 61 36 26 18 16 15 20 20 43 56 58 64 84 88 89 88 84 90 87 84 81 85 84 80 81 80 81 79 74 74 74 72 67 71 68 77 72 85 83 89 85
32 36 62 76 73 74 37 53 54 32 21 16 16 16 18 19 42 56 66 69 76 88 90 88 84 92 88 84 81 75 81 82 79 73 73 70 71 72 76 69 72 77 74 82 75 83 89 90 92
33 34 67 71 84 85 47 70 54 35 34 16 15 18 20 27 40 55 63 67 71 81 88 86 82 90 88 84 80 72 76 79 75 70 72 67 65 66 72 82 78 76 78 83 86 82 82 93 89
37 41 32 50 48 73 52 40 35 33 25 18 16 17 21 30 39 52 58 63 69 76 83 85 83 82 88 86 79 74 74 75 76 71 70 68 66 64 87 79 78 80 78 80 86 85 86 85 84
26 28 46 51 64 60 40 31 52 37 34 31 21 23 25 27 35 49 53 58 68 72 77 77 76 77 81 85 83 78 75 72 73 69 71 66 67 63 81 81 82 77 79 84 82 86 88 92 95
25 30 37 32 50 64 58 46 34 37 35 40 38 29 28 28 29 41 50 53 63 70 75 76 74 74 80 80 82 82 79 74 73 72 67 72 76 73 73 76 76 76 77 80 84 88 90 89 89
19 20 22 36 38 38 43 37 30 27 39 42 52 52 26 25 27 36 48 53 64 69 77 78 74 77 79 79 80 83 85 81 77 74 72 70 74 74 68 68 71 74 70 72 78 84 81 89 89

GFSSGP_sfc_rhum_096.txt.gz
RH
80 66 45 30 35 39 41 28 20 16 20 18 17 18 20 29 27 40 67 81 80 86 88 92 95 92 89 88 87 87 91 89 90 90 89 88 88 86 85 84 84 82 79 75 74 80 80 79 85
53 41 31 33 38 47 36 25 20 17 15 17 17 19 21 58 59 69 78 79 78 86 90 91 95 93 91 90 88 86 87 88 91 90 89 88 87 87 85 84 82 82 81 75 76 78 79 84 86
40 34 35 35 46 44 35 21 17 15 14 12 15 17 24 50 61 64 66 76 80 84 86 88 93 95 92 91 90 88 89 91 90 89 86 87 85 86 85 84 84 82 80 74 74 78 82 87 85
37 37 33 38 41 34 26 20 16 14 14 14 14 16 36 46 58 63 68 70 79 85 82 90 93 94 94 93 91 90 92 91 89 84 83 82 85 88 80 87 85 83 80 78 76 81 87 88 84
36 36 40 49 36 28 20 17 13 13 14 16 14 20 49 64 61 61 68 70 87 96 93 90 91 92 95 95 93 91 92 93 85 87 86 87 82 80 88 87 85 82 81 82 81 86 88 87 86
34 36 43 45 33 23 18 15 14 14 15 19 19 37 50 65 64 72 74 82 94 97 98 96 93 92 92 96 96 94 94 91 89 90 88 87 86 85 86 90 89 83 85 83 85 86 87 88 85
43 42 43 36 28 24 18 15 14 18 16 16 22 27 64 65 74 75 80 83 92 97 98 98 97 92 93 94 93 97 96 91 91 90 90 88 88 87 85 86 94 84 85 86 87 88 87 83 81
35 36 46 36 29 26 19 14 13 14 15 15 19 37 65 54 75 79 83 86 88 94 96 97 95 92 89 97 95 97 96 93 92 93 92 88 89 89 86 91 91 85 86 87 88 89 86 81 79
30 43 42 34 27 22 17 17 13 13 14 15 14 24 35 64 74 81 92 92 92 90 95 97 97 95 96 98 95 94 92 90 89 91 89 91 96 96 86 85 95 84 86 87 88 87 85 81 82
38 46 36 26 22 20 18 21 17 15 15 15 16 47 63 67 72 76 86 92 93 93 94 96 98 96 97 95 97 96 95 96 96 94 96 98 98 97 95 95 93 83 87 88 87 85 84 75 73
34 36 28 25 21 20 20 20 17 17 16 16 17 34 68 66 70 72 74 77 86 86 94 94 96 97 98 99 99 100 99 99 99 97 97 98 98 99 97 98 95 93 89 87 85 84 76 72 69
41 29 24 22 20 19 18 19 17 17 14 13 14 23 64 65 66 68 74 73 85 92 93 96 96 97 98 98 98 98 98 98 98 98 97 98 99 99 99 99 97 93 88 94 91 88 78 71 66
34 29 25 22 20 18 17 18 17 16 15 16 15 31 61 61 60 59 60 65 84 91 95 95 96 97 98 98 99 98 99 99 97 98 97 98 99 99 97 98 97 91 90 86 90 82 73 72 70
26 26 26 24 23 21 20 20 22 16 18 15 15 15 42 55 53 52 59 71 80 87 96 97 96 95 97 98 98 99 98 99 98 97 97 97 97 98 98 96 95 91 82 78 76 75 74 73 70
25 29 26 28 26 25 21 24 22 17 18 18 17 15 14 16 40 46 46 68 78 88 93 96 97 96 95 98 98 97 98 98 98 97 97 96 96 95 97 97 95 84 75 73 80 73 71 72 67
36 38 44 29 26 23 24 28 22 18 19 20 18 16 16 16 15 20 50 65 79 90 95 96 92 97 98 98 98 99 99 99 97 96 96 97 94 93 94 93 88 74 67 70 73 66 72 74 69
46 44 43 39 26 27 26 29 22 18 20 21 19 16 16 15 17 42 60 75 85 88 96 97 96 96 97 97 97 98 99 98 98 97 96 95 95 94 92 88 73 70 63 73 67 65 64 76 74
48 51 55 45 34 27 29 28 25 24 26 27 25 18 17 19 20 50 65 78 86 90 92 93 93 97 98 98 99 99 99 99 99 98 96 93 95 92 92 87 74 58 66 75 66 63 69 70 68
42 42 44 40 27 26 26 23 22 29 31 29 26 19 19 19 35 53 70 86 92 94 95 94 96 97 98 98 99 99 99 99 99 99 98 96 92 92 90 88 81 53 66 68 66 63 64 72 70
28 30 33 27 23 22 24 30 32 33 30 29 29 22 22 26 52 59 75 93 94 95 94 95 96 95 95 94 96 96 97 97 98 98 98 97 97 96 90 86 82 58 70 67 64 62 75 71 66
22 24 24 25 23 31 43 34 28 25 33 30 26 23 19 22 48 62 85 95 97 96 96 95 96 95 93 94 95 97 96 98 98 99 98 98 96 94 90 84 82 70 67 65 62 58 59 63 75
25 18 17 17 23 32 45 44 32 29 30 30 29 24 20 22 42 59 79 97 96 96 93 95 95 91 90 93 93 95 95 96 92 93 96 98 95 94 90 87 80 74 67 67 64 62 61 58 63
23 20 20 18 46 62 63 72 40 49 42 35 29 22 18 20 40 59 77 89 92 95 96 95 95 85 89 92 91 91 91 86 90 91 96 97 98 94 87 85 82 79 73 74 74 78 77 72 83
28 31 35 50 60 79 65 60 36 53 41 34 26 21 19 22 42 54 67 86 94 95 95 96 94 85 91 88 87 89 89 90 91 90 93 95 97 97 92 87 85 79 80 84 77 85 78 84 80
33 41 59 76 80 74 48 62 44 39 35 34 32 25 24 21 40 58 78 95 96 96 96 95 93 86 91 90 86 90 87 90 88 88 88 90 94 96 97 96 95 92 84 87 82 84 86 86 88
39 44 66 66 76 65 56 71 64 41 35 31 32 28 26 24 50 61 75 90 94 94 94 93 95 85 88 91 84 82 87 83 81 80 81 80 83 88 90 89 88 84 81 82 88 85 83 91 87
35 45 40 55 64 72 63 51 37 36 47 46 41 36 25 24 50 64 70 84 89 92 93 91 94 83 84 88 82 78 85 80 77 78 74 74 76 73 74 76 80 84 82 81 80 84 85 92 92
33 33 52 56 68 69 52 44 42 47 59 52 51 47 44 42 58 64 68 76 82 86 88 88 88 87 80 85 81 74 81 79 75 72 80 74 73 69 84 79 82 86 82 77 78 81 90 90 92
34 37 45 48 64 68 71 51 58 72 66 67 48 43 44 42 56 63 66 69 75 84 87 87 86 91 81 83 80 75 75 78 77 74 72 75 73 73 81 78 82 81 78 79 83 78 81 92 93
41 34 46 72 62 62 66 50 46 59 69 58 53 47 47 44 38 56 61 69 79 84 86 86 84 86 88 85 83 79 76 75 78 76 70 74 72 75 73 78 76 81 78 82 86 84 81 87 90

GFSSGP_sfc_rhum_099.txt.gz
RH
82 70 44 32 37 42 49 31 26 20 18 19 19 20 22 31 26 33 74 76 84 93 96 94 94 92 91 91 91 92 91 89 89 90 90 90 90 89 89 87 86 81 73 75 77 78 79 81 87
62 45 31 36 41 46 34 30 23 20 16 20 22 23 32 52 67 74 86 84 81 91 96 95 94 92 91 90 92 92 89 88 90 90 90 89 89 89 89 88 86 81 75 70 76 76 79 84 88
45 36 33 37 51 44 32 26 22 16 16 19 18 19 40 47 61 73 74 82 84 91 94 96 94 93 92 91 90 92 90 92 91 90 88 87 87 86 87 88 87 83 80 71 76 78 82 88 89
39 42 38 42 45 41 29 23 22 17 14 16 17 23 44 54 67 65 80 82 85 89 92 94 97 94 93 92 90 91 92 92 91 90 88 86 86 86 87 88 86 84 80 77 78 82 87 88 88
37 40 44 51 41 35 29 22 20 17 16 16 17 22 48 62 66 75 84 83 91 95 93 95 96 96 95 93 92 92 93 94 90 87 87 88 86 86 87 87 85 84 80 78 84 87 88 87 86
37 40 50 50 36 29 25 20 18 18 18 18 20 47 57 73 76 83 85 92 95 96 96 94 92 95 97 95 94 94 96 90 91 89 86 84 86 87 86 87 88 84 84 82 84 87 86 88 85
41 42 49 46 34 28 23 19 19 19 17 20 25 46 59 78 78 83 91 97 98 98 97 98 96 94 96 98 97 96 95 89 91 90 90 89 88 88 85 88 88 88 86 84 87 85 88 85 84
40 42 60 40 35 28 21 17 17 16 16 16 25 53 65 72 79 87 93 98 99 100 99 99 98 96 97 97 96 99 96 92 92 92 91 92 92 90 88 86 90 90 86 81 87 86 87 83 83
36 50 48 41 31 27 20 20 21 16 16 16 21 50 45 68 84 91 94 95 98 99 99 98 97 95 95 98 98 98 95 94 93 93 94 94 97 96 91 90 90 92 91 81 88 86 86 82 81
46 57 45 31 25 23 24 24 21 19 17 16 18 52 76 74 83 86 91 92 95 98 99 98 97 96 97 99 99 99 98 95 94 96 96 98 97 99 95 92 92 90 86 89 90 86 85 83 80
44 43 37 30 26 26 29 28 25 21 19 17 17 33 80 83 82 82 82 80 80 91 96 98 97 97 98 99 100 99 99 98 98 97 97 97 98 98 99 96 94 94 86 87 86 87 72 77 73
48 34 30 31 27 30 25 28 22 23 17 16 15 29 77 80 80 77 79 84 92 94 94 96 97 98 98 99 99 97 98 98 98 98 98 99 98 98 99 98 94 94 95 92 93 88 73 74 73
43 40 33 30 29 28 24 25 23 21 18 19 16 28 72 73 72 68 65 69 90 94 94 95 98 99 99 98 99 97 95 98 97 97 97 98 98 99 98 98 97 96 96 87 91 85 70 74 74
31 29 28 29 28 27 27 26 27 21 21 19 19 22 62 68 66 65 73 76 86 88 94 96 97 98 99 99 99 98 96 95 96 95 95 96 97 99 99 99 99 98 96 82 80 80 70 78 75
28 33 31 31 29 27 24 30 28 22 20 20 19 19 26 59 60 62 61 64 72 84 93 96 96 97 98 99 99 99 99 96 97 96 97 95 97 98 97 98 99 97 96 79 78 75 74 82 72
36 42 49 34 30 27 27 32 26 22 22 22 22 21 20 22 44 57 55 56 70 90 96 95 90 96 98 99 99 99 99 98 96 98 97 96 96 97 98 96 96 98 95 76 74 71 73 79 78
50 53 48 41 30 30 29 34 28 26 24 25 26 27 26 23 20 23 46 53 79 91 94 96 97 97 97 98 99 99 99 99 98 97 98 96 96 96 97 97 96 95 86 75 70 71 69 77 78
48 56 64 50 38 32 35 34 30 26 28 28 33 31 31 25 19 24 33 51 78 93 94 94 97 97 98 98 99 99 99 99 99 98 97 96 96 94 97 97 96 88 78 75 67 69 76 74 76
42 48 52 46 32 31 34 31 27 23 28 35 33 33 30 27 26 50 72 83 92 96 96 96 98 95 96 96 97 98 99 99 99 99 98 95 97 93 94 96 94 76 70 69 64 66 74 82 72
37 42 45 36 30 31 30 27 21 29 33 32 32 35 35 31 50 74 93 94 95 96 95 96 95 92 91 91 91 98 98 98 99 99 99 96 96 94 90 92 90 61 65 70 65 63 84 80 71
30 32 32 32 27 26 36 28 33 30 30 30 29 31 28 30 42 78 94 95 96 94 96 95 88 88 89 95 99 98 98 98 99 99 99 99 96 96 92 90 85 61 68 72 61 63 63 70 77
28 22 21 23 27 32 40 32 22 31 28 32 32 29 24 30 39 65 86 94 92 94 94 93 87 87 88 94 97 96 93 98 95 96 98 98 98 97 92 90 82 63 75 69 63 62 64 62 68
29 26 26 26 27 34 41 73 40 41 41 29 26 30 30 29 33 63 79 85 90 89 96 91 87 88 95 92 97 98 94 90 94 96 98 98 98 98 92 89 84 78 82 68 66 72 74 64 79
33 34 37 43 43 72 44 66 38 35 41 38 33 31 37 30 31 54 64 81 86 86 93 89 87 89 87 92 97 96 93 93 95 96 98 98 98 98 97 91 89 88 89 80 77 83 76 84 81
36 44 64 76 88 67 55 66 40 38 34 39 46 52 44 37 33 58 77 92 88 90 91 88 88 88 88 93 97 95 93 91 90 92 93 97 98 98 98 94 94 93 92 83 80 83 86 83 84
39 43 65 63 71 53 55 71 50 48 48 50 51 50 43 42 39 50 71 88 85 87 89 88 88 90 88 90 95 88 92 86 85 86 87 90 92 94 95 95 92 93 92 88 90 86 87 87 85
36 47 38 51 68 76 71 58 40 49 66 64 62 57 54 47 44 51 70 87 86 86 92 93 86 85 86 87 96 94 91 88 87 88 84 85 90 94 96 93 94 90 92 93 95 97 91 88 89
28 30 52 62 68 65 57 56 53 72 78 69 68 70 58 47 46 54 73 86 88 90 91 91 83 82 83 86 93 89 89 86 85 81 83 82 82 90 95 93 92 93 92 92 92 89 89 91 94
38 44 47 46 65 57 63 59 75 74 69 75 79 75 61 52 45 69 72 82 86 87 90 91 86 83 81 83 91 89 89 87 86 84 81 81 79 81 84 85 88 88 88 86 87 80 80 90 89
36 45 52 65 62 70 70 58 48 54 64 68 72 78 60 53 46 50 69 82 85 91 90 92 88 84 78 78 89 87 90 86 86 83 81 78 79 81 79 81 82 86 88 87 84 80 75 86 91

GFSSGP_sfc_rhum_102.txt.gz
RH
84 68 42 32 37 45 53 33 30 23 19 20 21 24 26 28 32 29 73 84 88 95 91 96 95 94 93 92 92 91 92 91 90 90 90 90 90 89 88 87 86 83 81 78 78 81 80 80 85
73 43 32 38 40 44 31 34 29 23 18 20 24 30 36 36 70 78 84 84 88 96 89 96 95 94 93 93 92 91 89 91 90 91 90 90 90 89 88 88 85 84 82 79 76 78 81 84 86
49 36 33 39 53 40 27 28 22 22 18 20 20 22 36 46 68 73 81 85 91 98 90 95 95 94 93 93 93 92 90 91 91 91 90 90 89 88 88 87 84 79 76 79 76 79 85 90 91
42 44 40 44 49 43 29 24 27 21 17 19 17 22 43 58 64 68 84 84 91 97 98 97 96 95 93 92 94 93 93 92 92 91 90 89 89 89 89 86 83 79 77 79 77 82 90 91 90
39 43 46 56 47 39 33 29 26 22 20 18 17 19 45 69 72 86 87 84 90 96 97 98 97 96 94 92 92 93 94 94 92 91 90 89 88 88 86 88 86 81 79 81 82 88 91 91 89
42 42 53 44 30 33 28 23 24 22 21 20 20 36 48 78 82 93 94 92 93 95 96 96 97 96 96 93 92 93 90 95 93 92 91 89 89 89 88 88 85 84 82 83 86 89 91 89 88
43 48 56 58 41 34 26 22 21 23 22 21 32 39 50 81 83 91 96 97 97 96 96 97 97 97 98 97 96 97 94 93 91 90 92 93 92 91 90 89 86 83 83 86 88 89 89 89 87
42 42 58 44 37 32 22 21 18 21 21 17 36 35 35 72 87 95 97 99 99 99 97 97 97 98 99 98 97 98 94 93 93 94 93 92 90 89 91 90 86 86 85 85 83 90 89 88 87
42 49 57 40 36 29 24 27 25 22 20 18 22 42 56 84 91 95 98 99 99 99 99 99 99 98 98 98 98 98 94 94 93 92 92 93 93 94 90 90 89 86 81 84 81 90 88 88 87
46 57 41 32 30 27 28 30 30 25 24 22 23 50 84 86 90 93 98 98 97 98 98 99 99 98 97 98 96 98 97 95 94 94 95 97 98 98 95 92 90 88 81 81 85 87 87 83 80
51 48 42 35 29 29 35 32 27 36 27 24 22 25 87 90 92 92 92 94 97 93 96 99 98 97 97 98 98 99 96 98 97 95 98 98 98 98 98 99 97 95 82 87 87 84 75 81 82
52 43 35 36 32 38 34 35 27 27 22 21 19 24 81 89 90 87 89 88 91 95 96 98 98 98 98 97 97 98 97 98 99 98 97 98 98 99 99 98 96 96 92 89 95 82 77 83 80
46 46 37 34 32 32 29 32 31 28 23 23 22 24 51 80 81 77 76 78 87 92 93 97 98 97 98 99 97 95 97 99 98 98 97 97 97 98 98 97 98 98 97 94 89 87 78 79 78
30 29 26 32 32 34 32 30 36 30 26 23 22 22 26 73 74 79 85 78 87 81 93 95 98 97 98 98 97 95 94 98 96 98 97 96 98 98 98 99 98 99 98 97 87 81 75 75 76
32 31 33 37 35 35 33 35 33 26 25 25 23 22 23 51 67 74 70 73 72 78 84 95 96 98 97 95 98 96 96 97 98 97 96 96 96 98 99 98 98 97 98 95 88 83 79 77 76
44 45 53 38 33 30 27 35 32 26 27 26 24 24 25 25 44 62 64 64 65 75 92 92 92 98 99 97 98 96 96 97 97 97 96 94 95 95 98 99 99 96 98 95 87 82 81 79 82
52 58 56 46 34 31 33 35 32 30 28 28 28 28 29 31 29 35 51 53 59 72 91 96 95 97 99 99 98 99 96 97 96 96 96 94 95 96 97 98 98 98 97 95 91 84 84 83 85
53 59 66 53 44 39 40 38 36 29 28 27 27 30 33 32 29 26 25 28 57 74 92 94 95 96 98 99 99 99 99 98 96 96 94 96 96 96 97 98 98 97 96 95 93 88 83 79 82
45 48 54 52 38 38 38 36 35 29 27 27 33 33 32 33 30 36 52 42 88 96 97 96 95 97 97 98 98 99 98 96 96 95 96 96 97 96 96 96 98 97 94 89 85 90 86 85 78
44 50 53 42 34 37 39 34 30 26 24 26 25 34 36 35 31 39 82 93 96 96 95 93 94 96 94 91 95 94 93 96 98 99 99 96 98 96 95 94 95 96 95 90 84 80 84 82 78
42 45 42 41 30 28 32 24 22 25 31 32 33 34 35 34 33 33 80 96 98 96 93 89 95 91 91 90 94 98 98 99 99 99 99 99 95 96 95 94 94 92 90 89 81 78 74 82 80
39 30 30 30 29 32 36 34 27 24 25 30 29 35 33 33 36 34 59 97 97 95 86 87 94 92 90 91 94 93 97 97 98 95 98 99 99 98 94 94 95 93 83 80 70 66 68 74 79
30 27 29 29 33 35 51 44 41 32 30 27 27 29 38 49 45 37 45 79 92 94 87 90 88 89 88 91 91 90 88 85 96 98 98 98 98 99 94 94 95 90 81 71 65 69 74 70 75
30 36 38 45 43 63 42 38 44 37 34 38 39 45 56 54 49 46 39 85 95 91 90 85 89 90 88 89 89 94 96 94 97 98 98 98 98 97 98 95 91 87 84 79 66 76 74 80 73
37 46 63 78 82 61 44 54 36 37 41 53 61 64 63 58 54 50 48 93 96 92 91 86 88 92 92 97 95 97 96 93 92 92 94 98 98 99 98 97 95 86 86 86 82 82 85 81 81
42 44 65 66 71 63 63 73 56 55 67 66 67 64 63 58 54 54 48 64 94 90 90 89 88 89 92 93 92 97 96 93 93 93 91 94 95 97 98 95 91 88 89 84 87 88 90 89 86
42 51 39 52 61 71 60 61 43 64 70 71 73 67 68 59 55 55 48 59 86 89 88 88 82 87 87 88 90 97 96 95 92 94 93 93 93 95 97 96 92 93 92 91 89 85 84 91 90
30 35 54 68 70 63 61 64 57 64 65 75 80 81 78 63 62 58 49 81 82 82 83 85 80 84 86 87 86 96 96 96 96 95 95 90 94 94 95 95 96 94 92 88 89 92 90 93 93
41 43 47 48 64 60 56 55 57 67 66 77 84 84 84 71 64 59 56 76 83 81 82 86 79 81 85 86 85 95 96 95 95 93 90 89 92 94 94 91 92 93 93 90 88 88 91 92 91
40 50 46 62 61 72 65 49 61 61 71 78 89 77 74 75 69 59 66 74 87 87 86 86 79 81 85 85 89 95 95 94 94 94 91 85 91 91 91 90 90 90 88 90 87 87 86 86 89

GFSSGP_sfc_rhum_105.txt.gz
RH
67 37 23 22 20 25 23 18 19 16 15 14 15 17 21 24 35 24 55 62 70 72 74 80 90 90 92 90 93 94 93 90 90 90 91 91 90 89 88 88 86 83 81 78 80 82 81 82 84
45 24 22 24 20 17 13 21 20 16 14 14 18 24 26 20 40 48 53 66 65 73 76 77 91 93 93 91 92 93 92 91 91 91 91 90 90 89 89 88 87 84 82 80 78 78 78 85 87
33 25 20 23 27 16 12 17 16 16 16 15 13 14 20 26 47 44 55 67 69 70 72 77 96 94 93 92 91 93 92 92 92 91 91 90 89 88 88 86 84 84 82 80 77 79 84 88 89
30 27 25 24 21 26 17 15 17 18 14 14 12 13 25 38 42 41 60 66 70 76 72 86 97 95 94 93 92 91 93 93 93 92 90 90 89 88 88 88 85 82 81 81 81 85 90 92 89
26 28 26 28 24 25 23 20 19 16 16 14 12 12 28 49 56 57 66 68 71 80 86 88 97 96 93 92 93 93 93 94 94 90 90 90 89 89 85 83 78 80 80 81 85 91 93 92 92
27 26 25 14 13 24 20 18 18 16 15 17 15 14 24 52 59 69 71 72 72 81 88 86 93 96 94 92 93 94 95 94 94 94 92 91 90 88 83 84 85 86 81 84 88 93 92 91 91
28 29 22 25 20 22 20 17 18 16 17 14 19 17 28 48 61 75 73 74 79 81 85 88 87 87 97 96 94 95 93 96 95 94 93 90 90 89 88 86 85 83 83 81 91 92 90 91 90
25 26 32 26 14 15 17 16 14 15 15 12 25 22 22 44 71 76 74 74 78 79 81 83 90 90 87 85 96 97 95 95 94 94 94 95 94 91 87 91 88 84 86 82 86 92 91 90 89
28 27 27 20 21 15 17 17 17 16 16 16 14 19 36 67 74 77 82 91 91 90 80 82 82 86 90 87 86 97 96 94 94 92 93 94 79 77 79 81 92 85 86 89 91 93 92 91 91
27 27 21 22 19 19 19 19 18 17 18 17 16 26 60 71 70 70 71 84 91 92 92 80 82 83 85 81 84 93 91 91 91 88 82 85 85 81 76 80 88 87 88 91 90 94 94 91 92
33 27 26 23 20 20 19 20 19 19 19 19 18 17 50 65 68 68 64 64 75 73 87 89 90 85 85 85 81 95 98 97 96 86 92 91 95 93 86 86 83 86 90 80 90 91 88 84 86
38 36 25 25 24 23 24 23 22 21 19 17 16 20 34 54 61 65 65 66 72 74 78 85 90 89 87 82 84 84 97 98 96 96 91 88 94 96 95 95 92 85 78 77 92 89 83 84 73
41 33 32 28 26 26 26 26 25 23 19 19 20 22 21 36 45 55 56 57 62 72 76 86 89 86 84 91 92 90 95 96 95 89 94 89 87 96 89 94 94 83 83 86 95 86 86 86 67
20 24 22 23 26 28 28 27 27 24 23 23 22 18 17 21 32 47 60 62 64 62 65 76 82 84 79 88 92 92 94 94 94 92 92 91 91 89 96 95 93 95 96 93 91 93 93 90 62
25 27 24 22 23 25 28 29 29 21 22 22 20 19 19 18 22 42 45 58 58 58 57 74 79 84 82 84 91 88 92 92 94 92 91 87 87 90 93 93 94 95 99 96 93 94 94 93 64
33 36 33 27 27 25 22 26 24 21 22 22 21 20 20 20 19 26 40 48 44 51 58 65 70 82 87 86 91 89 91 92 91 91 91 87 85 86 85 93 97 98 97 97 95 96 95 92 71
38 36 44 34 29 25 26 23 22 23 24 23 22 21 20 21 21 21 23 31 37 44 54 65 74 80 88 87 91 90 94 94 92 91 92 87 88 83 83 93 97 98 97 97 96 96 93 88 79
32 44 39 34 29 31 30 31 26 23 23 23 21 20 19 19 18 19 23 22 23 28 51 65 74 79 88 93 94 95 96 96 94 94 93 88 92 88 90 96 98 98 98 96 95 94 93 86 82
33 32 32 37 31 31 32 29 27 24 24 24 22 20 18 21 19 24 28 33 41 45 61 72 78 82 89 96 96 97 97 96 96 94 91 92 92 92 94 96 98 97 96 95 92 93 93 92 72
33 34 36 36 31 31 28 28 21 19 18 16 16 16 18 23 24 27 30 40 57 53 69 75 76 82 80 82 89 87 88 90 91 93 92 90 92 92 94 96 98 96 97 95 93 92 95 92 80
37 39 38 36 28 21 23 18 12 15 16 16 18 20 25 27 30 38 37 36 52 67 73 75 74 81 77 79 84 83 89 90 95 96 95 93 91 95 94 95 95 94 93 95 94 93 89 93 88
33 32 33 35 32 31 22 18 18 17 18 20 20 23 27 41 41 40 41 41 42 60 72 74 75 82 78 81 84 83 77 82 84 87 87 96 96 96 93 94 94 93 93 94 94 94 92 90 91
30 31 30 30 28 25 24 29 25 24 21 21 23 37 48 47 46 45 44 42 44 58 73 74 82 81 81 82 80 81 84 77 78 79 86 96 97 97 95 93 95 95 92 93 93 95 94 89 86
24 28 31 34 32 45 33 30 28 23 23 30 46 49 51 50 47 45 43 43 43 67 73 76 86 84 85 81 84 88 87 78 75 78 85 89 96 98 94 92 91 93 92 92 91 90 89 85 76
31 39 49 64 54 47 34 33 27 28 39 50 51 47 49 49 49 48 46 46 47 53 75 77 83 86 86 84 88 87 85 80 79 84 88 95 95 95 98 96 96 94 89 83 78 85 80 77 75
35 37 41 47 60 44 43 40 30 36 53 52 49 48 50 51 51 48 47 48 47 52 69 77 79 83 83 87 88 86 79 74 72 77 80 84 78 88 86 95 93 89 90 87 83 84 84 84 81
37 40 35 44 48 51 39 42 36 59 59 57 54 55 54 54 52 50 48 48 49 53 70 79 78 82 84 88 89 87 79 75 72 77 82 83 84 84 89 95 94 90 90 92 85 85 87 87 90
31 32 43 48 53 49 40 42 35 51 45 54 49 55 54 55 48 51 50 50 53 57 71 82 80 83 85 88 81 82 81 77 75 79 84 82 81 83 86 96 92 90 93 90 88 89 88 88 90
31 31 38 39 46 38 43 34 36 46 44 48 56 62 60 63 59 56 54 56 64 67 72 78 78 81 84 84 80 91 84 80 79 81 82 80 82 83 89 94 92 93 93 92 91 88 84 88 88
33 35 32 39 48 47 40 34 46 50 48 58 61 66 64 64 62 66 68 71 72 71 79 81 82 82 85 84 84 90 86 82 82 82 81 81 87 86 87 90 91 91 90 90 90 87 83 85 90

GFSSGP_sfc_rhum_108.txt.gz
RH
51 26 13 11 12 9 8 7 6 10 11 10 10 14 14 12 15 16 32 34 37 41 49 68 80 88 91 91 93 93 90 90 90 91 91 91 91 91 90 87 86 84 82 79 79 80 81 82 86
22 17 12 10 9 8 6 6 9 8 9 10 12 12 14 13 16 26 34 38 36 43 52 57 87 90 92 93 94 94 90 90 91 91 92 91 91 90 89 88 86 84 83 81 78 79 81 85 86
20 13 10 9 8 7 6 6 8 11 11 11 11 12 12 14 21 22 24 40 37 42 48 55 87 93 92 92 94 94 92 92 92 92 91 91 90 90 88 89 88 85 83 81 77 79 85 89 89
15 12 10 11 8 8 8 7 10 11 10 10 9 10 14 21 22 21 30 36 39 42 45 79 91 94 93 91 93 94 94 94 94 92 91 90 89 89 88 87 87 82 80 81 81 83 88 90 90
14 11 10 10 8 6 9 8 11 12 10 10 10 9 13 26 27 24 33 38 40 47 50 69 96 95 94 92 91 94 94 95 95 93 92 90 89 86 86 87 86 84 82 82 86 88 90 90 92
13 12 11 9 8 7 10 8 10 10 9 10 12 10 11 26 31 30 37 44 45 57 64 68 91 95 93 93 93 94 95 95 95 94 93 91 88 86 86 86 86 84 83 86 90 93 92 92 92
16 12 11 9 8 7 8 8 10 9 9 10 11 11 13 24 35 40 40 46 55 58 66 69 73 79 96 94 95 96 95 95 94 93 94 93 92 86 83 86 86 80 84 83 91 93 92 92 92
13 13 14 10 11 9 8 10 8 7 8 10 12 14 17 25 42 42 41 45 56 56 59 64 66 70 72 74 95 96 95 95 95 95 94 94 94 89 85 89 86 84 86 86 89 95 94 94 92
13 16 15 13 12 10 10 11 11 11 11 11 11 12 18 34 42 43 46 45 50 54 53 58 61 68 71 69 73 94 95 95 96 91 94 94 67 63 69 73 82 84 82 86 87 96 94 95 95
17 17 16 11 11 12 10 10 10 11 10 11 12 14 22 33 36 38 40 44 49 53 51 48 56 58 66 55 62 69 73 75 72 69 67 67 62 60 53 67 91 89 88 89 89 95 96 92 94
19 18 14 13 11 10 10 10 10 11 9 10 12 12 13 21 25 30 31 32 37 40 44 48 59 61 64 57 51 71 84 67 76 70 70 68 70 70 68 67 58 59 78 56 79 91 86 88 95
23 16 16 14 13 12 13 10 11 11 11 9 10 13 14 15 20 22 24 27 28 34 40 51 58 63 65 50 52 50 86 86 82 77 85 77 74 76 72 75 54 56 54 62 69 94 86 87 93
21 20 16 17 15 14 14 15 15 14 12 13 12 14 15 15 15 18 20 20 25 34 42 48 71 67 64 66 52 52 60 79 87 81 82 85 78 79 74 81 85 62 67 67 90 82 90 87 84
15 17 18 17 18 17 20 17 17 16 16 16 15 14 12 13 14 14 19 23 27 31 38 49 61 74 61 66 80 66 61 57 74 81 86 86 78 89 77 74 79 73 69 73 88 84 84 86 78
16 18 16 15 16 16 15 17 16 12 12 14 13 12 12 13 12 14 16 23 27 28 31 46 57 65 63 61 72 66 63 69 72 78 88 82 86 80 78 82 88 72 86 90 89 89 89 89 80
19 19 21 14 14 15 17 21 15 14 15 16 15 14 15 14 13 12 15 17 18 22 26 36 43 56 64 60 59 64 72 78 83 85 84 83 82 81 78 81 81 90 88 94 95 97 96 96 91
22 22 22 20 17 17 17 19 14 12 14 16 16 15 14 14 13 13 13 13 15 17 23 30 44 54 60 62 61 77 82 86 74 71 79 85 79 77 76 76 90 93 93 97 96 96 94 96 95
24 25 24 26 20 21 21 20 16 16 17 18 17 16 15 15 13 12 12 14 13 14 19 26 35 51 57 65 76 80 86 86 76 68 66 71 72 76 74 82 92 96 97 98 98 97 95 94 94
19 18 19 16 18 22 22 19 16 15 18 18 17 16 15 15 12 10 18 21 23 25 27 27 36 50 56 81 85 87 95 89 84 81 74 68 72 74 80 89 94 98 96 95 92 96 96 98 94
29 35 22 16 22 25 20 18 15 15 15 15 13 11 10 11 9 16 22 27 30 33 33 36 40 49 54 71 74 71 86 84 82 86 75 75 74 79 87 94 96 97 96 94 92 94 95 92 89
32 36 34 21 17 20 20 17 14 11 9 8 8 10 9 12 16 22 27 30 33 34 38 38 40 45 54 59 78 72 82 82 92 90 86 82 75 84 91 92 94 96 95 96 95 94 90 92 87
27 20 20 26 40 24 13 15 12 11 12 11 12 14 16 22 28 27 29 30 33 35 37 40 42 45 53 58 79 75 75 78 69 76 78 85 82 86 86 88 88 94 96 95 94 92 92 90 93
24 17 23 25 25 24 15 16 11 15 13 13 14 18 27 30 31 31 32 31 30 33 45 47 48 49 57 61 76 70 63 57 57 60 69 87 90 88 87 90 93 94 93 93 94 96 95 93 92
22 26 24 23 23 28 18 14 12 14 14 16 23 30 33 33 32 30 29 30 29 33 41 52 54 53 64 75 75 70 63 57 59 68 79 86 90 91 95 91 92 90 91 92 92 93 93 94 92
22 28 41 47 42 31 21 21 16 17 19 20 27 28 30 30 31 31 29 29 33 37 40 48 54 56 68 82 80 68 62 63 61 62 64 76 80 89 92 94 94 95 92 85 87 90 91 92 92
28 29 29 44 39 31 28 32 20 16 22 30 27 27 29 30 31 30 29 32 34 37 40 45 52 60 70 83 82 70 67 57 55 57 57 66 71 70 94 94 89 91 89 88 90 92 93 91 90
31 36 23 36 34 39 26 26 31 32 34 34 30 29 29 30 30 33 34 37 39 44 49 50 58 62 72 84 86 80 72 60 57 59 60 64 66 71 78 94 93 92 91 88 91 92 94 93 89
21 20 38 31 35 31 18 22 20 38 35 34 31 28 33 34 38 39 39 44 44 44 56 56 58 68 70 82 85 84 74 62 58 60 73 71 74 69 75 87 92 92 92 89 91 91 88 92 92
24 31 30 26 28 26 26 24 24 24 29 32 30 34 39 44 43 41 44 46 45 49 62 54 64 69 75 80 86 86 70 63 63 65 74 77 70 66 70 76 93 91 91 92 90 89 92 91 91
16 21 25 33 33 31 28 24 30 35 34 35 38 43 44 47 42 41 46 51 51 63 76 61 70 72 75 81 88 81 73 65 69 71 75 78 74 68 69 78 91 92 94 92 90 89 89 87 88

GFSSGP_sfc_rhum_111.txt.gz
RH
44 24 16 10 11 8 6 5 4 6 8 7 7 10 10 9 12 20 20 25 23 31 48 65 90 92 90 90 91 93 93 90 90 92 92 92 92 91 90 88 86 86 83 79 80 80 79 81 87
17 14 12 9 10 8 6 4 5 4 7 8 10 9 11 12 10 20 23 24 23 32 48 53 90 92 92 93 94 93 91 90 91 91 92 92 91 91 90 87 85 85 84 80 79 79 80 86 88
38 12 10 8 9 7 6 4 5 6 8 8 9 8 9 11 12 14 20 23 24 30 39 53 89 92 92 94 95 94 92 92 92 92 91 91 90 90 88 86 86 86 84 82 78 79 85 90 90
16 11 10 11 9 6 6 5 4 8 8 7 7 10 9 14 14 14 21 21 25 29 32 82 92 92 92 93 94 94 94 94 94 93 92 90 90 89 89 88 88 87 85 83 82 85 88 90 91
11 9 10 8 8 5 4 5 6 7 7 8 8 8 10 14 14 16 22 24 28 33 40 66 93 94 93 90 93 95 95 95 95 93 92 91 90 90 88 90 89 87 84 83 83 82 84 91 92
13 10 12 10 8 6 4 6 6 8 8 8 10 9 9 14 16 20 26 29 31 40 47 65 89 94 94 92 92 94 95 96 95 94 93 92 91 90 89 90 89 86 85 86 88 90 90 92 93
16 12 12 10 8 6 5 6 7 8 8 7 8 9 9 14 17 23 27 31 39 45 53 65 72 79 96 94 94 94 96 96 95 95 95 94 93 92 90 88 84 84 87 87 94 93 93 93 93
13 13 15 11 10 8 5 6 6 6 6 5 7 10 10 17 26 27 26 31 40 46 52 59 65 67 69 72 96 96 96 96 95 94 96 96 94 91 89 86 85 83 85 87 94 95 94 93 96
12 17 17 14 12 10 6 8 7 6 5 7 7 8 14 20 24 28 29 31 39 43 45 51 53 57 61 60 72 93 96 95 96 92 94 94 66 62 65 75 87 83 82 87 91 94 94 96 96
15 19 18 12 10 10 8 8 7 8 7 8 10 11 14 18 22 28 28 32 38 42 40 40 48 50 55 49 63 66 66 67 67 67 67 71 63 59 62 66 90 84 84 89 94 96 96 93 82
16 20 15 12 10 9 9 8 8 8 9 8 10 10 12 14 17 22 22 22 29 31 32 33 48 53 53 46 46 48 67 62 65 68 66 64 62 66 62 71 75 76 80 56 70 84 68 73 85
18 16 15 14 12 11 11 10 10 9 10 7 6 8 10 11 14 15 18 19 18 25 30 32 38 50 56 42 41 40 62 58 66 61 74 75 79 73 71 62 67 69 59 54 64 79 77 78 82
16 16 15 14 13 13 12 13 12 11 9 9 8 8 10 12 11 12 13 13 14 18 26 32 40 49 54 58 43 45 60 69 61 63 63 63 62 69 67 67 63 62 62 58 73 74 79 79 83
14 15 14 15 15 14 16 15 14 12 12 11 11 11 10 11 10 10 12 14 15 16 20 32 38 53 52 55 55 50 51 59 73 79 63 72 66 68 78 75 72 66 66 67 79 83 72 83 87
13 15 14 14 14 16 15 18 16 13 12 14 14 13 12 10 9 10 11 14 15 15 17 33 42 57 61 54 54 52 46 50 56 66 75 71 71 71 72 76 81 73 68 71 80 83 84 86 90
16 17 19 14 13 14 15 20 14 11 12 13 12 12 12 11 10 9 10 10 11 15 18 22 31 46 63 57 51 57 49 51 48 58 69 74 78 75 69 67 76 82 79 82 78 89 91 94 94
21 22 21 18 12 12 14 18 13 11 12 14 14 13 12 12 11 12 11 11 11 12 16 21 32 42 53 60 51 55 58 53 52 54 68 73 84 83 75 61 73 78 82 87 86 97 94 97 97
25 24 19 18 13 13 15 17 14 12 12 13 13 14 13 13 12 12 12 12 11 12 15 19 24 38 50 52 56 50 55 56 55 57 63 70 72 74 79 68 76 80 91 96 96 97 98 96 96
20 22 21 18 14 19 21 19 15 14 14 15 15 15 15 14 12 12 12 14 16 18 19 19 22 31 42 47 51 57 79 76 70 53 56 58 64 73 80 75 76 90 89 94 95 97 97 98 96
21 24 28 19 16 18 18 19 15 14 13 13 14 15 14 13 12 12 12 15 22 23 24 25 24 27 31 38 44 66 78 77 74 65 61 58 71 72 74 77 95 96 96 95 95 96 98 96 97
20 24 27 22 19 22 18 20 16 12 11 11 12 12 11 10 9 10 13 21 24 26 27 26 26 27 32 40 52 73 76 77 84 84 70 67 70 68 75 74 90 96 94 96 95 95 90 95 98
20 19 23 26 31 42 27 32 18 14 10 10 10 10 9 9 10 12 18 22 24 28 29 33 31 30 32 42 53 75 74 77 72 75 67 66 69 70 69 83 91 96 95 95 94 92 90 91 93
20 21 27 28 29 28 22 28 19 10 10 10 10 10 12 15 19 19 21 21 21 23 29 37 38 35 34 39 51 70 77 64 57 62 67 73 74 78 74 82 93 96 96 92 93 96 94 93 91
18 22 23 23 26 33 23 19 17 13 13 9 9 14 19 22 22 20 20 21 20 24 31 36 39 39 40 42 51 73 77 62 52 56 60 69 79 78 84 85 90 88 90 92 92 92 94 94 91
23 33 51 53 45 40 19 19 16 11 12 12 17 20 23 23 23 23 21 21 23 26 30 34 32 40 43 50 54 77 76 69 55 56 59 66 70 82 89 93 91 91 90 90 90 93 93 92 95
26 27 54 59 52 37 18 26 16 11 12 15 18 20 22 23 24 22 23 27 28 29 32 37 38 36 42 50 68 70 76 71 60 57 55 60 63 68 89 91 91 91 89 88 91 94 94 92 95
26 26 21 35 36 45 29 20 21 14 16 22 21 19 20 21 22 26 29 33 36 37 40 40 45 42 40 50 72 74 77 74 64 58 54 55 59 57 74 86 86 88 89 87 91 94 93 92 90
20 17 30 30 38 34 20 24 23 23 24 24 22 23 22 24 27 30 31 36 39 40 44 45 52 47 42 52 72 77 80 69 66 59 59 57 61 65 85 92 92 93 93 92 92 92 91 92 92
18 23 23 20 22 28 31 27 25 26 25 27 24 23 25 29 33 31 34 37 39 43 44 51 61 52 44 64 73 80 82 73 68 62 60 60 65 67 67 79 88 92 93 93 95 94 93 96 94
11 19 21 27 26 23 30 53 20 24 23 24 25 27 29 34 50 42 40 41 42 46 49 56 69 72 66 74 82 86 84 79 69 66 64 65 69 61 60 71 88 91 92 92 93 95 93 94 98

GFSSGP_sfc_rhum_114.txt.gz
RH
54 29 21 20 17 13 11 8 5 4 6 6 7 7 9 10 18 31 25 30 44 52 70 76 93 92 91 90 92 93 94 92 92 93 94 93 92 91 90 89 88 86 84 82 82 81 80 84 89
20 15 16 17 16 13 9 6 5 4 6 8 8 9 11 12 17 23 29 27 39 54 61 72 94 92 92 92 94 95 93 91 92 93 93 92 92 91 89 88 88 87 86 82 80 80 82 88 90
32 20 19 15 14 14 10 5 5 6 8 8 8 7 9 10 13 20 26 29 36 47 50 72 93 93 93 94 95 94 93 91 93 93 92 92 91 90 89 88 87 88 86 83 80 81 86 90 90
28 25 15 16 13 8 8 6 4 6 7 7 7 9 8 15 13 21 22 25 34 41 49 90 93 93 93 94 95 94 94 93 95 94 92 92 91 90 90 88 87 88 87 84 83 81 85 91 91
23 14 17 13 11 9 7 5 5 5 7 7 7 8 11 15 13 21 24 27 39 52 75 79 94 93 93 93 95 95 95 96 95 94 93 92 92 90 90 89 89 88 86 84 82 83 90 92 92
22 16 20 15 11 8 6 5 5 6 7 7 9 9 12 13 15 25 29 39 48 73 76 82 92 93 92 94 95 96 96 96 95 94 94 93 93 90 90 90 90 88 85 86 85 87 91 92 92
22 18 18 15 12 10 7 5 6 7 8 7 8 10 13 17 20 27 32 43 56 64 78 84 85 87 94 93 94 96 97 96 93 95 94 94 94 92 89 89 90 85 85 90 90 92 92 92 92
18 18 18 14 13 11 7 6 6 6 6 6 6 9 14 16 22 25 30 36 52 60 72 80 82 84 87 90 95 96 97 97 96 95 94 96 96 94 91 90 86 85 84 88 90 93 92 92 95
15 23 23 18 15 13 9 8 7 6 6 5 6 8 18 21 26 28 36 39 50 58 63 72 73 76 79 80 86 97 96 97 97 95 97 99 91 86 83 85 84 86 88 90 94 96 93 95 95
19 24 22 15 13 13 10 9 8 8 7 7 7 9 14 19 24 30 29 39 51 54 56 58 66 69 72 58 81 84 84 87 89 87 89 87 87 81 72 77 89 87 82 89 95 93 95 95 95
18 23 18 15 12 11 11 10 8 8 9 9 10 10 12 15 19 28 27 29 41 44 45 48 66 71 67 62 70 71 75 80 81 82 83 84 81 84 82 89 88 92 87 82 92 97 90 92 93
19 17 16 15 13 13 12 10 10 10 10 8 7 10 11 14 19 20 24 24 28 37 39 41 56 69 72 58 63 65 68 76 77 78 83 85 84 88 87 85 85 87 88 82 79 87 83 85 88
16 16 15 14 14 14 13 14 13 12 11 10 8 9 12 14 14 16 17 19 21 29 37 41 52 65 69 74 65 68 73 74 74 77 80 80 83 87 86 87 86 80 78 75 89 86 90 82 89
14 14 15 14 14 14 16 15 14 13 13 12 12 11 10 12 12 14 15 18 23 23 33 44 46 63 63 69 75 69 77 78 80 78 78 82 82 84 87 89 84 88 89 88 89 92 89 89 93
16 19 17 15 14 16 15 18 18 14 13 13 13 13 12 12 11 13 14 20 23 23 25 48 53 62 66 69 69 72 70 76 76 82 84 81 82 84 82 88 91 89 89 85 92 92 93 93 92
18 19 24 17 14 14 15 24 17 14 14 15 14 14 14 14 13 12 13 13 15 18 23 42 41 61 69 69 67 63 68 73 74 77 80 82 83 82 86 87 88 92 91 92 95 96 96 97 96
22 25 24 20 14 14 16 20 16 14 14 15 14 14 14 15 13 13 14 13 12 14 26 32 53 68 74 74 69 70 74 75 70 73 75 79 82 83 80 81 85 90 93 95 95 96 96 97 97
28 27 23 22 16 15 16 17 14 13 12 15 14 15 14 14 13 13 13 13 14 15 26 34 50 60 72 74 74 70 72 70 70 69 69 77 75 84 87 82 87 90 91 96 96 97 96 96 97
22 21 23 20 16 18 19 17 14 12 14 15 15 15 16 17 14 15 20 23 27 28 29 30 36 59 65 68 74 72 72 71 70 70 75 79 79 86 84 83 89 89 94 97 95 98 98 99 98
20 21 22 19 17 26 28 30 18 15 16 15 15 16 16 16 15 16 18 27 28 28 34 36 35 37 49 57 61 66 67 74 72 77 75 73 78 81 78 88 92 93 95 96 97 96 99 98 97
18 21 23 23 31 43 32 36 21 16 15 14 14 15 15 17 17 16 17 30 37 36 40 35 35 37 43 43 57 70 85 86 86 84 75 74 76 77 81 87 96 95 94 96 97 94 95 97 98
19 15 18 22 35 70 33 39 23 18 17 14 13 14 17 16 15 13 18 30 35 38 39 38 42 41 40 50 52 80 84 86 81 83 78 76 80 80 80 83 95 95 95 96 96 95 93 91 96
15 14 18 22 33 47 40 38 28 22 24 22 14 13 14 16 14 16 24 26 28 36 43 43 46 47 47 49 57 79 80 75 76 80 85 83 79 80 77 84 95 95 96 95 95 96 94 91 91
12 20 24 28 35 54 39 36 31 25 24 22 14 11 15 22 25 25 25 26 29 35 44 46 46 42 49 54 60 74 81 77 77 81 83 84 86 84 84 87 92 96 96 96 94 94 93 93 91
20 28 49 63 56 57 31 35 30 17 14 16 14 13 26 27 28 27 25 25 33 40 44 44 43 43 46 59 61 70 78 79 76 73 76 78 86 90 89 90 95 96 96 93 92 94 94 93 94
26 29 52 55 56 43 26 34 24 16 12 12 18 25 26 27 30 29 30 37 40 44 46 50 47 46 47 53 63 68 78 78 74 72 69 78 80 84 86 89 91 93 94 94 93 95 95 93 93
28 36 30 42 50 56 30 25 18 14 18 20 24 26 28 26 28 31 34 42 45 47 51 56 53 51 52 57 58 71 81 83 75 74 77 73 72 72 84 90 90 92 91 94 95 96 96 95 94
24 25 44 41 53 60 72 30 37 22 26 28 32 24 24 24 31 34 38 45 44 47 54 57 55 55 60 65 66 71 77 77 78 79 79 74 73 74 90 92 93 94 94 93 95 96 95 95 95
32 29 29 29 33 39 53 62 37 27 32 54 25 28 45 46 46 44 42 43 46 49 50 54 57 62 67 72 79 74 76 77 79 82 80 74 74 78 85 90 90 93 94 93 95 96 95 95 94
18 24 26 40 37 29 37 44 41 38 26 27 57 49 56 50 49 47 48 50 50 52 52 56 62 66 74 80 76 80 84 81 82 88 80 79 74 77 85 90 92 95 95 95 96 97 96 95 95

GFSSGP_sfc_rhum_120.txt.gz
RH
74 61 48 40 38 40 40 29 20 14 13 12 14 18 23 32 34 46 71 65 79 90 89 90 93 92 93 93 93 94 94 93 92 93 93 92 91 91 92 93 92 90 86 83 83 84 82 85 89
52 37 35 43 48 44 33 24 18 13 11 11 14 18 27 43 48 70 70 73 79 89 90 90 93 92 92 94 94 95 93 93 94 94 93 92 91 90 90 91 92 91 88 83 82 83 83 87 91
37 33 40 48 53 43 30 19 14 12 10 13 16 14 22 40 54 59 61 78 85 89 89 89 94 93 92 93 95 95 95 95 95 94 93 92 91 90 89 89 90 86 83 84 81 84 87 90 90
31 53 56 55 46 32 24 18 15 13 11 12 15 14 26 37 47 58 68 75 83 88 87 95 95 94 94 95 95 96 96 96 96 95 93 92 91 90 90 90 91 89 86 86 85 89 91 91 91
43 58 67 57 43 29 21 18 16 14 11 10 12 15 31 41 50 60 66 68 82 91 94 94 96 95 95 96 96 96 96 97 96 95 94 93 92 91 90 91 92 91 89 86 90 91 91 91 91
55 54 57 57 38 23 20 15 15 13 12 11 14 22 30 44 55 58 61 74 83 92 96 95 95 96 96 96 96 94 90 96 96 96 95 94 93 92 91 91 92 90 90 89 91 91 91 91 91
66 64 58 49 37 31 21 20 17 15 13 14 13 20 44 49 52 58 70 85 88 91 96 98 97 97 98 98 98 96 95 97 97 97 96 95 94 93 92 91 91 90 89 90 92 92 92 92 91
53 59 70 51 39 34 21 19 15 14 11 11 12 23 47 40 50 72 84 93 94 95 96 98 99 98 98 98 98 98 98 98 98 97 97 96 95 94 93 92 92 92 90 91 91 94 94 94 94
35 56 55 52 44 34 23 23 21 14 11 9 12 13 28 42 61 84 95 98 98 95 97 98 98 99 99 99 98 99 98 98 98 98 98 98 98 96 95 94 93 90 89 92 91 94 95 95 95
36 51 49 37 32 30 25 23 21 18 16 12 37 38 33 49 61 75 84 96 97 98 98 97 98 98 98 91 98 98 96 95 96 97 86 99 99 98 94 94 93 90 90 90 90 94 95 96 98
30 36 34 31 30 27 26 25 21 23 20 15 25 40 42 49 55 64 71 83 87 93 95 97 97 97 97 92 99 98 95 93 92 99 97 99 99 99 98 99 96 97 94 95 96 98 99 97 98
22 16 19 24 24 27 28 26 24 25 20 16 17 35 41 46 53 57 64 69 85 94 93 95 96 97 97 98 98 99 98 98 97 98 98 99 100 100 99 99 98 98 98 98 98 99 98 97 96
32 22 16 16 18 20 22 24 24 22 19 17 18 22 29 41 45 49 53 58 68 80 86 92 93 93 93 97 95 97 98 98 98 99 98 98 99 99 98 98 98 98 98 98 99 98 98 98 97
20 20 22 21 17 16 20 20 23 20 22 20 19 18 18 20 31 44 49 56 64 64 72 82 88 87 85 90 93 92 92 96 97 96 97 97 97 98 98 98 98 98 96 98 98 98 98 98 98
22 24 17 19 22 23 19 23 22 17 20 21 19 20 19 20 24 27 34 48 56 59 61 75 81 84 83 83 90 90 90 93 95 94 95 95 97 96 96 97 98 97 97 97 98 98 98 99 99
31 29 31 16 18 21 24 30 20 16 20 20 22 21 21 20 18 19 21 21 44 53 58 61 67 80 80 77 84 85 88 91 92 92 93 92 93 95 97 96 97 97 98 97 98 98 98 98 98
36 41 32 25 18 23 26 29 21 19 20 20 20 22 21 22 20 19 19 21 20 36 54 58 65 77 78 73 79 86 92 88 88 91 92 94 93 94 96 96 98 96 98 98 98 98 96 98 99
39 37 33 29 20 22 25 28 22 22 21 20 21 24 24 22 21 20 21 20 20 20 43 55 61 71 74 73 74 91 97 95 91 93 91 95 92 94 96 97 96 96 97 98 98 97 99 96 96
45 45 41 31 24 26 20 26 23 22 24 22 23 25 24 22 18 20 20 20 23 24 36 60 62 68 75 84 86 91 91 98 98 94 92 91 94 94 95 97 94 94 95 96 97 97 98 99 96
39 56 65 39 25 25 27 23 22 20 21 20 20 25 23 24 21 19 19 25 30 36 45 70 65 73 73 80 81 94 96 95 90 96 95 90 92 94 94 95 96 95 97 98 98 96 99 99 98
49 47 52 59 30 25 50 53 39 35 22 22 23 22 22 23 22 20 18 34 46 50 67 88 91 85 83 85 96 98 97 97 96 97 96 96 93 92 88 94 94 98 96 97 96 96 95 98 99
95 40 45 53 38 50 62 75 49 38 36 28 23 26 25 24 26 28 42 49 46 58 58 57 68 73 70 89 93 93 93 89 96 93 94 96 93 94 92 94 95 95 97 97 97 95 94 94 97
89 56 47 51 34 38 51 87 70 43 39 33 26 26 27 23 27 41 54 57 59 58 59 58 56 60 66 71 75 92 92 95 97 97 94 94 94 89 90 91 92 95 97 96 96 97 96 93 94
62 55 54 39 44 56 43 74 68 40 31 30 26 25 25 42 50 50 50 54 62 63 60 59 58 59 63 69 77 88 94 96 98 97 97 96 97 95 93 92 94 92 94 96 95 94 94 95 94
64 60 73 75 75 82 59 82 57 39 31 28 29 36 38 43 50 56 58 61 62 65 61 57 59 62 62 66 75 86 87 86 96 96 96 95 96 98 98 96 97 96 95 94 93 97 97 96 96
66 52 60 80 78 77 59 69 48 32 27 27 36 53 51 53 52 59 62 64 66 66 67 66 65 65 63 66 72 73 77 84 84 95 95 94 92 87 92 96 96 95 96 95 95 96 96 96 96
47 50 32 59 73 71 54 42 28 46 54 42 56 58 64 62 67 68 66 67 68 69 72 72 69 67 67 68 72 76 78 80 86 86 92 92 90 86 84 92 96 96 95 95 96 97 98 98 96
54 40 66 74 86 82 90 67 84 91 90 79 79 76 73 69 68 67 68 68 67 68 70 70 69 70 72 71 73 72 76 78 83 87 87 91 93 90 94 95 94 96 96 95 96 97 97 98 97
65 61 76 75 86 92 95 98 81 80 89 90 82 78 77 73 72 70 70 66 66 67 67 71 73 75 76 77 77 78 78 77 79 86 90 91 90 92 93 94 96 97 97 97 98 97 97 98 98
55 72 70 83 94 88 84 95 87 82 83 83 80 80 79 75 73 71 70 69 71 73 74 76 75 78 80 79 80 81 81 80 82 83 92 90 91 94 93 92 96 97 97 97 97 98 97 98 98

GFSSGP_sfc_rhum_123.txt.gz
RH
70 56 50 40 38 46 44 29 27 17 14 13 14 18 21 40 40 43 75 69 81 84 90 94 95 93 93 93 93 93 92 91 91 92 92 92 93 94 93 93 92 89 85 82 82 83 83 84 88
51 40 37 46 40 42 23 32 21 17 14 13 16 22 33 41 55 76 75 81 79 87 90 92 95 94 93 94 94 93 91 92 92 92 92 92 92 93 93 94 93 90 87 83 82 81 84 87 90
46 38 38 50 61 34 20 24 19 14 14 13 16 14 33 44 64 70 74 82 87 90 90 90 94 94 94 94 94 94 94 94 93 92 91 91 91 92 92 93 93 91 88 83 81 83 87 91 91
32 47 54 62 55 45 29 23 19 18 14 13 16 15 30 45 61 60 78 85 90 94 91 95 95 94 94 94 95 95 95 95 95 94 92 90 90 90 90 92 90 90 88 86 84 86 90 90 91
55 64 62 79 63 42 28 23 21 18 16 14 14 14 33 48 61 76 82 81 90 96 96 95 96 94 93 94 95 96 96 96 95 94 93 92 90 90 90 92 90 89 90 90 92 91 91 91 91
57 61 78 69 43 32 27 22 19 18 17 15 17 18 40 59 71 73 77 83 87 95 96 95 95 96 95 95 96 97 97 96 96 96 95 93 93 91 90 92 92 91 92 92 91 91 90 90 91
66 68 76 70 43 35 26 24 21 20 18 16 16 21 47 71 65 70 80 90 92 94 96 97 96 97 98 98 98 96 97 97 97 96 96 95 95 93 91 92 92 91 92 92 91 92 92 91 92
61 69 79 59 45 42 26 24 20 20 18 13 17 44 58 58 70 89 96 97 97 97 96 97 95 93 95 98 98 95 96 98 97 97 97 96 95 94 93 93 93 91 92 92 91 93 92 93 95
41 63 56 52 47 36 28 29 26 21 20 19 15 28 38 62 83 90 96 98 99 98 98 97 95 92 90 91 96 97 97 98 98 98 98 98 97 97 95 95 94 93 92 92 94 95 95 96 96
35 57 46 45 38 37 32 32 29 24 24 21 22 29 49 72 78 83 87 88 94 97 98 98 97 95 93 86 92 93 91 94 95 97 98 99 99 98 96 96 95 93 92 93 92 94 96 96 99
30 31 28 35 36 35 38 33 28 30 29 26 25 20 54 72 76 73 73 76 80 86 93 97 98 99 98 90 89 91 88 88 97 97 98 98 99 99 99 99 98 97 94 97 96 96 98 97 99
26 18 19 25 26 27 29 34 30 32 27 24 21 21 52 65 74 71 73 75 82 85 89 96 96 98 98 98 88 86 88 89 88 92 97 99 98 99 99 99 99 98 98 97 97 98 97 98 98
29 29 28 25 22 18 17 20 25 24 21 24 20 20 38 57 62 63 65 73 84 89 87 95 96 96 96 98 96 90 89 92 89 89 96 98 93 94 99 99 99 98 99 98 98 98 98 98 98
29 29 26 22 21 16 22 21 22 18 18 22 21 21 22 43 55 58 66 71 86 81 87 89 94 92 93 95 96 97 98 97 97 94 92 97 96 96 99 99 99 99 98 98 98 98 98 98 98
31 34 28 23 20 21 17 25 24 16 16 19 23 21 20 27 33 50 56 64 72 75 80 92 90 89 92 91 94 93 95 96 98 98 98 97 98 98 98 98 99 98 98 98 98 98 98 98 99
40 38 36 19 20 19 26 24 18 21 19 18 19 20 22 19 23 27 38 53 61 65 72 85 80 89 90 90 95 93 94 96 94 96 97 97 97 96 98 98 98 98 98 98 98 98 99 99 99
52 52 39 30 20 21 22 22 17 19 21 20 18 18 21 20 21 23 27 39 52 61 65 78 84 91 89 88 91 94 95 97 97 97 97 96 96 96 97 98 98 98 99 98 98 99 97 98 97
37 45 37 38 26 26 29 29 22 18 21 22 20 18 21 22 19 19 22 23 29 53 61 68 79 87 87 85 93 98 99 98 98 98 96 96 95 96 97 98 98 97 98 99 99 98 99 98 96
41 47 51 45 37 39 37 31 26 22 22 19 22 22 24 21 20 19 20 22 23 27 54 72 75 81 88 86 93 98 97 98 98 98 95 96 95 96 96 98 97 96 96 98 98 99 98 99 98
53 56 54 42 34 42 46 44 29 23 24 18 20 21 25 24 24 22 21 23 25 27 29 64 69 75 82 78 77 88 90 97 94 97 96 94 95 96 95 96 97 96 96 97 98 96 99 99 98
59 66 61 58 49 40 50 55 35 24 25 21 18 21 19 25 23 21 22 23 30 35 47 52 62 69 79 81 96 99 97 98 99 100 98 96 96 96 94 96 96 97 96 97 97 96 96 99 99
73 48 54 89 90 85 47 65 46 38 39 35 21 22 25 25 25 26 47 59 75 84 85 87 88 90 95 96 96 95 95 95 94 92 95 98 96 95 95 95 96 96 97 96 96 96 95 94 98
72 59 83 74 70 64 65 71 56 45 50 40 33 25 28 31 41 67 65 64 66 64 65 66 70 72 76 87 90 97 97 98 98 97 96 98 98 95 94 94 96 97 98 96 96 98 97 94 94
61 70 77 69 74 94 65 65 72 54 43 39 36 32 63 66 65 63 59 58 62 62 62 63 65 67 72 78 81 83 88 91 97 98 98 98 98 98 96 94 95 93 96 97 97 96 96 96 93
73 76 94 94 98 84 46 57 52 42 49 49 52 64 62 60 65 66 71 71 71 71 67 64 69 70 75 76 78 80 84 86 87 93 98 98 99 99 97 97 97 96 95 95 94 96 96 96 95
84 67 75 89 89 73 56 65 66 57 34 53 58 64 68 77 74 76 75 73 71 71 72 69 68 71 70 73 77 79 80 82 87 92 96 98 97 95 94 97 96 96 96 96 96 96 95 95 96
74 89 50 59 85 94 78 61 74 75 73 78 78 78 80 76 80 78 74 73 71 71 73 72 71 72 72 74 77 80 81 83 87 88 88 88 94 94 94 96 96 96 96 95 96 96 97 97 96
78 57 69 77 96 84 89 94 91 90 85 83 84 84 81 77 76 72 71 73 71 70 70 71 71 73 72 72 77 75 82 82 82 84 91 91 88 93 94 95 96 96 96 96 96 96 96 97 98
86 92 84 78 93 95 96 93 80 91 93 94 87 84 83 81 77 74 73 71 72 71 72 74 76 77 78 78 79 82 82 82 83 86 86 88 89 89 92 92 94 95 96 97 97 96 97 98 98
66 92 88 99 89 94 97 99 95 92 88 87 88 80 80 79 76 74 73 73 73 78 78 82 83 85 84 81 82 84 82 81 86 87 86 84 84 91 85 91 94 94 93 95 97 97 97 98 98